<?xml version="1.0" encoding="UTF-8" standalone="no" ?>
<gpx xmlns="http://www.topografix.com/GPX/1/1" xmlns:xsi="http://www.w3.org/2001/XMLSchema-instance" xsi:schemaLocation="http://www.topografix.com/GPX/1/1 http://www.topografix.com/GPX/1/1/gpx.xsd" version="1.1" creator="VisuGPX - https://www.visugpx.com">
  <metadata>
    <name>Stevenson Samedi 17 Septembre</name>
    <desc><![CDATA[Florac - Cassagnas après une journée de pause à Florac
couvert, légère pluie le soir.
]]></desc>
  </metadata>
  <trk>
    <name><![CDATA[ACTIVE LOG083432]]></name>
    <trkseg>
      <trkpt lat="44.32147" lon="3.59802">
        <ele>536.923</ele>
        <time>2011-09-17T06:34:31Z</time>
      </trkpt>
      <trkpt lat="44.32147" lon="3.59802">
        <ele>536.923</ele>
        <time>2011-09-17T06:34:32Z</time>
      </trkpt>
      <trkpt lat="44.32147" lon="3.59801">
        <ele>538.885</ele>
        <time>2011-09-17T06:34:42Z</time>
      </trkpt>
      <trkpt lat="44.3214" lon="3.598">
        <ele>540.511</ele>
        <time>2011-09-17T06:34:52Z</time>
      </trkpt>
      <trkpt lat="44.32133" lon="3.59797">
        <ele>542.05</ele>
        <time>2011-09-17T06:35:02Z</time>
      </trkpt>
      <trkpt lat="44.32123" lon="3.59795">
        <ele>542.704</ele>
        <time>2011-09-17T06:35:12Z</time>
      </trkpt>
      <trkpt lat="44.32113" lon="3.59798">
        <ele>542.737</ele>
        <time>2011-09-17T06:35:22Z</time>
      </trkpt>
      <trkpt lat="44.32107" lon="3.5979">
        <ele>543.155</ele>
        <time>2011-09-17T06:35:32Z</time>
      </trkpt>
      <trkpt lat="44.32105" lon="3.59775">
        <ele>542.621</ele>
        <time>2011-09-17T06:35:42Z</time>
      </trkpt>
      <trkpt lat="44.32098" lon="3.59766">
        <ele>543.137</ele>
        <time>2011-09-17T06:35:52Z</time>
      </trkpt>
      <trkpt lat="44.32093" lon="3.59748">
        <ele>543.373</ele>
        <time>2011-09-17T06:36:02Z</time>
      </trkpt>
      <trkpt lat="44.32092" lon="3.5973">
        <ele>543.66</ele>
        <time>2011-09-17T06:36:12Z</time>
      </trkpt>
      <trkpt lat="44.32085" lon="3.59717">
        <ele>543.791</ele>
        <time>2011-09-17T06:36:22Z</time>
      </trkpt>
      <trkpt lat="44.32082" lon="3.59708">
        <ele>543.734</ele>
        <time>2011-09-17T06:36:32Z</time>
      </trkpt>
      <trkpt lat="44.32076" lon="3.59696">
        <ele>543.885</ele>
        <time>2011-09-17T06:36:42Z</time>
      </trkpt>
      <trkpt lat="44.32066" lon="3.59701">
        <ele>543.589</ele>
        <time>2011-09-17T06:36:52Z</time>
      </trkpt>
      <trkpt lat="44.32053" lon="3.59701">
        <ele>543.677</ele>
        <time>2011-09-17T06:37:02Z</time>
      </trkpt>
      <trkpt lat="44.32044" lon="3.59709">
        <ele>543.476</ele>
        <time>2011-09-17T06:37:12Z</time>
      </trkpt>
      <trkpt lat="44.32037" lon="3.59715">
        <ele>543.579</ele>
        <time>2011-09-17T06:37:22Z</time>
      </trkpt>
      <trkpt lat="44.32029" lon="3.5972">
        <ele>543.436</ele>
        <time>2011-09-17T06:37:32Z</time>
      </trkpt>
      <trkpt lat="44.32016" lon="3.59726">
        <ele>543.542</ele>
        <time>2011-09-17T06:37:42Z</time>
      </trkpt>
      <trkpt lat="44.32007" lon="3.59731">
        <ele>543.801</ele>
        <time>2011-09-17T06:37:52Z</time>
      </trkpt>
      <trkpt lat="44.31995" lon="3.59738">
        <ele>543.373</ele>
        <time>2011-09-17T06:38:02Z</time>
      </trkpt>
      <trkpt lat="44.31982" lon="3.59749">
        <ele>543.597</ele>
        <time>2011-09-17T06:38:12Z</time>
      </trkpt>
      <trkpt lat="44.31964" lon="3.5975">
        <ele>543.397</ele>
        <time>2011-09-17T06:38:22Z</time>
      </trkpt>
      <trkpt lat="44.31953" lon="3.59754">
        <ele>543.481</ele>
        <time>2011-09-17T06:38:32Z</time>
      </trkpt>
      <trkpt lat="44.31943" lon="3.59757">
        <ele>543.678</ele>
        <time>2011-09-17T06:38:42Z</time>
      </trkpt>
      <trkpt lat="44.31934" lon="3.59766">
        <ele>544.144</ele>
        <time>2011-09-17T06:38:52Z</time>
      </trkpt>
      <trkpt lat="44.31922" lon="3.59773">
        <ele>544.293</ele>
        <time>2011-09-17T06:39:02Z</time>
      </trkpt>
      <trkpt lat="44.31913" lon="3.59771">
        <ele>544.156</ele>
        <time>2011-09-17T06:39:12Z</time>
      </trkpt>
      <trkpt lat="44.31903" lon="3.59768">
        <ele>544.552</ele>
        <time>2011-09-17T06:39:22Z</time>
      </trkpt>
      <trkpt lat="44.31895" lon="3.59772">
        <ele>544.493</ele>
        <time>2011-09-17T06:39:32Z</time>
      </trkpt>
      <trkpt lat="44.31881" lon="3.59774">
        <ele>544.704</ele>
        <time>2011-09-17T06:39:42Z</time>
      </trkpt>
      <trkpt lat="44.31868" lon="3.59777">
        <ele>544.955</ele>
        <time>2011-09-17T06:39:52Z</time>
      </trkpt>
      <trkpt lat="44.31856" lon="3.59782">
        <ele>544.67</ele>
        <time>2011-09-17T06:40:02Z</time>
      </trkpt>
      <trkpt lat="44.31842" lon="3.59784">
        <ele>544.696</ele>
        <time>2011-09-17T06:40:12Z</time>
      </trkpt>
      <trkpt lat="44.31833" lon="3.59788">
        <ele>544.816</ele>
        <time>2011-09-17T06:40:22Z</time>
      </trkpt>
      <trkpt lat="44.31821" lon="3.59792">
        <ele>544.819</ele>
        <time>2011-09-17T06:40:32Z</time>
      </trkpt>
      <trkpt lat="44.31808" lon="3.59793">
        <ele>544.747</ele>
        <time>2011-09-17T06:40:42Z</time>
      </trkpt>
      <trkpt lat="44.31794" lon="3.59797">
        <ele>544.523</ele>
        <time>2011-09-17T06:40:52Z</time>
      </trkpt>
      <trkpt lat="44.31781" lon="3.59796">
        <ele>544.206</ele>
        <time>2011-09-17T06:41:02Z</time>
      </trkpt>
      <trkpt lat="44.31771" lon="3.59799">
        <ele>544.311</ele>
        <time>2011-09-17T06:41:12Z</time>
      </trkpt>
      <trkpt lat="44.3176" lon="3.59801">
        <ele>544.834</ele>
        <time>2011-09-17T06:41:22Z</time>
      </trkpt>
      <trkpt lat="44.31744" lon="3.59804">
        <ele>544.449</ele>
        <time>2011-09-17T06:41:32Z</time>
      </trkpt>
      <trkpt lat="44.31733" lon="3.59805">
        <ele>544.235</ele>
        <time>2011-09-17T06:41:42Z</time>
      </trkpt>
      <trkpt lat="44.3172" lon="3.59803">
        <ele>544.306</ele>
        <time>2011-09-17T06:41:52Z</time>
      </trkpt>
      <trkpt lat="44.31708" lon="3.59803">
        <ele>544.441</ele>
        <time>2011-09-17T06:42:02Z</time>
      </trkpt>
      <trkpt lat="44.31699" lon="3.59806">
        <ele>544.56</ele>
        <time>2011-09-17T06:42:12Z</time>
      </trkpt>
      <trkpt lat="44.31686" lon="3.59807">
        <ele>544.015</ele>
        <time>2011-09-17T06:42:22Z</time>
      </trkpt>
      <trkpt lat="44.31672" lon="3.59805">
        <ele>544.549</ele>
        <time>2011-09-17T06:42:32Z</time>
      </trkpt>
      <trkpt lat="44.3166" lon="3.59808">
        <ele>544.281</ele>
        <time>2011-09-17T06:42:42Z</time>
      </trkpt>
      <trkpt lat="44.31645" lon="3.59807">
        <ele>544.422</ele>
        <time>2011-09-17T06:42:52Z</time>
      </trkpt>
      <trkpt lat="44.31632" lon="3.59809">
        <ele>544.545</ele>
        <time>2011-09-17T06:43:02Z</time>
      </trkpt>
      <trkpt lat="44.31622" lon="3.59806">
        <ele>544.452</ele>
        <time>2011-09-17T06:43:12Z</time>
      </trkpt>
      <trkpt lat="44.31611" lon="3.59805">
        <ele>544.389</ele>
        <time>2011-09-17T06:43:22Z</time>
      </trkpt>
      <trkpt lat="44.31597" lon="3.59805">
        <ele>543.526</ele>
        <time>2011-09-17T06:43:32Z</time>
      </trkpt>
      <trkpt lat="44.31584" lon="3.59801">
        <ele>543.32</ele>
        <time>2011-09-17T06:43:42Z</time>
      </trkpt>
      <trkpt lat="44.31572" lon="3.59797">
        <ele>543.282</ele>
        <time>2011-09-17T06:43:52Z</time>
      </trkpt>
      <trkpt lat="44.3156" lon="3.5979">
        <ele>543.747</ele>
        <time>2011-09-17T06:44:02Z</time>
      </trkpt>
      <trkpt lat="44.31549" lon="3.59783">
        <ele>543.705</ele>
        <time>2011-09-17T06:44:12Z</time>
      </trkpt>
      <trkpt lat="44.31541" lon="3.59781">
        <ele>543.695</ele>
        <time>2011-09-17T06:44:22Z</time>
      </trkpt>
      <trkpt lat="44.3153" lon="3.59782">
        <ele>543.306</ele>
        <time>2011-09-17T06:44:32Z</time>
      </trkpt>
      <trkpt lat="44.31518" lon="3.59779">
        <ele>543.79</ele>
        <time>2011-09-17T06:44:42Z</time>
      </trkpt>
      <trkpt lat="44.31507" lon="3.59776">
        <ele>543.66</ele>
        <time>2011-09-17T06:44:52Z</time>
      </trkpt>
      <trkpt lat="44.31492" lon="3.59773">
        <ele>543.269</ele>
        <time>2011-09-17T06:45:02Z</time>
      </trkpt>
      <trkpt lat="44.31479" lon="3.59775">
        <ele>543.93</ele>
        <time>2011-09-17T06:45:12Z</time>
      </trkpt>
      <trkpt lat="44.31469" lon="3.59775">
        <ele>543.996</ele>
        <time>2011-09-17T06:45:22Z</time>
      </trkpt>
      <trkpt lat="44.31458" lon="3.59777">
        <ele>544.31</ele>
        <time>2011-09-17T06:45:32Z</time>
      </trkpt>
      <trkpt lat="44.31446" lon="3.59775">
        <ele>544.189</ele>
        <time>2011-09-17T06:45:42Z</time>
      </trkpt>
      <trkpt lat="44.31432" lon="3.59779">
        <ele>544.297</ele>
        <time>2011-09-17T06:45:52Z</time>
      </trkpt>
      <trkpt lat="44.31419" lon="3.59782">
        <ele>544.292</ele>
        <time>2011-09-17T06:46:02Z</time>
      </trkpt>
      <trkpt lat="44.31403" lon="3.59779">
        <ele>544.471</ele>
        <time>2011-09-17T06:46:12Z</time>
      </trkpt>
      <trkpt lat="44.31389" lon="3.5978">
        <ele>544.63</ele>
        <time>2011-09-17T06:46:22Z</time>
      </trkpt>
      <trkpt lat="44.31375" lon="3.59782">
        <ele>544.675</ele>
        <time>2011-09-17T06:46:32Z</time>
      </trkpt>
      <trkpt lat="44.31364" lon="3.59784">
        <ele>544.633</ele>
        <time>2011-09-17T06:46:42Z</time>
      </trkpt>
      <trkpt lat="44.31352" lon="3.59785">
        <ele>545.206</ele>
        <time>2011-09-17T06:46:52Z</time>
      </trkpt>
      <trkpt lat="44.31339" lon="3.59793">
        <ele>544.754</ele>
        <time>2011-09-17T06:47:02Z</time>
      </trkpt>
      <trkpt lat="44.31326" lon="3.59798">
        <ele>545.079</ele>
        <time>2011-09-17T06:47:12Z</time>
      </trkpt>
      <trkpt lat="44.31317" lon="3.59808">
        <ele>545.372</ele>
        <time>2011-09-17T06:47:22Z</time>
      </trkpt>
      <trkpt lat="44.31305" lon="3.59812">
        <ele>545.187</ele>
        <time>2011-09-17T06:47:32Z</time>
      </trkpt>
      <trkpt lat="44.31294" lon="3.59816">
        <ele>545.674</ele>
        <time>2011-09-17T06:47:42Z</time>
      </trkpt>
      <trkpt lat="44.31283" lon="3.59824">
        <ele>545.262</ele>
        <time>2011-09-17T06:47:52Z</time>
      </trkpt>
      <trkpt lat="44.3127" lon="3.59827">
        <ele>544.877</ele>
        <time>2011-09-17T06:48:02Z</time>
      </trkpt>
      <trkpt lat="44.31268" lon="3.59835">
        <ele>545.721</ele>
        <time>2011-09-17T06:48:12Z</time>
      </trkpt>
      <trkpt lat="44.31268" lon="3.5985">
        <ele>547.145</ele>
        <time>2011-09-17T06:48:22Z</time>
      </trkpt>
      <trkpt lat="44.3127" lon="3.59866">
        <ele>547.942</ele>
        <time>2011-09-17T06:48:32Z</time>
      </trkpt>
      <trkpt lat="44.31275" lon="3.59869">
        <ele>547.508</ele>
        <time>2011-09-17T06:48:42Z</time>
      </trkpt>
      <trkpt lat="44.31275" lon="3.59868">
        <ele>548.042</ele>
        <time>2011-09-17T06:48:52Z</time>
      </trkpt>
      <trkpt lat="44.31275" lon="3.5986">
        <ele>548.171</ele>
        <time>2011-09-17T06:49:02Z</time>
      </trkpt>
      <trkpt lat="44.31276" lon="3.59856">
        <ele>548.095</ele>
        <time>2011-09-17T06:49:12Z</time>
      </trkpt>
      <trkpt lat="44.31275" lon="3.59829">
        <ele>548.433</ele>
        <time>2011-09-17T06:49:22Z</time>
      </trkpt>
      <trkpt lat="44.31276" lon="3.5983">
        <ele>548.087</ele>
        <time>2011-09-17T06:49:32Z</time>
      </trkpt>
      <trkpt lat="44.31276" lon="3.59832">
        <ele>548.174</ele>
        <time>2011-09-17T06:49:42Z</time>
      </trkpt>
      <trkpt lat="44.31276" lon="3.59831">
        <ele>548.533</ele>
        <time>2011-09-17T06:49:52Z</time>
      </trkpt>
      <trkpt lat="44.31275" lon="3.59831">
        <ele>548.969</ele>
        <time>2011-09-17T06:50:02Z</time>
      </trkpt>
      <trkpt lat="44.3128" lon="3.5984">
        <ele>551.017</ele>
        <time>2011-09-17T06:50:12Z</time>
      </trkpt>
      <trkpt lat="44.31292" lon="3.59853">
        <ele>553.028</ele>
        <time>2011-09-17T06:50:22Z</time>
      </trkpt>
      <trkpt lat="44.31302" lon="3.59861">
        <ele>554.986</ele>
        <time>2011-09-17T06:50:32Z</time>
      </trkpt>
      <trkpt lat="44.3131" lon="3.59873">
        <ele>557.113</ele>
        <time>2011-09-17T06:50:42Z</time>
      </trkpt>
      <trkpt lat="44.31316" lon="3.59879">
        <ele>558.476</ele>
        <time>2011-09-17T06:50:52Z</time>
      </trkpt>
      <trkpt lat="44.31328" lon="3.59879">
        <ele>560.273</ele>
        <time>2011-09-17T06:51:02Z</time>
      </trkpt>
      <trkpt lat="44.31339" lon="3.5988">
        <ele>562.062</ele>
        <time>2011-09-17T06:51:12Z</time>
      </trkpt>
      <trkpt lat="44.31348" lon="3.5988">
        <ele>563.065</ele>
        <time>2011-09-17T06:51:22Z</time>
      </trkpt>
      <trkpt lat="44.31358" lon="3.59883">
        <ele>565.489</ele>
        <time>2011-09-17T06:51:32Z</time>
      </trkpt>
      <trkpt lat="44.31366" lon="3.59886">
        <ele>566.921</ele>
        <time>2011-09-17T06:51:42Z</time>
      </trkpt>
      <trkpt lat="44.31378" lon="3.59883">
        <ele>568.634</ele>
        <time>2011-09-17T06:51:52Z</time>
      </trkpt>
      <trkpt lat="44.31387" lon="3.5988">
        <ele>569.519</ele>
        <time>2011-09-17T06:52:02Z</time>
      </trkpt>
      <trkpt lat="44.31397" lon="3.59884">
        <ele>571.994</ele>
        <time>2011-09-17T06:52:12Z</time>
      </trkpt>
      <trkpt lat="44.3141" lon="3.59887">
        <ele>572.96</ele>
        <time>2011-09-17T06:52:22Z</time>
      </trkpt>
      <trkpt lat="44.31421" lon="3.59895">
        <ele>571.144</ele>
        <time>2011-09-17T06:52:32Z</time>
      </trkpt>
      <trkpt lat="44.31432" lon="3.59903">
        <ele>569.812</ele>
        <time>2011-09-17T06:52:42Z</time>
      </trkpt>
      <trkpt lat="44.3144" lon="3.59912">
        <ele>568.42</ele>
        <time>2011-09-17T06:52:52Z</time>
      </trkpt>
      <trkpt lat="44.31454" lon="3.59919">
        <ele>567.301</ele>
        <time>2011-09-17T06:53:02Z</time>
      </trkpt>
      <trkpt lat="44.31465" lon="3.59928">
        <ele>566.065</ele>
        <time>2011-09-17T06:53:12Z</time>
      </trkpt>
      <trkpt lat="44.31473" lon="3.59934">
        <ele>564.623</ele>
        <time>2011-09-17T06:53:22Z</time>
      </trkpt>
      <trkpt lat="44.31485" lon="3.59941">
        <ele>563.03</ele>
        <time>2011-09-17T06:53:32Z</time>
      </trkpt>
      <trkpt lat="44.31498" lon="3.5995">
        <ele>561.226</ele>
        <time>2011-09-17T06:53:42Z</time>
      </trkpt>
      <trkpt lat="44.3151" lon="3.59953">
        <ele>559.643</ele>
        <time>2011-09-17T06:53:52Z</time>
      </trkpt>
      <trkpt lat="44.31524" lon="3.59962">
        <ele>557.689</ele>
        <time>2011-09-17T06:54:02Z</time>
      </trkpt>
      <trkpt lat="44.31532" lon="3.5997">
        <ele>555.688</ele>
        <time>2011-09-17T06:54:12Z</time>
      </trkpt>
      <trkpt lat="44.31538" lon="3.59978">
        <ele>553.719</ele>
        <time>2011-09-17T06:54:22Z</time>
      </trkpt>
      <trkpt lat="44.31546" lon="3.59993">
        <ele>552.685</ele>
        <time>2011-09-17T06:54:32Z</time>
      </trkpt>
      <trkpt lat="44.31557" lon="3.60004">
        <ele>550.855</ele>
        <time>2011-09-17T06:54:42Z</time>
      </trkpt>
      <trkpt lat="44.31564" lon="3.60015">
        <ele>547.28</ele>
        <time>2011-09-17T06:54:52Z</time>
      </trkpt>
      <trkpt lat="44.31568" lon="3.60032">
        <ele>547.541</ele>
        <time>2011-09-17T06:55:02Z</time>
      </trkpt>
      <trkpt lat="44.31569" lon="3.60046">
        <ele>547.611</ele>
        <time>2011-09-17T06:55:12Z</time>
      </trkpt>
      <trkpt lat="44.31568" lon="3.60061">
        <ele>547.65</ele>
        <time>2011-09-17T06:55:22Z</time>
      </trkpt>
      <trkpt lat="44.31563" lon="3.60078">
        <ele>547.946</ele>
        <time>2011-09-17T06:55:32Z</time>
      </trkpt>
      <trkpt lat="44.3156" lon="3.60092">
        <ele>548.061</ele>
        <time>2011-09-17T06:55:42Z</time>
      </trkpt>
      <trkpt lat="44.3156" lon="3.60109">
        <ele>548.284</ele>
        <time>2011-09-17T06:55:52Z</time>
      </trkpt>
      <trkpt lat="44.3156" lon="3.6012">
        <ele>548.642</ele>
        <time>2011-09-17T06:56:02Z</time>
      </trkpt>
      <trkpt lat="44.31558" lon="3.60134">
        <ele>548.649</ele>
        <time>2011-09-17T06:56:12Z</time>
      </trkpt>
      <trkpt lat="44.3155" lon="3.60154">
        <ele>548.771</ele>
        <time>2011-09-17T06:56:22Z</time>
      </trkpt>
      <trkpt lat="44.31545" lon="3.60171">
        <ele>549.027</ele>
        <time>2011-09-17T06:56:32Z</time>
      </trkpt>
      <trkpt lat="44.31541" lon="3.60184">
        <ele>549.208</ele>
        <time>2011-09-17T06:56:42Z</time>
      </trkpt>
      <trkpt lat="44.31536" lon="3.60202">
        <ele>549.837</ele>
        <time>2011-09-17T06:56:52Z</time>
      </trkpt>
      <trkpt lat="44.31528" lon="3.60224">
        <ele>550.155</ele>
        <time>2011-09-17T06:57:02Z</time>
      </trkpt>
      <trkpt lat="44.31527" lon="3.60239">
        <ele>550.11</ele>
        <time>2011-09-17T06:57:12Z</time>
      </trkpt>
      <trkpt lat="44.31523" lon="3.60253">
        <ele>550.652</ele>
        <time>2011-09-17T06:57:22Z</time>
      </trkpt>
      <trkpt lat="44.31526" lon="3.60266">
        <ele>551.16</ele>
        <time>2011-09-17T06:57:32Z</time>
      </trkpt>
      <trkpt lat="44.3152" lon="3.60288">
        <ele>551.69</ele>
        <time>2011-09-17T06:57:42Z</time>
      </trkpt>
      <trkpt lat="44.31514" lon="3.60305">
        <ele>551.871</ele>
        <time>2011-09-17T06:57:52Z</time>
      </trkpt>
      <trkpt lat="44.31513" lon="3.60318">
        <ele>551.678</ele>
        <time>2011-09-17T06:58:02Z</time>
      </trkpt>
      <trkpt lat="44.31518" lon="3.60339">
        <ele>551.624</ele>
        <time>2011-09-17T06:58:12Z</time>
      </trkpt>
      <trkpt lat="44.31516" lon="3.60361">
        <ele>552.136</ele>
        <time>2011-09-17T06:58:22Z</time>
      </trkpt>
      <trkpt lat="44.31519" lon="3.60378">
        <ele>552.731</ele>
        <time>2011-09-17T06:58:32Z</time>
      </trkpt>
      <trkpt lat="44.31523" lon="3.60397">
        <ele>552.759</ele>
        <time>2011-09-17T06:58:42Z</time>
      </trkpt>
      <trkpt lat="44.31531" lon="3.60413">
        <ele>553.188</ele>
        <time>2011-09-17T06:58:52Z</time>
      </trkpt>
      <trkpt lat="44.31533" lon="3.60427">
        <ele>553.21</ele>
        <time>2011-09-17T06:59:02Z</time>
      </trkpt>
      <trkpt lat="44.31532" lon="3.60445">
        <ele>553.633</ele>
        <time>2011-09-17T06:59:12Z</time>
      </trkpt>
      <trkpt lat="44.31542" lon="3.60461">
        <ele>554.024</ele>
        <time>2011-09-17T06:59:22Z</time>
      </trkpt>
      <trkpt lat="44.31546" lon="3.60477">
        <ele>554.047</ele>
        <time>2011-09-17T06:59:32Z</time>
      </trkpt>
      <trkpt lat="44.3155" lon="3.60492">
        <ele>554.401</ele>
        <time>2011-09-17T06:59:42Z</time>
      </trkpt>
      <trkpt lat="44.31554" lon="3.60504">
        <ele>554.578</ele>
        <time>2011-09-17T06:59:52Z</time>
      </trkpt>
      <trkpt lat="44.31562" lon="3.60522">
        <ele>554.862</ele>
        <time>2011-09-17T07:00:02Z</time>
      </trkpt>
      <trkpt lat="44.31569" lon="3.60539">
        <ele>555.075</ele>
        <time>2011-09-17T07:00:12Z</time>
      </trkpt>
      <trkpt lat="44.3157" lon="3.60553">
        <ele>555.434</ele>
        <time>2011-09-17T07:00:22Z</time>
      </trkpt>
      <trkpt lat="44.31571" lon="3.60571">
        <ele>555.759</ele>
        <time>2011-09-17T07:00:32Z</time>
      </trkpt>
      <trkpt lat="44.31567" lon="3.60586">
        <ele>555.889</ele>
        <time>2011-09-17T07:00:42Z</time>
      </trkpt>
      <trkpt lat="44.31559" lon="3.60601">
        <ele>556.515</ele>
        <time>2011-09-17T07:00:52Z</time>
      </trkpt>
      <trkpt lat="44.31551" lon="3.60617">
        <ele>557.052</ele>
        <time>2011-09-17T07:01:02Z</time>
      </trkpt>
      <trkpt lat="44.31548" lon="3.6063">
        <ele>557.033</ele>
        <time>2011-09-17T07:01:12Z</time>
      </trkpt>
      <trkpt lat="44.3156" lon="3.60643">
        <ele>557.574</ele>
        <time>2011-09-17T07:01:22Z</time>
      </trkpt>
      <trkpt lat="44.31562" lon="3.60648">
        <ele>557.906</ele>
        <time>2011-09-17T07:01:32Z</time>
      </trkpt>
      <trkpt lat="44.31573" lon="3.60642">
        <ele>558.915</ele>
        <time>2011-09-17T07:01:42Z</time>
      </trkpt>
      <trkpt lat="44.31583" lon="3.60636">
        <ele>559.404</ele>
        <time>2011-09-17T07:01:52Z</time>
      </trkpt>
      <trkpt lat="44.31594" lon="3.60628">
        <ele>559.94</ele>
        <time>2011-09-17T07:02:02Z</time>
      </trkpt>
      <trkpt lat="44.31605" lon="3.60626">
        <ele>560.691</ele>
        <time>2011-09-17T07:02:12Z</time>
      </trkpt>
      <trkpt lat="44.31616" lon="3.60627">
        <ele>561.69</ele>
        <time>2011-09-17T07:02:22Z</time>
      </trkpt>
      <trkpt lat="44.31626" lon="3.60632">
        <ele>562.242</ele>
        <time>2011-09-17T07:02:32Z</time>
      </trkpt>
      <trkpt lat="44.31636" lon="3.60641">
        <ele>562.201</ele>
        <time>2011-09-17T07:02:42Z</time>
      </trkpt>
      <trkpt lat="44.31646" lon="3.6065">
        <ele>562.394</ele>
        <time>2011-09-17T07:02:52Z</time>
      </trkpt>
      <trkpt lat="44.31653" lon="3.60661">
        <ele>562.87</ele>
        <time>2011-09-17T07:03:02Z</time>
      </trkpt>
      <trkpt lat="44.31661" lon="3.6067">
        <ele>563.177</ele>
        <time>2011-09-17T07:03:12Z</time>
      </trkpt>
      <trkpt lat="44.31673" lon="3.60676">
        <ele>563.315</ele>
        <time>2011-09-17T07:03:22Z</time>
      </trkpt>
      <trkpt lat="44.31682" lon="3.6069">
        <ele>563.986</ele>
        <time>2011-09-17T07:03:32Z</time>
      </trkpt>
      <trkpt lat="44.31689" lon="3.60699">
        <ele>564.251</ele>
        <time>2011-09-17T07:03:42Z</time>
      </trkpt>
      <trkpt lat="44.317" lon="3.60704">
        <ele>563.759</ele>
        <time>2011-09-17T07:03:52Z</time>
      </trkpt>
      <trkpt lat="44.31708" lon="3.60711">
        <ele>564.292</ele>
        <time>2011-09-17T07:04:02Z</time>
      </trkpt>
      <trkpt lat="44.31719" lon="3.60728">
        <ele>564.974</ele>
        <time>2011-09-17T07:04:12Z</time>
      </trkpt>
      <trkpt lat="44.31726" lon="3.60741">
        <ele>565.273</ele>
        <time>2011-09-17T07:04:22Z</time>
      </trkpt>
      <trkpt lat="44.31734" lon="3.60753">
        <ele>566.118</ele>
        <time>2011-09-17T07:04:32Z</time>
      </trkpt>
      <trkpt lat="44.31745" lon="3.60762">
        <ele>567.367</ele>
        <time>2011-09-17T07:04:42Z</time>
      </trkpt>
      <trkpt lat="44.31755" lon="3.60773">
        <ele>568.386</ele>
        <time>2011-09-17T07:04:52Z</time>
      </trkpt>
      <trkpt lat="44.31761" lon="3.60786">
        <ele>569.616</ele>
        <time>2011-09-17T07:05:02Z</time>
      </trkpt>
      <trkpt lat="44.31768" lon="3.60797">
        <ele>570.552</ele>
        <time>2011-09-17T07:05:12Z</time>
      </trkpt>
      <trkpt lat="44.31775" lon="3.6081">
        <ele>571.862</ele>
        <time>2011-09-17T07:05:22Z</time>
      </trkpt>
      <trkpt lat="44.3178" lon="3.60825">
        <ele>573.499</ele>
        <time>2011-09-17T07:05:32Z</time>
      </trkpt>
      <trkpt lat="44.31785" lon="3.60838">
        <ele>574.686</ele>
        <time>2011-09-17T07:05:42Z</time>
      </trkpt>
      <trkpt lat="44.31787" lon="3.60857">
        <ele>575.299</ele>
        <time>2011-09-17T07:05:52Z</time>
      </trkpt>
      <trkpt lat="44.31788" lon="3.60873">
        <ele>575.843</ele>
        <time>2011-09-17T07:06:02Z</time>
      </trkpt>
      <trkpt lat="44.31789" lon="3.6089">
        <ele>576.388</ele>
        <time>2011-09-17T07:06:12Z</time>
      </trkpt>
      <trkpt lat="44.3179" lon="3.60907">
        <ele>577.469</ele>
        <time>2011-09-17T07:06:22Z</time>
      </trkpt>
      <trkpt lat="44.31789" lon="3.60921">
        <ele>578.474</ele>
        <time>2011-09-17T07:06:32Z</time>
      </trkpt>
      <trkpt lat="44.31783" lon="3.60938">
        <ele>579.341</ele>
        <time>2011-09-17T07:06:42Z</time>
      </trkpt>
      <trkpt lat="44.31776" lon="3.60948">
        <ele>580.449</ele>
        <time>2011-09-17T07:06:52Z</time>
      </trkpt>
      <trkpt lat="44.31767" lon="3.60959">
        <ele>580.938</ele>
        <time>2011-09-17T07:07:02Z</time>
      </trkpt>
      <trkpt lat="44.31758" lon="3.60973">
        <ele>581.373</ele>
        <time>2011-09-17T07:07:12Z</time>
      </trkpt>
      <trkpt lat="44.31751" lon="3.60986">
        <ele>582.225</ele>
        <time>2011-09-17T07:07:22Z</time>
      </trkpt>
      <trkpt lat="44.31741" lon="3.61">
        <ele>583.137</ele>
        <time>2011-09-17T07:07:32Z</time>
      </trkpt>
      <trkpt lat="44.31734" lon="3.61012">
        <ele>583.95</ele>
        <time>2011-09-17T07:07:42Z</time>
      </trkpt>
      <trkpt lat="44.31727" lon="3.61026">
        <ele>584.592</ele>
        <time>2011-09-17T07:07:52Z</time>
      </trkpt>
      <trkpt lat="44.31719" lon="3.6104">
        <ele>585.442</ele>
        <time>2011-09-17T07:08:02Z</time>
      </trkpt>
      <trkpt lat="44.3171" lon="3.61052">
        <ele>586.517</ele>
        <time>2011-09-17T07:08:12Z</time>
      </trkpt>
      <trkpt lat="44.31702" lon="3.61066">
        <ele>587.23</ele>
        <time>2011-09-17T07:08:22Z</time>
      </trkpt>
      <trkpt lat="44.31695" lon="3.61078">
        <ele>588.159</ele>
        <time>2011-09-17T07:08:32Z</time>
      </trkpt>
      <trkpt lat="44.31687" lon="3.6109">
        <ele>589.649</ele>
        <time>2011-09-17T07:08:42Z</time>
      </trkpt>
      <trkpt lat="44.31678" lon="3.611">
        <ele>591.173</ele>
        <time>2011-09-17T07:08:52Z</time>
      </trkpt>
      <trkpt lat="44.31669" lon="3.6111">
        <ele>592.394</ele>
        <time>2011-09-17T07:09:02Z</time>
      </trkpt>
      <trkpt lat="44.31659" lon="3.61117">
        <ele>593.515</ele>
        <time>2011-09-17T07:09:12Z</time>
      </trkpt>
      <trkpt lat="44.31649" lon="3.6112">
        <ele>594.39</ele>
        <time>2011-09-17T07:09:22Z</time>
      </trkpt>
      <trkpt lat="44.31639" lon="3.61129">
        <ele>595.323</ele>
        <time>2011-09-17T07:09:32Z</time>
      </trkpt>
      <trkpt lat="44.31625" lon="3.61135">
        <ele>596.859</ele>
        <time>2011-09-17T07:09:42Z</time>
      </trkpt>
      <trkpt lat="44.31613" lon="3.61144">
        <ele>597.536</ele>
        <time>2011-09-17T07:09:52Z</time>
      </trkpt>
      <trkpt lat="44.31599" lon="3.61145">
        <ele>597.989</ele>
        <time>2011-09-17T07:10:02Z</time>
      </trkpt>
      <trkpt lat="44.31589" lon="3.61145">
        <ele>599.265</ele>
        <time>2011-09-17T07:10:12Z</time>
      </trkpt>
      <trkpt lat="44.31577" lon="3.61144">
        <ele>600.208</ele>
        <time>2011-09-17T07:10:22Z</time>
      </trkpt>
      <trkpt lat="44.31563" lon="3.61149">
        <ele>601.233</ele>
        <time>2011-09-17T07:10:32Z</time>
      </trkpt>
      <trkpt lat="44.3155" lon="3.6115">
        <ele>602.106</ele>
        <time>2011-09-17T07:10:42Z</time>
      </trkpt>
      <trkpt lat="44.31538" lon="3.61157">
        <ele>602.492</ele>
        <time>2011-09-17T07:10:52Z</time>
      </trkpt>
      <trkpt lat="44.31524" lon="3.61164">
        <ele>603.208</ele>
        <time>2011-09-17T07:11:02Z</time>
      </trkpt>
      <trkpt lat="44.31514" lon="3.61165">
        <ele>604.366</ele>
        <time>2011-09-17T07:11:12Z</time>
      </trkpt>
      <trkpt lat="44.31501" lon="3.61181">
        <ele>605.729</ele>
        <time>2011-09-17T07:11:22Z</time>
      </trkpt>
      <trkpt lat="44.31496" lon="3.61186">
        <ele>606.593</ele>
        <time>2011-09-17T07:11:32Z</time>
      </trkpt>
      <trkpt lat="44.31494" lon="3.61187">
        <ele>606.517</ele>
        <time>2011-09-17T07:11:42Z</time>
      </trkpt>
      <trkpt lat="44.31494" lon="3.61184">
        <ele>606.601</ele>
        <time>2011-09-17T07:11:52Z</time>
      </trkpt>
      <trkpt lat="44.31492" lon="3.61186">
        <ele>606.229</ele>
        <time>2011-09-17T07:12:02Z</time>
      </trkpt>
      <trkpt lat="44.31491" lon="3.61189">
        <ele>606.271</ele>
        <time>2011-09-17T07:12:12Z</time>
      </trkpt>
      <trkpt lat="44.3149" lon="3.61192">
        <ele>606.522</ele>
        <time>2011-09-17T07:12:22Z</time>
      </trkpt>
      <trkpt lat="44.31489" lon="3.61191">
        <ele>606.22</ele>
        <time>2011-09-17T07:12:32Z</time>
      </trkpt>
      <trkpt lat="44.31487" lon="3.6119">
        <ele>606.409</ele>
        <time>2011-09-17T07:12:42Z</time>
      </trkpt>
      <trkpt lat="44.31486" lon="3.61187">
        <ele>606.642</ele>
        <time>2011-09-17T07:12:52Z</time>
      </trkpt>
      <trkpt lat="44.31486" lon="3.61185">
        <ele>606.618</ele>
        <time>2011-09-17T07:13:02Z</time>
      </trkpt>
      <trkpt lat="44.31502" lon="3.61177">
        <ele>607.138</ele>
        <time>2011-09-17T07:13:12Z</time>
      </trkpt>
      <trkpt lat="44.31503" lon="3.61173">
        <ele>607.237</ele>
        <time>2011-09-17T07:13:22Z</time>
      </trkpt>
      <trkpt lat="44.31501" lon="3.61174">
        <ele>607.206</ele>
        <time>2011-09-17T07:13:32Z</time>
      </trkpt>
      <trkpt lat="44.31489" lon="3.61176">
        <ele>607.887</ele>
        <time>2011-09-17T07:13:42Z</time>
      </trkpt>
      <trkpt lat="44.31479" lon="3.6118">
        <ele>608.705</ele>
        <time>2011-09-17T07:13:52Z</time>
      </trkpt>
      <trkpt lat="44.31468" lon="3.61185">
        <ele>609.73</ele>
        <time>2011-09-17T07:14:02Z</time>
      </trkpt>
      <trkpt lat="44.31456" lon="3.61188">
        <ele>610.56</ele>
        <time>2011-09-17T07:14:12Z</time>
      </trkpt>
      <trkpt lat="44.31443" lon="3.61191">
        <ele>612.146</ele>
        <time>2011-09-17T07:14:22Z</time>
      </trkpt>
      <trkpt lat="44.31432" lon="3.61198">
        <ele>613.224</ele>
        <time>2011-09-17T07:14:32Z</time>
      </trkpt>
      <trkpt lat="44.31423" lon="3.61208">
        <ele>614.022</ele>
        <time>2011-09-17T07:14:42Z</time>
      </trkpt>
      <trkpt lat="44.31413" lon="3.61216">
        <ele>615.066</ele>
        <time>2011-09-17T07:14:52Z</time>
      </trkpt>
      <trkpt lat="44.31403" lon="3.61227">
        <ele>615.481</ele>
        <time>2011-09-17T07:15:02Z</time>
      </trkpt>
      <trkpt lat="44.31395" lon="3.61237">
        <ele>615.482</ele>
        <time>2011-09-17T07:15:12Z</time>
      </trkpt>
      <trkpt lat="44.31387" lon="3.61249">
        <ele>615.531</ele>
        <time>2011-09-17T07:15:22Z</time>
      </trkpt>
      <trkpt lat="44.31381" lon="3.61259">
        <ele>614.933</ele>
        <time>2011-09-17T07:15:32Z</time>
      </trkpt>
      <trkpt lat="44.31371" lon="3.61269">
        <ele>614.091</ele>
        <time>2011-09-17T07:15:42Z</time>
      </trkpt>
      <trkpt lat="44.31363" lon="3.61288">
        <ele>612.999</ele>
        <time>2011-09-17T07:15:52Z</time>
      </trkpt>
      <trkpt lat="44.31359" lon="3.61303">
        <ele>612.467</ele>
        <time>2011-09-17T07:16:02Z</time>
      </trkpt>
      <trkpt lat="44.31353" lon="3.61325">
        <ele>611.543</ele>
        <time>2011-09-17T07:16:12Z</time>
      </trkpt>
      <trkpt lat="44.31348" lon="3.61342">
        <ele>610.938</ele>
        <time>2011-09-17T07:16:22Z</time>
      </trkpt>
      <trkpt lat="44.31343" lon="3.61356">
        <ele>609.564</ele>
        <time>2011-09-17T07:16:32Z</time>
      </trkpt>
      <trkpt lat="44.3134" lon="3.61367">
        <ele>608.262</ele>
        <time>2011-09-17T07:16:42Z</time>
      </trkpt>
      <trkpt lat="44.31331" lon="3.61387">
        <ele>607.017</ele>
        <time>2011-09-17T07:16:52Z</time>
      </trkpt>
      <trkpt lat="44.31327" lon="3.61398">
        <ele>605.894</ele>
        <time>2011-09-17T07:17:02Z</time>
      </trkpt>
      <trkpt lat="44.31325" lon="3.61415">
        <ele>605.011</ele>
        <time>2011-09-17T07:17:12Z</time>
      </trkpt>
      <trkpt lat="44.31328" lon="3.61429">
        <ele>604.744</ele>
        <time>2011-09-17T07:17:22Z</time>
      </trkpt>
      <trkpt lat="44.31324" lon="3.61447">
        <ele>604.198</ele>
        <time>2011-09-17T07:17:32Z</time>
      </trkpt>
      <trkpt lat="44.31318" lon="3.61462">
        <ele>604.098</ele>
        <time>2011-09-17T07:17:42Z</time>
      </trkpt>
      <trkpt lat="44.31319" lon="3.61478">
        <ele>603.724</ele>
        <time>2011-09-17T07:17:52Z</time>
      </trkpt>
      <trkpt lat="44.31315" lon="3.61495">
        <ele>603.956</ele>
        <time>2011-09-17T07:18:02Z</time>
      </trkpt>
      <trkpt lat="44.3131" lon="3.61517">
        <ele>603.028</ele>
        <time>2011-09-17T07:18:12Z</time>
      </trkpt>
      <trkpt lat="44.31308" lon="3.61534">
        <ele>602.386</ele>
        <time>2011-09-17T07:18:22Z</time>
      </trkpt>
      <trkpt lat="44.31303" lon="3.61554">
        <ele>601.741</ele>
        <time>2011-09-17T07:18:32Z</time>
      </trkpt>
      <trkpt lat="44.31304" lon="3.61569">
        <ele>600.981</ele>
        <time>2011-09-17T07:18:42Z</time>
      </trkpt>
      <trkpt lat="44.31304" lon="3.61583">
        <ele>600.613</ele>
        <time>2011-09-17T07:18:52Z</time>
      </trkpt>
      <trkpt lat="44.31289" lon="3.61609">
        <ele>599.946</ele>
        <time>2011-09-17T07:19:02Z</time>
      </trkpt>
      <trkpt lat="44.31284" lon="3.61629">
        <ele>598.936</ele>
        <time>2011-09-17T07:19:12Z</time>
      </trkpt>
      <trkpt lat="44.3128" lon="3.61644">
        <ele>598.173</ele>
        <time>2011-09-17T07:19:22Z</time>
      </trkpt>
      <trkpt lat="44.31277" lon="3.61656">
        <ele>598.013</ele>
        <time>2011-09-17T07:19:32Z</time>
      </trkpt>
      <trkpt lat="44.31277" lon="3.61671">
        <ele>598.185</ele>
        <time>2011-09-17T07:19:42Z</time>
      </trkpt>
      <trkpt lat="44.31275" lon="3.6169">
        <ele>597.793</ele>
        <time>2011-09-17T07:19:52Z</time>
      </trkpt>
      <trkpt lat="44.31276" lon="3.61705">
        <ele>597.936</ele>
        <time>2011-09-17T07:20:02Z</time>
      </trkpt>
      <trkpt lat="44.31273" lon="3.61718">
        <ele>597.164</ele>
        <time>2011-09-17T07:20:12Z</time>
      </trkpt>
      <trkpt lat="44.31261" lon="3.61739">
        <ele>596.404</ele>
        <time>2011-09-17T07:20:22Z</time>
      </trkpt>
      <trkpt lat="44.31251" lon="3.61754">
        <ele>594.905</ele>
        <time>2011-09-17T07:20:32Z</time>
      </trkpt>
      <trkpt lat="44.31243" lon="3.6176">
        <ele>593.991</ele>
        <time>2011-09-17T07:20:42Z</time>
      </trkpt>
      <trkpt lat="44.31232" lon="3.61764">
        <ele>593.056</ele>
        <time>2011-09-17T07:20:52Z</time>
      </trkpt>
      <trkpt lat="44.31221" lon="3.61773">
        <ele>592.834</ele>
        <time>2011-09-17T07:21:02Z</time>
      </trkpt>
      <trkpt lat="44.31215" lon="3.61779">
        <ele>592.2</ele>
        <time>2011-09-17T07:21:12Z</time>
      </trkpt>
      <trkpt lat="44.31206" lon="3.61789">
        <ele>592.165</ele>
        <time>2011-09-17T07:21:22Z</time>
      </trkpt>
      <trkpt lat="44.31197" lon="3.61797">
        <ele>591.521</ele>
        <time>2011-09-17T07:21:32Z</time>
      </trkpt>
      <trkpt lat="44.31185" lon="3.61807">
        <ele>590.979</ele>
        <time>2011-09-17T07:21:42Z</time>
      </trkpt>
      <trkpt lat="44.31176" lon="3.61811">
        <ele>590.614</ele>
        <time>2011-09-17T07:21:52Z</time>
      </trkpt>
      <trkpt lat="44.31164" lon="3.61822">
        <ele>589.52</ele>
        <time>2011-09-17T07:22:02Z</time>
      </trkpt>
      <trkpt lat="44.31151" lon="3.61838">
        <ele>589.319</ele>
        <time>2011-09-17T07:22:12Z</time>
      </trkpt>
      <trkpt lat="44.31146" lon="3.61843">
        <ele>589.22</ele>
        <time>2011-09-17T07:22:22Z</time>
      </trkpt>
      <trkpt lat="44.31149" lon="3.61858">
        <ele>589.289</ele>
        <time>2011-09-17T07:22:32Z</time>
      </trkpt>
      <trkpt lat="44.31164" lon="3.61862">
        <ele>588.859</ele>
        <time>2011-09-17T07:22:42Z</time>
      </trkpt>
      <trkpt lat="44.3117" lon="3.61876">
        <ele>588.757</ele>
        <time>2011-09-17T07:22:52Z</time>
      </trkpt>
      <trkpt lat="44.31177" lon="3.61892">
        <ele>589.299</ele>
        <time>2011-09-17T07:23:02Z</time>
      </trkpt>
      <trkpt lat="44.31192" lon="3.61898">
        <ele>588.551</ele>
        <time>2011-09-17T07:23:12Z</time>
      </trkpt>
      <trkpt lat="44.31206" lon="3.61896">
        <ele>588.72</ele>
        <time>2011-09-17T07:23:22Z</time>
      </trkpt>
      <trkpt lat="44.31219" lon="3.61889">
        <ele>589.349</ele>
        <time>2011-09-17T07:23:32Z</time>
      </trkpt>
      <trkpt lat="44.31231" lon="3.61884">
        <ele>589.969</ele>
        <time>2011-09-17T07:23:42Z</time>
      </trkpt>
      <trkpt lat="44.31243" lon="3.6188">
        <ele>590.631</ele>
        <time>2011-09-17T07:23:52Z</time>
      </trkpt>
      <trkpt lat="44.31255" lon="3.61879">
        <ele>591.244</ele>
        <time>2011-09-17T07:24:02Z</time>
      </trkpt>
      <trkpt lat="44.31269" lon="3.61881">
        <ele>591.762</ele>
        <time>2011-09-17T07:24:12Z</time>
      </trkpt>
      <trkpt lat="44.3128" lon="3.61884">
        <ele>592.536</ele>
        <time>2011-09-17T07:24:22Z</time>
      </trkpt>
      <trkpt lat="44.31293" lon="3.61889">
        <ele>593.146</ele>
        <time>2011-09-17T07:24:32Z</time>
      </trkpt>
      <trkpt lat="44.31301" lon="3.619">
        <ele>594.08</ele>
        <time>2011-09-17T07:24:42Z</time>
      </trkpt>
      <trkpt lat="44.31296" lon="3.61913">
        <ele>594.667</ele>
        <time>2011-09-17T07:24:52Z</time>
      </trkpt>
      <trkpt lat="44.31288" lon="3.61919">
        <ele>595.005</ele>
        <time>2011-09-17T07:25:02Z</time>
      </trkpt>
      <trkpt lat="44.31278" lon="3.61929">
        <ele>595.913</ele>
        <time>2011-09-17T07:25:12Z</time>
      </trkpt>
      <trkpt lat="44.31266" lon="3.61941">
        <ele>596.61</ele>
        <time>2011-09-17T07:25:22Z</time>
      </trkpt>
      <trkpt lat="44.31258" lon="3.6195">
        <ele>597.001</ele>
        <time>2011-09-17T07:25:32Z</time>
      </trkpt>
      <trkpt lat="44.31252" lon="3.61969">
        <ele>597.081</ele>
        <time>2011-09-17T07:25:42Z</time>
      </trkpt>
      <trkpt lat="44.3125" lon="3.61986">
        <ele>598.103</ele>
        <time>2011-09-17T07:25:52Z</time>
      </trkpt>
      <trkpt lat="44.3125" lon="3.62001">
        <ele>598.447</ele>
        <time>2011-09-17T07:26:02Z</time>
      </trkpt>
      <trkpt lat="44.31252" lon="3.62017">
        <ele>599.018</ele>
        <time>2011-09-17T07:26:12Z</time>
      </trkpt>
      <trkpt lat="44.31252" lon="3.62035">
        <ele>599.652</ele>
        <time>2011-09-17T07:26:22Z</time>
      </trkpt>
      <trkpt lat="44.31243" lon="3.6204">
        <ele>600.579</ele>
        <time>2011-09-17T07:26:32Z</time>
      </trkpt>
      <trkpt lat="44.31241" lon="3.6205">
        <ele>601.696</ele>
        <time>2011-09-17T07:26:42Z</time>
      </trkpt>
      <trkpt lat="44.31243" lon="3.6207">
        <ele>603.526</ele>
        <time>2011-09-17T07:26:52Z</time>
      </trkpt>
      <trkpt lat="44.31244" lon="3.62082">
        <ele>604.917</ele>
        <time>2011-09-17T07:27:02Z</time>
      </trkpt>
      <trkpt lat="44.31245" lon="3.621">
        <ele>606.738</ele>
        <time>2011-09-17T07:27:12Z</time>
      </trkpt>
      <trkpt lat="44.31251" lon="3.62114">
        <ele>607.934</ele>
        <time>2011-09-17T07:27:22Z</time>
      </trkpt>
      <trkpt lat="44.31252" lon="3.62129">
        <ele>608.92</ele>
        <time>2011-09-17T07:27:32Z</time>
      </trkpt>
      <trkpt lat="44.31255" lon="3.62144">
        <ele>609.827</ele>
        <time>2011-09-17T07:27:42Z</time>
      </trkpt>
      <trkpt lat="44.31265" lon="3.62155">
        <ele>611.234</ele>
        <time>2011-09-17T07:27:52Z</time>
      </trkpt>
      <trkpt lat="44.31271" lon="3.6217">
        <ele>612.409</ele>
        <time>2011-09-17T07:28:02Z</time>
      </trkpt>
      <trkpt lat="44.31275" lon="3.62185">
        <ele>613.315</ele>
        <time>2011-09-17T07:28:12Z</time>
      </trkpt>
      <trkpt lat="44.31282" lon="3.62199">
        <ele>614.639</ele>
        <time>2011-09-17T07:28:22Z</time>
      </trkpt>
      <trkpt lat="44.31289" lon="3.6221">
        <ele>615.808</ele>
        <time>2011-09-17T07:28:32Z</time>
      </trkpt>
      <trkpt lat="44.31296" lon="3.62223">
        <ele>617.043</ele>
        <time>2011-09-17T07:28:42Z</time>
      </trkpt>
      <trkpt lat="44.31305" lon="3.62237">
        <ele>618.05</ele>
        <time>2011-09-17T07:28:52Z</time>
      </trkpt>
      <trkpt lat="44.31311" lon="3.62251">
        <ele>618.89</ele>
        <time>2011-09-17T07:29:02Z</time>
      </trkpt>
      <trkpt lat="44.31316" lon="3.62265">
        <ele>619.782</ele>
        <time>2011-09-17T07:29:12Z</time>
      </trkpt>
      <trkpt lat="44.31322" lon="3.62279">
        <ele>620.733</ele>
        <time>2011-09-17T07:29:22Z</time>
      </trkpt>
      <trkpt lat="44.31327" lon="3.62296">
        <ele>621.277</ele>
        <time>2011-09-17T07:29:32Z</time>
      </trkpt>
      <trkpt lat="44.31331" lon="3.62309">
        <ele>622.432</ele>
        <time>2011-09-17T07:29:42Z</time>
      </trkpt>
      <trkpt lat="44.31343" lon="3.62322">
        <ele>623.845</ele>
        <time>2011-09-17T07:29:52Z</time>
      </trkpt>
      <trkpt lat="44.31351" lon="3.62334">
        <ele>625</ele>
        <time>2011-09-17T07:30:02Z</time>
      </trkpt>
      <trkpt lat="44.31356" lon="3.62348">
        <ele>626.911</ele>
        <time>2011-09-17T07:30:12Z</time>
      </trkpt>
      <trkpt lat="44.31365" lon="3.62361">
        <ele>628.295</ele>
        <time>2011-09-17T07:30:22Z</time>
      </trkpt>
      <trkpt lat="44.3137" lon="3.62376">
        <ele>630.051</ele>
        <time>2011-09-17T07:30:32Z</time>
      </trkpt>
      <trkpt lat="44.31379" lon="3.62386">
        <ele>631.319</ele>
        <time>2011-09-17T07:30:42Z</time>
      </trkpt>
      <trkpt lat="44.31383" lon="3.62399">
        <ele>632.996</ele>
        <time>2011-09-17T07:30:52Z</time>
      </trkpt>
      <trkpt lat="44.31387" lon="3.6241">
        <ele>634.957</ele>
        <time>2011-09-17T07:31:02Z</time>
      </trkpt>
      <trkpt lat="44.31396" lon="3.62424">
        <ele>636.735</ele>
        <time>2011-09-17T07:31:12Z</time>
      </trkpt>
      <trkpt lat="44.31404" lon="3.62437">
        <ele>638.393</ele>
        <time>2011-09-17T07:31:22Z</time>
      </trkpt>
      <trkpt lat="44.31409" lon="3.62449">
        <ele>640.252</ele>
        <time>2011-09-17T07:31:32Z</time>
      </trkpt>
      <trkpt lat="44.31414" lon="3.62463">
        <ele>641.928</ele>
        <time>2011-09-17T07:31:42Z</time>
      </trkpt>
      <trkpt lat="44.31419" lon="3.62478">
        <ele>643.404</ele>
        <time>2011-09-17T07:31:52Z</time>
      </trkpt>
      <trkpt lat="44.31426" lon="3.6249">
        <ele>645.013</ele>
        <time>2011-09-17T07:32:02Z</time>
      </trkpt>
      <trkpt lat="44.3143" lon="3.62505">
        <ele>646.356</ele>
        <time>2011-09-17T07:32:12Z</time>
      </trkpt>
      <trkpt lat="44.31437" lon="3.6252">
        <ele>648.01</ele>
        <time>2011-09-17T07:32:22Z</time>
      </trkpt>
      <trkpt lat="44.31435" lon="3.62536">
        <ele>648.609</ele>
        <time>2011-09-17T07:32:32Z</time>
      </trkpt>
      <trkpt lat="44.31426" lon="3.62547">
        <ele>650.132</ele>
        <time>2011-09-17T07:32:42Z</time>
      </trkpt>
      <trkpt lat="44.31416" lon="3.62555">
        <ele>650.558</ele>
        <time>2011-09-17T07:32:52Z</time>
      </trkpt>
      <trkpt lat="44.31405" lon="3.62565">
        <ele>652.418</ele>
        <time>2011-09-17T07:33:02Z</time>
      </trkpt>
      <trkpt lat="44.31394" lon="3.62569">
        <ele>653.015</ele>
        <time>2011-09-17T07:33:12Z</time>
      </trkpt>
      <trkpt lat="44.31384" lon="3.6257">
        <ele>653.577</ele>
        <time>2011-09-17T07:33:22Z</time>
      </trkpt>
      <trkpt lat="44.31373" lon="3.62575">
        <ele>653.893</ele>
        <time>2011-09-17T07:33:32Z</time>
      </trkpt>
      <trkpt lat="44.31364" lon="3.62588">
        <ele>654.845</ele>
        <time>2011-09-17T07:33:42Z</time>
      </trkpt>
      <trkpt lat="44.31356" lon="3.62601">
        <ele>655.954</ele>
        <time>2011-09-17T07:33:52Z</time>
      </trkpt>
      <trkpt lat="44.31346" lon="3.62613">
        <ele>657.03</ele>
        <time>2011-09-17T07:34:02Z</time>
      </trkpt>
      <trkpt lat="44.31334" lon="3.6263">
        <ele>658.551</ele>
        <time>2011-09-17T07:34:12Z</time>
      </trkpt>
      <trkpt lat="44.31326" lon="3.62642">
        <ele>659.454</ele>
        <time>2011-09-17T07:34:22Z</time>
      </trkpt>
      <trkpt lat="44.31318" lon="3.6265">
        <ele>658.648</ele>
        <time>2011-09-17T07:34:32Z</time>
      </trkpt>
      <trkpt lat="44.31306" lon="3.62659">
        <ele>658.2</ele>
        <time>2011-09-17T07:34:42Z</time>
      </trkpt>
      <trkpt lat="44.31296" lon="3.6267">
        <ele>656.733</ele>
        <time>2011-09-17T07:34:52Z</time>
      </trkpt>
      <trkpt lat="44.31291" lon="3.62683">
        <ele>655.503</ele>
        <time>2011-09-17T07:35:02Z</time>
      </trkpt>
      <trkpt lat="44.31281" lon="3.62699">
        <ele>655.067</ele>
        <time>2011-09-17T07:35:12Z</time>
      </trkpt>
      <trkpt lat="44.31273" lon="3.62715">
        <ele>655.179</ele>
        <time>2011-09-17T07:35:22Z</time>
      </trkpt>
      <trkpt lat="44.31267" lon="3.62727">
        <ele>655.603</ele>
        <time>2011-09-17T07:35:32Z</time>
      </trkpt>
      <trkpt lat="44.31258" lon="3.62741">
        <ele>654.92</ele>
        <time>2011-09-17T07:35:42Z</time>
      </trkpt>
      <trkpt lat="44.31252" lon="3.6276">
        <ele>654.686</ele>
        <time>2011-09-17T07:35:52Z</time>
      </trkpt>
      <trkpt lat="44.31241" lon="3.62772">
        <ele>655.519</ele>
        <time>2011-09-17T07:36:02Z</time>
      </trkpt>
      <trkpt lat="44.31234" lon="3.62779">
        <ele>654.765</ele>
        <time>2011-09-17T07:36:12Z</time>
      </trkpt>
      <trkpt lat="44.31227" lon="3.62791">
        <ele>653.829</ele>
        <time>2011-09-17T07:36:22Z</time>
      </trkpt>
      <trkpt lat="44.3122" lon="3.62804">
        <ele>654.796</ele>
        <time>2011-09-17T07:36:32Z</time>
      </trkpt>
      <trkpt lat="44.31211" lon="3.62816">
        <ele>655.508</ele>
        <time>2011-09-17T07:36:42Z</time>
      </trkpt>
      <trkpt lat="44.31211" lon="3.62825">
        <ele>655.83</ele>
        <time>2011-09-17T07:36:52Z</time>
      </trkpt>
      <trkpt lat="44.31207" lon="3.6284">
        <ele>656.01</ele>
        <time>2011-09-17T07:37:02Z</time>
      </trkpt>
      <trkpt lat="44.31206" lon="3.62853">
        <ele>655.894</ele>
        <time>2011-09-17T07:37:12Z</time>
      </trkpt>
      <trkpt lat="44.31201" lon="3.62874">
        <ele>655.573</ele>
        <time>2011-09-17T07:37:22Z</time>
      </trkpt>
      <trkpt lat="44.31191" lon="3.62889">
        <ele>654.401</ele>
        <time>2011-09-17T07:37:32Z</time>
      </trkpt>
      <trkpt lat="44.31188" lon="3.62901">
        <ele>653.449</ele>
        <time>2011-09-17T07:37:42Z</time>
      </trkpt>
      <trkpt lat="44.31175" lon="3.62924">
        <ele>653.005</ele>
        <time>2011-09-17T07:37:52Z</time>
      </trkpt>
      <trkpt lat="44.31171" lon="3.62931">
        <ele>652.799</ele>
        <time>2011-09-17T07:38:02Z</time>
      </trkpt>
      <trkpt lat="44.31165" lon="3.62945">
        <ele>652.608</ele>
        <time>2011-09-17T07:38:12Z</time>
      </trkpt>
      <trkpt lat="44.31164" lon="3.62958">
        <ele>652.124</ele>
        <time>2011-09-17T07:38:22Z</time>
      </trkpt>
      <trkpt lat="44.31166" lon="3.62973">
        <ele>651.192</ele>
        <time>2011-09-17T07:38:32Z</time>
      </trkpt>
      <trkpt lat="44.31169" lon="3.62987">
        <ele>651.418</ele>
        <time>2011-09-17T07:38:42Z</time>
      </trkpt>
      <trkpt lat="44.31168" lon="3.63003">
        <ele>651.474</ele>
        <time>2011-09-17T07:38:52Z</time>
      </trkpt>
      <trkpt lat="44.31169" lon="3.63017">
        <ele>650.755</ele>
        <time>2011-09-17T07:39:02Z</time>
      </trkpt>
      <trkpt lat="44.31162" lon="3.63035">
        <ele>649.639</ele>
        <time>2011-09-17T07:39:12Z</time>
      </trkpt>
      <trkpt lat="44.31158" lon="3.6305">
        <ele>650.175</ele>
        <time>2011-09-17T07:39:22Z</time>
      </trkpt>
      <trkpt lat="44.31148" lon="3.63068">
        <ele>650.102</ele>
        <time>2011-09-17T07:39:32Z</time>
      </trkpt>
      <trkpt lat="44.31142" lon="3.6308">
        <ele>649.51</ele>
        <time>2011-09-17T07:39:42Z</time>
      </trkpt>
      <trkpt lat="44.31134" lon="3.63093">
        <ele>649.085</ele>
        <time>2011-09-17T07:39:52Z</time>
      </trkpt>
      <trkpt lat="44.31126" lon="3.63104">
        <ele>649.195</ele>
        <time>2011-09-17T07:40:02Z</time>
      </trkpt>
      <trkpt lat="44.31119" lon="3.63116">
        <ele>649.332</ele>
        <time>2011-09-17T07:40:12Z</time>
      </trkpt>
      <trkpt lat="44.31113" lon="3.63127">
        <ele>649.709</ele>
        <time>2011-09-17T07:40:22Z</time>
      </trkpt>
      <trkpt lat="44.31106" lon="3.63137">
        <ele>650.223</ele>
        <time>2011-09-17T07:40:32Z</time>
      </trkpt>
      <trkpt lat="44.31095" lon="3.63148">
        <ele>649.048</ele>
        <time>2011-09-17T07:40:42Z</time>
      </trkpt>
      <trkpt lat="44.31088" lon="3.63156">
        <ele>648.843</ele>
        <time>2011-09-17T07:40:52Z</time>
      </trkpt>
      <trkpt lat="44.31079" lon="3.63158">
        <ele>648.485</ele>
        <time>2011-09-17T07:41:02Z</time>
      </trkpt>
      <trkpt lat="44.31069" lon="3.6316">
        <ele>648.41</ele>
        <time>2011-09-17T07:41:12Z</time>
      </trkpt>
      <trkpt lat="44.31058" lon="3.63158">
        <ele>647.971</ele>
        <time>2011-09-17T07:41:22Z</time>
      </trkpt>
      <trkpt lat="44.31047" lon="3.63154">
        <ele>648.044</ele>
        <time>2011-09-17T07:41:32Z</time>
      </trkpt>
      <trkpt lat="44.31035" lon="3.63149">
        <ele>648.223</ele>
        <time>2011-09-17T07:41:42Z</time>
      </trkpt>
      <trkpt lat="44.31026" lon="3.63141">
        <ele>649.626</ele>
        <time>2011-09-17T07:41:52Z</time>
      </trkpt>
      <trkpt lat="44.31016" lon="3.6314">
        <ele>651.08</ele>
        <time>2011-09-17T07:42:02Z</time>
      </trkpt>
      <trkpt lat="44.31006" lon="3.63136">
        <ele>653.143</ele>
        <time>2011-09-17T07:42:12Z</time>
      </trkpt>
      <trkpt lat="44.30996" lon="3.63129">
        <ele>654.842</ele>
        <time>2011-09-17T07:42:22Z</time>
      </trkpt>
      <trkpt lat="44.30987" lon="3.63121">
        <ele>656.956</ele>
        <time>2011-09-17T07:42:32Z</time>
      </trkpt>
      <trkpt lat="44.30977" lon="3.63114">
        <ele>658.499</ele>
        <time>2011-09-17T07:42:42Z</time>
      </trkpt>
      <trkpt lat="44.30967" lon="3.63111">
        <ele>660.148</ele>
        <time>2011-09-17T07:42:52Z</time>
      </trkpt>
      <trkpt lat="44.30959" lon="3.63104">
        <ele>662.55</ele>
        <time>2011-09-17T07:43:02Z</time>
      </trkpt>
      <trkpt lat="44.30956" lon="3.63086">
        <ele>664.278</ele>
        <time>2011-09-17T07:43:12Z</time>
      </trkpt>
      <trkpt lat="44.30948" lon="3.63081">
        <ele>665.958</ele>
        <time>2011-09-17T07:43:22Z</time>
      </trkpt>
      <trkpt lat="44.30938" lon="3.63079">
        <ele>668.358</ele>
        <time>2011-09-17T07:43:32Z</time>
      </trkpt>
      <trkpt lat="44.30929" lon="3.63071">
        <ele>670.091</ele>
        <time>2011-09-17T07:43:42Z</time>
      </trkpt>
      <trkpt lat="44.30919" lon="3.63063">
        <ele>670.162</ele>
        <time>2011-09-17T07:43:52Z</time>
      </trkpt>
      <trkpt lat="44.30909" lon="3.63055">
        <ele>669.964</ele>
        <time>2011-09-17T07:44:02Z</time>
      </trkpt>
      <trkpt lat="44.309" lon="3.63052">
        <ele>670.366</ele>
        <time>2011-09-17T07:44:12Z</time>
      </trkpt>
      <trkpt lat="44.30891" lon="3.63046">
        <ele>671.764</ele>
        <time>2011-09-17T07:44:22Z</time>
      </trkpt>
      <trkpt lat="44.30878" lon="3.63039">
        <ele>671.32</ele>
        <time>2011-09-17T07:44:32Z</time>
      </trkpt>
      <trkpt lat="44.30866" lon="3.63033">
        <ele>670.226</ele>
        <time>2011-09-17T07:44:42Z</time>
      </trkpt>
      <trkpt lat="44.30859" lon="3.63032">
        <ele>668.984</ele>
        <time>2011-09-17T07:44:52Z</time>
      </trkpt>
      <trkpt lat="44.30857" lon="3.63036">
        <ele>669.779</ele>
        <time>2011-09-17T07:45:02Z</time>
      </trkpt>
      <trkpt lat="44.30862" lon="3.6305">
        <ele>671.481</ele>
        <time>2011-09-17T07:45:12Z</time>
      </trkpt>
      <trkpt lat="44.30874" lon="3.63054">
        <ele>672.971</ele>
        <time>2011-09-17T07:45:22Z</time>
      </trkpt>
      <trkpt lat="44.30885" lon="3.63059">
        <ele>675.267</ele>
        <time>2011-09-17T07:45:32Z</time>
      </trkpt>
      <trkpt lat="44.30892" lon="3.63067">
        <ele>676.425</ele>
        <time>2011-09-17T07:45:42Z</time>
      </trkpt>
      <trkpt lat="44.30896" lon="3.63082">
        <ele>677.455</ele>
        <time>2011-09-17T07:45:52Z</time>
      </trkpt>
      <trkpt lat="44.30911" lon="3.63082">
        <ele>678.544</ele>
        <time>2011-09-17T07:46:02Z</time>
      </trkpt>
      <trkpt lat="44.30919" lon="3.63088">
        <ele>678.842</ele>
        <time>2011-09-17T07:46:12Z</time>
      </trkpt>
      <trkpt lat="44.30925" lon="3.63102">
        <ele>679.337</ele>
        <time>2011-09-17T07:46:22Z</time>
      </trkpt>
      <trkpt lat="44.30929" lon="3.63119">
        <ele>680.848</ele>
        <time>2011-09-17T07:46:32Z</time>
      </trkpt>
      <trkpt lat="44.30928" lon="3.63137">
        <ele>681.62</ele>
        <time>2011-09-17T07:46:42Z</time>
      </trkpt>
      <trkpt lat="44.30923" lon="3.63171">
        <ele>683.281</ele>
        <time>2011-09-17T07:46:52Z</time>
      </trkpt>
      <trkpt lat="44.30932" lon="3.63181">
        <ele>684.296</ele>
        <time>2011-09-17T07:47:02Z</time>
      </trkpt>
      <trkpt lat="44.3094" lon="3.63193">
        <ele>684.66</ele>
        <time>2011-09-17T07:47:12Z</time>
      </trkpt>
      <trkpt lat="44.30942" lon="3.63205">
        <ele>685.587</ele>
        <time>2011-09-17T07:47:22Z</time>
      </trkpt>
      <trkpt lat="44.30945" lon="3.63218">
        <ele>686.451</ele>
        <time>2011-09-17T07:47:32Z</time>
      </trkpt>
      <trkpt lat="44.30948" lon="3.63232">
        <ele>687.888</ele>
        <time>2011-09-17T07:47:42Z</time>
      </trkpt>
      <trkpt lat="44.30949" lon="3.63246">
        <ele>688.764</ele>
        <time>2011-09-17T07:47:52Z</time>
      </trkpt>
      <trkpt lat="44.30944" lon="3.6326">
        <ele>688.53</ele>
        <time>2011-09-17T07:48:02Z</time>
      </trkpt>
      <trkpt lat="44.30943" lon="3.63273">
        <ele>688.833</ele>
        <time>2011-09-17T07:48:12Z</time>
      </trkpt>
      <trkpt lat="44.30947" lon="3.63283">
        <ele>689.124</ele>
        <time>2011-09-17T07:48:22Z</time>
      </trkpt>
      <trkpt lat="44.30947" lon="3.63294">
        <ele>690.354</ele>
        <time>2011-09-17T07:48:32Z</time>
      </trkpt>
      <trkpt lat="44.30951" lon="3.63314">
        <ele>691.473</ele>
        <time>2011-09-17T07:48:42Z</time>
      </trkpt>
      <trkpt lat="44.30951" lon="3.63327">
        <ele>692.991</ele>
        <time>2011-09-17T07:48:52Z</time>
      </trkpt>
      <trkpt lat="44.30972" lon="3.63315">
        <ele>693.104</ele>
        <time>2011-09-17T07:49:02Z</time>
      </trkpt>
      <trkpt lat="44.30981" lon="3.6333">
        <ele>692.029</ele>
        <time>2011-09-17T07:49:12Z</time>
      </trkpt>
      <trkpt lat="44.30982" lon="3.63344">
        <ele>689.369</ele>
        <time>2011-09-17T07:49:22Z</time>
      </trkpt>
      <trkpt lat="44.30977" lon="3.6335">
        <ele>687.702</ele>
        <time>2011-09-17T07:49:32Z</time>
      </trkpt>
      <trkpt lat="44.30975" lon="3.63358">
        <ele>686.096</ele>
        <time>2011-09-17T07:49:42Z</time>
      </trkpt>
      <trkpt lat="44.3097" lon="3.63367">
        <ele>685.492</ele>
        <time>2011-09-17T07:49:52Z</time>
      </trkpt>
      <trkpt lat="44.30964" lon="3.63376">
        <ele>683.923</ele>
        <time>2011-09-17T07:50:02Z</time>
      </trkpt>
      <trkpt lat="44.3096" lon="3.63384">
        <ele>682.417</ele>
        <time>2011-09-17T07:50:12Z</time>
      </trkpt>
      <trkpt lat="44.3095" lon="3.63397">
        <ele>680.957</ele>
        <time>2011-09-17T07:50:22Z</time>
      </trkpt>
      <trkpt lat="44.30943" lon="3.63406">
        <ele>679.294</ele>
        <time>2011-09-17T07:50:32Z</time>
      </trkpt>
      <trkpt lat="44.30939" lon="3.63415">
        <ele>677.503</ele>
        <time>2011-09-17T07:50:42Z</time>
      </trkpt>
      <trkpt lat="44.30937" lon="3.63425">
        <ele>675.883</ele>
        <time>2011-09-17T07:50:52Z</time>
      </trkpt>
      <trkpt lat="44.30933" lon="3.63434">
        <ele>675.071</ele>
        <time>2011-09-17T07:51:02Z</time>
      </trkpt>
      <trkpt lat="44.30931" lon="3.63441">
        <ele>673.86</ele>
        <time>2011-09-17T07:51:12Z</time>
      </trkpt>
      <trkpt lat="44.30925" lon="3.63451">
        <ele>672.483</ele>
        <time>2011-09-17T07:51:22Z</time>
      </trkpt>
      <trkpt lat="44.30921" lon="3.63456">
        <ele>671.593</ele>
        <time>2011-09-17T07:51:32Z</time>
      </trkpt>
      <trkpt lat="44.3092" lon="3.63466">
        <ele>669.813</ele>
        <time>2011-09-17T07:51:42Z</time>
      </trkpt>
      <trkpt lat="44.30918" lon="3.63477">
        <ele>668.665</ele>
        <time>2011-09-17T07:51:52Z</time>
      </trkpt>
      <trkpt lat="44.30911" lon="3.63484">
        <ele>667.419</ele>
        <time>2011-09-17T07:52:02Z</time>
      </trkpt>
      <trkpt lat="44.30904" lon="3.63496">
        <ele>666.165</ele>
        <time>2011-09-17T07:52:12Z</time>
      </trkpt>
      <trkpt lat="44.30896" lon="3.63495">
        <ele>665.447</ele>
        <time>2011-09-17T07:52:22Z</time>
      </trkpt>
      <trkpt lat="44.3089" lon="3.635">
        <ele>664.039</ele>
        <time>2011-09-17T07:52:32Z</time>
      </trkpt>
      <trkpt lat="44.30884" lon="3.63504">
        <ele>663.164</ele>
        <time>2011-09-17T07:52:42Z</time>
      </trkpt>
      <trkpt lat="44.30872" lon="3.63512">
        <ele>662.074</ele>
        <time>2011-09-17T07:52:52Z</time>
      </trkpt>
      <trkpt lat="44.30866" lon="3.63519">
        <ele>660.73</ele>
        <time>2011-09-17T07:53:02Z</time>
      </trkpt>
      <trkpt lat="44.30855" lon="3.63528">
        <ele>659.669</ele>
        <time>2011-09-17T07:53:12Z</time>
      </trkpt>
      <trkpt lat="44.30842" lon="3.63548">
        <ele>658.825</ele>
        <time>2011-09-17T07:53:22Z</time>
      </trkpt>
      <trkpt lat="44.30836" lon="3.63548">
        <ele>658.054</ele>
        <time>2011-09-17T07:53:32Z</time>
      </trkpt>
      <trkpt lat="44.30831" lon="3.63559">
        <ele>656.899</ele>
        <time>2011-09-17T07:53:42Z</time>
      </trkpt>
      <trkpt lat="44.30822" lon="3.6357">
        <ele>655.961</ele>
        <time>2011-09-17T07:53:52Z</time>
      </trkpt>
      <trkpt lat="44.30821" lon="3.63584">
        <ele>655.569</ele>
        <time>2011-09-17T07:54:02Z</time>
      </trkpt>
      <trkpt lat="44.30823" lon="3.63585">
        <ele>655.459</ele>
        <time>2011-09-17T07:54:12Z</time>
      </trkpt>
      <trkpt lat="44.30816" lon="3.63589">
        <ele>654.996</ele>
        <time>2011-09-17T07:54:22Z</time>
      </trkpt>
      <trkpt lat="44.3081" lon="3.63591">
        <ele>654.231</ele>
        <time>2011-09-17T07:54:32Z</time>
      </trkpt>
      <trkpt lat="44.30801" lon="3.63606">
        <ele>653.575</ele>
        <time>2011-09-17T07:54:42Z</time>
      </trkpt>
      <trkpt lat="44.30798" lon="3.63612">
        <ele>654.279</ele>
        <time>2011-09-17T07:54:52Z</time>
      </trkpt>
      <trkpt lat="44.30795" lon="3.63622">
        <ele>653.004</ele>
        <time>2011-09-17T07:55:02Z</time>
      </trkpt>
      <trkpt lat="44.30791" lon="3.6364">
        <ele>652.857</ele>
        <time>2011-09-17T07:55:12Z</time>
      </trkpt>
      <trkpt lat="44.30788" lon="3.63648">
        <ele>652.969</ele>
        <time>2011-09-17T07:55:22Z</time>
      </trkpt>
      <trkpt lat="44.30784" lon="3.63653">
        <ele>652.779</ele>
        <time>2011-09-17T07:55:32Z</time>
      </trkpt>
      <trkpt lat="44.3078" lon="3.63657">
        <ele>653.052</ele>
        <time>2011-09-17T07:55:42Z</time>
      </trkpt>
      <trkpt lat="44.30776" lon="3.63663">
        <ele>653.15</ele>
        <time>2011-09-17T07:55:52Z</time>
      </trkpt>
      <trkpt lat="44.3077" lon="3.63671">
        <ele>652.578</ele>
        <time>2011-09-17T07:56:02Z</time>
      </trkpt>
      <trkpt lat="44.30769" lon="3.63675">
        <ele>651.505</ele>
        <time>2011-09-17T07:56:12Z</time>
      </trkpt>
      <trkpt lat="44.3076" lon="3.63681">
        <ele>650.866</ele>
        <time>2011-09-17T07:56:22Z</time>
      </trkpt>
      <trkpt lat="44.30754" lon="3.6369">
        <ele>650.139</ele>
        <time>2011-09-17T07:56:32Z</time>
      </trkpt>
      <trkpt lat="44.30746" lon="3.63702">
        <ele>648.826</ele>
        <time>2011-09-17T07:56:42Z</time>
      </trkpt>
      <trkpt lat="44.30739" lon="3.63711">
        <ele>648.165</ele>
        <time>2011-09-17T07:56:52Z</time>
      </trkpt>
      <trkpt lat="44.30734" lon="3.63723">
        <ele>647.472</ele>
        <time>2011-09-17T07:57:02Z</time>
      </trkpt>
      <trkpt lat="44.30727" lon="3.63731">
        <ele>647.047</ele>
        <time>2011-09-17T07:57:12Z</time>
      </trkpt>
      <trkpt lat="44.30719" lon="3.63744">
        <ele>646.573</ele>
        <time>2011-09-17T07:57:22Z</time>
      </trkpt>
      <trkpt lat="44.30712" lon="3.63749">
        <ele>645.503</ele>
        <time>2011-09-17T07:57:32Z</time>
      </trkpt>
      <trkpt lat="44.30701" lon="3.6376">
        <ele>644.037</ele>
        <time>2011-09-17T07:57:42Z</time>
      </trkpt>
      <trkpt lat="44.30695" lon="3.63768">
        <ele>642.581</ele>
        <time>2011-09-17T07:57:52Z</time>
      </trkpt>
      <trkpt lat="44.30692" lon="3.63779">
        <ele>641.984</ele>
        <time>2011-09-17T07:58:02Z</time>
      </trkpt>
      <trkpt lat="44.30687" lon="3.63821">
        <ele>641.479</ele>
        <time>2011-09-17T07:58:12Z</time>
      </trkpt>
      <trkpt lat="44.30692" lon="3.63822">
        <ele>640.702</ele>
        <time>2011-09-17T07:58:22Z</time>
      </trkpt>
      <trkpt lat="44.30681" lon="3.63895">
        <ele>639.677</ele>
        <time>2011-09-17T07:58:32Z</time>
      </trkpt>
      <trkpt lat="44.30675" lon="3.63919">
        <ele>638.282</ele>
        <time>2011-09-17T07:58:42Z</time>
      </trkpt>
      <trkpt lat="44.30681" lon="3.6393">
        <ele>638.047</ele>
        <time>2011-09-17T07:58:52Z</time>
      </trkpt>
      <trkpt lat="44.30685" lon="3.63937">
        <ele>637.753</ele>
        <time>2011-09-17T07:59:02Z</time>
      </trkpt>
      <trkpt lat="44.30688" lon="3.63945">
        <ele>637.01</ele>
        <time>2011-09-17T07:59:12Z</time>
      </trkpt>
      <trkpt lat="44.30687" lon="3.63952">
        <ele>636.132</ele>
        <time>2011-09-17T07:59:22Z</time>
      </trkpt>
      <trkpt lat="44.30681" lon="3.63962">
        <ele>636.124</ele>
        <time>2011-09-17T07:59:32Z</time>
      </trkpt>
      <trkpt lat="44.30674" lon="3.63966">
        <ele>635.762</ele>
        <time>2011-09-17T07:59:42Z</time>
      </trkpt>
      <trkpt lat="44.30666" lon="3.63961">
        <ele>634.135</ele>
        <time>2011-09-17T07:59:52Z</time>
      </trkpt>
      <trkpt lat="44.30662" lon="3.63963">
        <ele>633.239</ele>
        <time>2011-09-17T08:00:02Z</time>
      </trkpt>
      <trkpt lat="44.30663" lon="3.63973">
        <ele>634.237</ele>
        <time>2011-09-17T08:00:12Z</time>
      </trkpt>
      <trkpt lat="44.3066" lon="3.63975">
        <ele>635.621</ele>
        <time>2011-09-17T08:00:22Z</time>
      </trkpt>
      <trkpt lat="44.30663" lon="3.63979">
        <ele>636.184</ele>
        <time>2011-09-17T08:00:32Z</time>
      </trkpt>
      <trkpt lat="44.30669" lon="3.63991">
        <ele>638.388</ele>
        <time>2011-09-17T08:00:42Z</time>
      </trkpt>
      <trkpt lat="44.30672" lon="3.63991">
        <ele>640.441</ele>
        <time>2011-09-17T08:00:52Z</time>
      </trkpt>
      <trkpt lat="44.30675" lon="3.64001">
        <ele>642.732</ele>
        <time>2011-09-17T08:01:02Z</time>
      </trkpt>
      <trkpt lat="44.30679" lon="3.64002">
        <ele>643.419</ele>
        <time>2011-09-17T08:01:12Z</time>
      </trkpt>
      <trkpt lat="44.3068" lon="3.64011">
        <ele>644.027</ele>
        <time>2011-09-17T08:01:22Z</time>
      </trkpt>
      <trkpt lat="44.30681" lon="3.64021">
        <ele>643.977</ele>
        <time>2011-09-17T08:01:32Z</time>
      </trkpt>
      <trkpt lat="44.30682" lon="3.64032">
        <ele>644.595</ele>
        <time>2011-09-17T08:01:42Z</time>
      </trkpt>
      <trkpt lat="44.30687" lon="3.64039">
        <ele>645.781</ele>
        <time>2011-09-17T08:01:52Z</time>
      </trkpt>
      <trkpt lat="44.30691" lon="3.64048">
        <ele>646.894</ele>
        <time>2011-09-17T08:02:02Z</time>
      </trkpt>
      <trkpt lat="44.30697" lon="3.64059">
        <ele>648.194</ele>
        <time>2011-09-17T08:02:12Z</time>
      </trkpt>
      <trkpt lat="44.30698" lon="3.64069">
        <ele>649.264</ele>
        <time>2011-09-17T08:02:22Z</time>
      </trkpt>
      <trkpt lat="44.30696" lon="3.64083">
        <ele>650.511</ele>
        <time>2011-09-17T08:02:32Z</time>
      </trkpt>
      <trkpt lat="44.30704" lon="3.64092">
        <ele>652.107</ele>
        <time>2011-09-17T08:02:42Z</time>
      </trkpt>
      <trkpt lat="44.30708" lon="3.64099">
        <ele>652.733</ele>
        <time>2011-09-17T08:02:52Z</time>
      </trkpt>
      <trkpt lat="44.30705" lon="3.64105">
        <ele>653.008</ele>
        <time>2011-09-17T08:03:02Z</time>
      </trkpt>
      <trkpt lat="44.30706" lon="3.64113">
        <ele>653.912</ele>
        <time>2011-09-17T08:03:12Z</time>
      </trkpt>
      <trkpt lat="44.30705" lon="3.64119">
        <ele>654.255</ele>
        <time>2011-09-17T08:03:22Z</time>
      </trkpt>
      <trkpt lat="44.30702" lon="3.64122">
        <ele>653.563</ele>
        <time>2011-09-17T08:03:32Z</time>
      </trkpt>
      <trkpt lat="44.30698" lon="3.64127">
        <ele>654.205</ele>
        <time>2011-09-17T08:03:42Z</time>
      </trkpt>
      <trkpt lat="44.30695" lon="3.64136">
        <ele>653.957</ele>
        <time>2011-09-17T08:03:52Z</time>
      </trkpt>
      <trkpt lat="44.30695" lon="3.64145">
        <ele>654.401</ele>
        <time>2011-09-17T08:04:02Z</time>
      </trkpt>
      <trkpt lat="44.30692" lon="3.64151">
        <ele>654.792</ele>
        <time>2011-09-17T08:04:12Z</time>
      </trkpt>
      <trkpt lat="44.3069" lon="3.64158">
        <ele>655.183</ele>
        <time>2011-09-17T08:04:22Z</time>
      </trkpt>
      <trkpt lat="44.30687" lon="3.64165">
        <ele>654.623</ele>
        <time>2011-09-17T08:04:32Z</time>
      </trkpt>
      <trkpt lat="44.30687" lon="3.64173">
        <ele>655.162</ele>
        <time>2011-09-17T08:04:42Z</time>
      </trkpt>
      <trkpt lat="44.30685" lon="3.64185">
        <ele>655.645</ele>
        <time>2011-09-17T08:04:52Z</time>
      </trkpt>
      <trkpt lat="44.30682" lon="3.64196">
        <ele>655.476</ele>
        <time>2011-09-17T08:05:02Z</time>
      </trkpt>
      <trkpt lat="44.30671" lon="3.64203">
        <ele>655.487</ele>
        <time>2011-09-17T08:05:12Z</time>
      </trkpt>
      <trkpt lat="44.30668" lon="3.64209">
        <ele>656.234</ele>
        <time>2011-09-17T08:05:22Z</time>
      </trkpt>
      <trkpt lat="44.30665" lon="3.64212">
        <ele>656.324</ele>
        <time>2011-09-17T08:05:32Z</time>
      </trkpt>
      <trkpt lat="44.30656" lon="3.64219">
        <ele>657.13</ele>
        <time>2011-09-17T08:05:42Z</time>
      </trkpt>
      <trkpt lat="44.30647" lon="3.64229">
        <ele>657.112</ele>
        <time>2011-09-17T08:05:52Z</time>
      </trkpt>
      <trkpt lat="44.3064" lon="3.64236">
        <ele>657.574</ele>
        <time>2011-09-17T08:06:02Z</time>
      </trkpt>
      <trkpt lat="44.30632" lon="3.64241">
        <ele>658.404</ele>
        <time>2011-09-17T08:06:12Z</time>
      </trkpt>
      <trkpt lat="44.30622" lon="3.64243">
        <ele>658.723</ele>
        <time>2011-09-17T08:06:22Z</time>
      </trkpt>
      <trkpt lat="44.30614" lon="3.64244">
        <ele>659.233</ele>
        <time>2011-09-17T08:06:32Z</time>
      </trkpt>
      <trkpt lat="44.30608" lon="3.64238">
        <ele>660.449</ele>
        <time>2011-09-17T08:06:42Z</time>
      </trkpt>
      <trkpt lat="44.30606" lon="3.64235">
        <ele>661.21</ele>
        <time>2011-09-17T08:06:52Z</time>
      </trkpt>
      <trkpt lat="44.3061" lon="3.64239">
        <ele>662.28</ele>
        <time>2011-09-17T08:07:02Z</time>
      </trkpt>
      <trkpt lat="44.30613" lon="3.64248">
        <ele>662.727</ele>
        <time>2011-09-17T08:07:12Z</time>
      </trkpt>
      <trkpt lat="44.3062" lon="3.64258">
        <ele>663.392</ele>
        <time>2011-09-17T08:07:22Z</time>
      </trkpt>
      <trkpt lat="44.30622" lon="3.64268">
        <ele>664.653</ele>
        <time>2011-09-17T08:07:32Z</time>
      </trkpt>
      <trkpt lat="44.30624" lon="3.64278">
        <ele>665.628</ele>
        <time>2011-09-17T08:07:42Z</time>
      </trkpt>
      <trkpt lat="44.30623" lon="3.64288">
        <ele>666.341</ele>
        <time>2011-09-17T08:07:52Z</time>
      </trkpt>
      <trkpt lat="44.30625" lon="3.64299">
        <ele>666.886</ele>
        <time>2011-09-17T08:08:02Z</time>
      </trkpt>
      <trkpt lat="44.30623" lon="3.64309">
        <ele>667.282</ele>
        <time>2011-09-17T08:08:12Z</time>
      </trkpt>
      <trkpt lat="44.30621" lon="3.64319">
        <ele>668.764</ele>
        <time>2011-09-17T08:08:22Z</time>
      </trkpt>
      <trkpt lat="44.30617" lon="3.64329">
        <ele>669.792</ele>
        <time>2011-09-17T08:08:32Z</time>
      </trkpt>
      <trkpt lat="44.30612" lon="3.64338">
        <ele>670.302</ele>
        <time>2011-09-17T08:08:42Z</time>
      </trkpt>
      <trkpt lat="44.30612" lon="3.64344">
        <ele>670.788</ele>
        <time>2011-09-17T08:08:52Z</time>
      </trkpt>
      <trkpt lat="44.30611" lon="3.64352">
        <ele>671.713</ele>
        <time>2011-09-17T08:09:02Z</time>
      </trkpt>
      <trkpt lat="44.30609" lon="3.64356">
        <ele>673.143</ele>
        <time>2011-09-17T08:09:12Z</time>
      </trkpt>
      <trkpt lat="44.30607" lon="3.64361">
        <ele>673.901</ele>
        <time>2011-09-17T08:09:22Z</time>
      </trkpt>
      <trkpt lat="44.30602" lon="3.64368">
        <ele>675.299</ele>
        <time>2011-09-17T08:09:32Z</time>
      </trkpt>
      <trkpt lat="44.30599" lon="3.64372">
        <ele>675.986</ele>
        <time>2011-09-17T08:09:42Z</time>
      </trkpt>
      <trkpt lat="44.30595" lon="3.64375">
        <ele>676.509</ele>
        <time>2011-09-17T08:09:52Z</time>
      </trkpt>
      <trkpt lat="44.30593" lon="3.64381">
        <ele>677.635</ele>
        <time>2011-09-17T08:10:02Z</time>
      </trkpt>
      <trkpt lat="44.30589" lon="3.64382">
        <ele>678.662</ele>
        <time>2011-09-17T08:10:12Z</time>
      </trkpt>
      <trkpt lat="44.30583" lon="3.64389">
        <ele>678.85</ele>
        <time>2011-09-17T08:10:22Z</time>
      </trkpt>
      <trkpt lat="44.30577" lon="3.64391">
        <ele>678.581</ele>
        <time>2011-09-17T08:10:32Z</time>
      </trkpt>
      <trkpt lat="44.3057" lon="3.64401">
        <ele>678.174</ele>
        <time>2011-09-17T08:10:42Z</time>
      </trkpt>
      <trkpt lat="44.30563" lon="3.64415">
        <ele>677.642</ele>
        <time>2011-09-17T08:10:52Z</time>
      </trkpt>
      <trkpt lat="44.30553" lon="3.64425">
        <ele>677.693</ele>
        <time>2011-09-17T08:11:02Z</time>
      </trkpt>
      <trkpt lat="44.30543" lon="3.64432">
        <ele>677.571</ele>
        <time>2011-09-17T08:11:12Z</time>
      </trkpt>
      <trkpt lat="44.30535" lon="3.64436">
        <ele>677.45</ele>
        <time>2011-09-17T08:11:22Z</time>
      </trkpt>
      <trkpt lat="44.30523" lon="3.64435">
        <ele>676.823</ele>
        <time>2011-09-17T08:11:32Z</time>
      </trkpt>
      <trkpt lat="44.30515" lon="3.64432">
        <ele>676.176</ele>
        <time>2011-09-17T08:11:42Z</time>
      </trkpt>
      <trkpt lat="44.30507" lon="3.64431">
        <ele>677.133</ele>
        <time>2011-09-17T08:11:52Z</time>
      </trkpt>
      <trkpt lat="44.30497" lon="3.64431">
        <ele>677.989</ele>
        <time>2011-09-17T08:12:02Z</time>
      </trkpt>
      <trkpt lat="44.3049" lon="3.6443">
        <ele>678.879</ele>
        <time>2011-09-17T08:12:12Z</time>
      </trkpt>
      <trkpt lat="44.30483" lon="3.64434">
        <ele>679.777</ele>
        <time>2011-09-17T08:12:22Z</time>
      </trkpt>
      <trkpt lat="44.30475" lon="3.64435">
        <ele>680.11</ele>
        <time>2011-09-17T08:12:32Z</time>
      </trkpt>
      <trkpt lat="44.30469" lon="3.64439">
        <ele>680.787</ele>
        <time>2011-09-17T08:12:42Z</time>
      </trkpt>
      <trkpt lat="44.30463" lon="3.64444">
        <ele>681.751</ele>
        <time>2011-09-17T08:12:52Z</time>
      </trkpt>
      <trkpt lat="44.30458" lon="3.64447">
        <ele>681.199</ele>
        <time>2011-09-17T08:13:02Z</time>
      </trkpt>
      <trkpt lat="44.30452" lon="3.64452">
        <ele>680.803</ele>
        <time>2011-09-17T08:13:12Z</time>
      </trkpt>
      <trkpt lat="44.30446" lon="3.64454">
        <ele>680.62</ele>
        <time>2011-09-17T08:13:22Z</time>
      </trkpt>
      <trkpt lat="44.3044" lon="3.6445">
        <ele>680.52</ele>
        <time>2011-09-17T08:13:32Z</time>
      </trkpt>
      <trkpt lat="44.30436" lon="3.64446">
        <ele>680.731</ele>
        <time>2011-09-17T08:13:42Z</time>
      </trkpt>
      <trkpt lat="44.30433" lon="3.64447">
        <ele>680.523</ele>
        <time>2011-09-17T08:13:52Z</time>
      </trkpt>
      <trkpt lat="44.30434" lon="3.64454">
        <ele>680.887</ele>
        <time>2011-09-17T08:14:02Z</time>
      </trkpt>
      <trkpt lat="44.30434" lon="3.64455">
        <ele>682.47</ele>
        <time>2011-09-17T08:14:12Z</time>
      </trkpt>
      <trkpt lat="44.30442" lon="3.64458">
        <ele>683.353</ele>
        <time>2011-09-17T08:14:22Z</time>
      </trkpt>
      <trkpt lat="44.3044" lon="3.64467">
        <ele>683.321</ele>
        <time>2011-09-17T08:14:32Z</time>
      </trkpt>
      <trkpt lat="44.30437" lon="3.6447">
        <ele>684.198</ele>
        <time>2011-09-17T08:14:42Z</time>
      </trkpt>
      <trkpt lat="44.30439" lon="3.64478">
        <ele>685.406</ele>
        <time>2011-09-17T08:14:52Z</time>
      </trkpt>
      <trkpt lat="44.30438" lon="3.64486">
        <ele>686.938</ele>
        <time>2011-09-17T08:15:02Z</time>
      </trkpt>
      <trkpt lat="44.30435" lon="3.64497">
        <ele>688.428</ele>
        <time>2011-09-17T08:15:12Z</time>
      </trkpt>
      <trkpt lat="44.30435" lon="3.64505">
        <ele>690.347</ele>
        <time>2011-09-17T08:15:22Z</time>
      </trkpt>
      <trkpt lat="44.30434" lon="3.6452">
        <ele>692.183</ele>
        <time>2011-09-17T08:15:32Z</time>
      </trkpt>
      <trkpt lat="44.3043" lon="3.64525">
        <ele>693.481</ele>
        <time>2011-09-17T08:15:42Z</time>
      </trkpt>
      <trkpt lat="44.30433" lon="3.64527">
        <ele>693.298</ele>
        <time>2011-09-17T08:15:52Z</time>
      </trkpt>
      <trkpt lat="44.3044" lon="3.64534">
        <ele>691.782</ele>
        <time>2011-09-17T08:16:02Z</time>
      </trkpt>
      <trkpt lat="44.30453" lon="3.64535">
        <ele>690.392</ele>
        <time>2011-09-17T08:16:12Z</time>
      </trkpt>
      <trkpt lat="44.30461" lon="3.64543">
        <ele>688.434</ele>
        <time>2011-09-17T08:16:22Z</time>
      </trkpt>
      <trkpt lat="44.30464" lon="3.64569">
        <ele>687.374</ele>
        <time>2011-09-17T08:16:32Z</time>
      </trkpt>
      <trkpt lat="44.30278" lon="3.65401">
        <ele>686.42</ele>
        <time>2011-09-17T08:16:42Z</time>
      </trkpt>
      <trkpt lat="44.30269" lon="3.6541">
        <ele>685.99</ele>
        <time>2011-09-17T08:16:52Z</time>
      </trkpt>
      <trkpt lat="44.30286" lon="3.65402">
        <ele>685.115</ele>
        <time>2011-09-17T08:17:02Z</time>
      </trkpt>
      <trkpt lat="44.30314" lon="3.65398">
        <ele>684.296</ele>
        <time>2011-09-17T08:17:12Z</time>
      </trkpt>
      <trkpt lat="44.30328" lon="3.654">
        <ele>682.607</ele>
        <time>2011-09-17T08:17:22Z</time>
      </trkpt>
      <trkpt lat="44.30333" lon="3.6541">
        <ele>681.297</ele>
        <time>2011-09-17T08:17:32Z</time>
      </trkpt>
      <trkpt lat="44.30342" lon="3.65418">
        <ele>678.573</ele>
        <time>2011-09-17T08:17:42Z</time>
      </trkpt>
      <trkpt lat="44.30349" lon="3.65434">
        <ele>678.082</ele>
        <time>2011-09-17T08:17:52Z</time>
      </trkpt>
      <trkpt lat="44.30356" lon="3.65448">
        <ele>677.661</ele>
        <time>2011-09-17T08:18:02Z</time>
      </trkpt>
      <trkpt lat="44.30361" lon="3.65463">
        <ele>676.807</ele>
        <time>2011-09-17T08:18:12Z</time>
      </trkpt>
      <trkpt lat="44.30369" lon="3.65469">
        <ele>675.873</ele>
        <time>2011-09-17T08:18:22Z</time>
      </trkpt>
      <trkpt lat="44.30378" lon="3.65481">
        <ele>675.557</ele>
        <time>2011-09-17T08:18:32Z</time>
      </trkpt>
      <trkpt lat="44.30382" lon="3.65496">
        <ele>675.148</ele>
        <time>2011-09-17T08:18:42Z</time>
      </trkpt>
      <trkpt lat="44.3039" lon="3.65509">
        <ele>675.374</ele>
        <time>2011-09-17T08:18:52Z</time>
      </trkpt>
      <trkpt lat="44.30397" lon="3.65519">
        <ele>674.318</ele>
        <time>2011-09-17T08:19:02Z</time>
      </trkpt>
      <trkpt lat="44.30403" lon="3.65533">
        <ele>674.824</ele>
        <time>2011-09-17T08:19:12Z</time>
      </trkpt>
      <trkpt lat="44.30408" lon="3.65545">
        <ele>674.886</ele>
        <time>2011-09-17T08:19:22Z</time>
      </trkpt>
      <trkpt lat="44.30417" lon="3.65556">
        <ele>674.823</ele>
        <time>2011-09-17T08:19:32Z</time>
      </trkpt>
      <trkpt lat="44.30429" lon="3.65567">
        <ele>674.488</ele>
        <time>2011-09-17T08:19:42Z</time>
      </trkpt>
      <trkpt lat="44.30437" lon="3.65577">
        <ele>674.577</ele>
        <time>2011-09-17T08:19:52Z</time>
      </trkpt>
      <trkpt lat="44.30444" lon="3.65588">
        <ele>674.753</ele>
        <time>2011-09-17T08:20:02Z</time>
      </trkpt>
      <trkpt lat="44.30451" lon="3.65599">
        <ele>674.981</ele>
        <time>2011-09-17T08:20:12Z</time>
      </trkpt>
      <trkpt lat="44.30455" lon="3.65612">
        <ele>673.727</ele>
        <time>2011-09-17T08:20:22Z</time>
      </trkpt>
      <trkpt lat="44.30459" lon="3.65627">
        <ele>672.651</ele>
        <time>2011-09-17T08:20:32Z</time>
      </trkpt>
      <trkpt lat="44.30458" lon="3.65642">
        <ele>671.566</ele>
        <time>2011-09-17T08:20:42Z</time>
      </trkpt>
      <trkpt lat="44.30456" lon="3.6566">
        <ele>669.542</ele>
        <time>2011-09-17T08:20:52Z</time>
      </trkpt>
      <trkpt lat="44.30458" lon="3.65673">
        <ele>668.964</ele>
        <time>2011-09-17T08:21:02Z</time>
      </trkpt>
      <trkpt lat="44.30457" lon="3.65687">
        <ele>668.083</ele>
        <time>2011-09-17T08:21:12Z</time>
      </trkpt>
      <trkpt lat="44.30458" lon="3.65699">
        <ele>668.749</ele>
        <time>2011-09-17T08:21:22Z</time>
      </trkpt>
      <trkpt lat="44.3046" lon="3.65713">
        <ele>668.254</ele>
        <time>2011-09-17T08:21:32Z</time>
      </trkpt>
      <trkpt lat="44.30459" lon="3.65729">
        <ele>667.98</ele>
        <time>2011-09-17T08:21:42Z</time>
      </trkpt>
      <trkpt lat="44.30459" lon="3.6573">
        <ele>667.337</ele>
        <time>2011-09-17T08:21:52Z</time>
      </trkpt>
      <trkpt lat="44.30457" lon="3.6574">
        <ele>666.85</ele>
        <time>2011-09-17T08:22:02Z</time>
      </trkpt>
      <trkpt lat="44.30454" lon="3.65753">
        <ele>665.385</ele>
        <time>2011-09-17T08:22:12Z</time>
      </trkpt>
      <trkpt lat="44.30452" lon="3.65764">
        <ele>664.273</ele>
        <time>2011-09-17T08:22:22Z</time>
      </trkpt>
      <trkpt lat="44.30447" lon="3.65777">
        <ele>664.02</ele>
        <time>2011-09-17T08:22:32Z</time>
      </trkpt>
      <trkpt lat="44.30442" lon="3.65788">
        <ele>663.663</ele>
        <time>2011-09-17T08:22:42Z</time>
      </trkpt>
      <trkpt lat="44.30436" lon="3.65801">
        <ele>662.239</ele>
        <time>2011-09-17T08:22:52Z</time>
      </trkpt>
      <trkpt lat="44.30428" lon="3.6581">
        <ele>661.204</ele>
        <time>2011-09-17T08:23:02Z</time>
      </trkpt>
      <trkpt lat="44.30419" lon="3.65816">
        <ele>660.075</ele>
        <time>2011-09-17T08:23:12Z</time>
      </trkpt>
      <trkpt lat="44.30411" lon="3.65824">
        <ele>658.768</ele>
        <time>2011-09-17T08:23:22Z</time>
      </trkpt>
      <trkpt lat="44.30406" lon="3.65837">
        <ele>657.148</ele>
        <time>2011-09-17T08:23:32Z</time>
      </trkpt>
      <trkpt lat="44.30401" lon="3.65852">
        <ele>655.973</ele>
        <time>2011-09-17T08:23:42Z</time>
      </trkpt>
      <trkpt lat="44.30394" lon="3.65869">
        <ele>654.083</ele>
        <time>2011-09-17T08:23:52Z</time>
      </trkpt>
      <trkpt lat="44.30393" lon="3.65873">
        <ele>654.007</ele>
        <time>2011-09-17T08:24:02Z</time>
      </trkpt>
      <trkpt lat="44.30386" lon="3.65885">
        <ele>651.598</ele>
        <time>2011-09-17T08:24:12Z</time>
      </trkpt>
      <trkpt lat="44.30381" lon="3.65895">
        <ele>650.407</ele>
        <time>2011-09-17T08:24:22Z</time>
      </trkpt>
      <trkpt lat="44.30374" lon="3.65905">
        <ele>648.57</ele>
        <time>2011-09-17T08:24:32Z</time>
      </trkpt>
      <trkpt lat="44.30367" lon="3.65916">
        <ele>646.896</ele>
        <time>2011-09-17T08:24:42Z</time>
      </trkpt>
      <trkpt lat="44.3036" lon="3.65935">
        <ele>644.633</ele>
        <time>2011-09-17T08:24:52Z</time>
      </trkpt>
      <trkpt lat="44.30354" lon="3.65951">
        <ele>642.666</ele>
        <time>2011-09-17T08:25:02Z</time>
      </trkpt>
      <trkpt lat="44.30349" lon="3.65965">
        <ele>640.881</ele>
        <time>2011-09-17T08:25:12Z</time>
      </trkpt>
      <trkpt lat="44.30344" lon="3.6598">
        <ele>639.667</ele>
        <time>2011-09-17T08:25:22Z</time>
      </trkpt>
      <trkpt lat="44.3034" lon="3.65995">
        <ele>637.91</ele>
        <time>2011-09-17T08:25:32Z</time>
      </trkpt>
      <trkpt lat="44.30338" lon="3.66008">
        <ele>636.675</ele>
        <time>2011-09-17T08:25:42Z</time>
      </trkpt>
      <trkpt lat="44.30331" lon="3.66023">
        <ele>635.067</ele>
        <time>2011-09-17T08:25:52Z</time>
      </trkpt>
      <trkpt lat="44.30326" lon="3.66037">
        <ele>633.603</ele>
        <time>2011-09-17T08:26:02Z</time>
      </trkpt>
      <trkpt lat="44.3032" lon="3.66052">
        <ele>631.864</ele>
        <time>2011-09-17T08:26:12Z</time>
      </trkpt>
      <trkpt lat="44.30314" lon="3.66064">
        <ele>630.483</ele>
        <time>2011-09-17T08:26:22Z</time>
      </trkpt>
      <trkpt lat="44.30307" lon="3.66076">
        <ele>629.135</ele>
        <time>2011-09-17T08:26:32Z</time>
      </trkpt>
      <trkpt lat="44.30301" lon="3.66089">
        <ele>627.632</ele>
        <time>2011-09-17T08:26:42Z</time>
      </trkpt>
      <trkpt lat="44.30296" lon="3.66105">
        <ele>625.795</ele>
        <time>2011-09-17T08:26:52Z</time>
      </trkpt>
      <trkpt lat="44.30289" lon="3.66119">
        <ele>624.106</ele>
        <time>2011-09-17T08:27:02Z</time>
      </trkpt>
      <trkpt lat="44.30285" lon="3.66134">
        <ele>622.831</ele>
        <time>2011-09-17T08:27:12Z</time>
      </trkpt>
      <trkpt lat="44.30283" lon="3.66147">
        <ele>621.915</ele>
        <time>2011-09-17T08:27:22Z</time>
      </trkpt>
      <trkpt lat="44.30278" lon="3.66159">
        <ele>620.394</ele>
        <time>2011-09-17T08:27:32Z</time>
      </trkpt>
      <trkpt lat="44.30272" lon="3.66177">
        <ele>619.678</ele>
        <time>2011-09-17T08:27:42Z</time>
      </trkpt>
      <trkpt lat="44.30266" lon="3.66188">
        <ele>618.203</ele>
        <time>2011-09-17T08:27:52Z</time>
      </trkpt>
      <trkpt lat="44.30263" lon="3.66202">
        <ele>616.881</ele>
        <time>2011-09-17T08:28:02Z</time>
      </trkpt>
      <trkpt lat="44.30259" lon="3.6621">
        <ele>614.542</ele>
        <time>2011-09-17T08:28:12Z</time>
      </trkpt>
      <trkpt lat="44.30247" lon="3.66224">
        <ele>612.379</ele>
        <time>2011-09-17T08:28:22Z</time>
      </trkpt>
      <trkpt lat="44.3024" lon="3.66236">
        <ele>610.841</ele>
        <time>2011-09-17T08:28:32Z</time>
      </trkpt>
      <trkpt lat="44.30235" lon="3.66248">
        <ele>608.794</ele>
        <time>2011-09-17T08:28:42Z</time>
      </trkpt>
      <trkpt lat="44.30227" lon="3.66262">
        <ele>607.44</ele>
        <time>2011-09-17T08:28:52Z</time>
      </trkpt>
      <trkpt lat="44.30218" lon="3.66272">
        <ele>606.47</ele>
        <time>2011-09-17T08:29:02Z</time>
      </trkpt>
      <trkpt lat="44.30213" lon="3.66287">
        <ele>605.363</ele>
        <time>2011-09-17T08:29:12Z</time>
      </trkpt>
      <trkpt lat="44.30208" lon="3.663">
        <ele>604.275</ele>
        <time>2011-09-17T08:29:22Z</time>
      </trkpt>
      <trkpt lat="44.30213" lon="3.66304">
        <ele>602.523</ele>
        <time>2011-09-17T08:29:32Z</time>
      </trkpt>
      <trkpt lat="44.30226" lon="3.66306">
        <ele>601.06</ele>
        <time>2011-09-17T08:29:42Z</time>
      </trkpt>
      <trkpt lat="44.30236" lon="3.66299">
        <ele>600.201</ele>
        <time>2011-09-17T08:29:52Z</time>
      </trkpt>
      <trkpt lat="44.30246" lon="3.66291">
        <ele>599.072</ele>
        <time>2011-09-17T08:30:02Z</time>
      </trkpt>
      <trkpt lat="44.30252" lon="3.66288">
        <ele>599.217</ele>
        <time>2011-09-17T08:30:12Z</time>
      </trkpt>
      <trkpt lat="44.30252" lon="3.66287">
        <ele>599.041</ele>
        <time>2011-09-17T08:30:22Z</time>
      </trkpt>
      <trkpt lat="44.30256" lon="3.66288">
        <ele>598.962</ele>
        <time>2011-09-17T08:30:32Z</time>
      </trkpt>
      <trkpt lat="44.30258" lon="3.66288">
        <ele>598.915</ele>
        <time>2011-09-17T08:30:42Z</time>
      </trkpt>
      <trkpt lat="44.30257" lon="3.66288">
        <ele>599.187</ele>
        <time>2011-09-17T08:30:52Z</time>
      </trkpt>
      <trkpt lat="44.30257" lon="3.66287">
        <ele>598.648</ele>
        <time>2011-09-17T08:31:02Z</time>
      </trkpt>
      <trkpt lat="44.30258" lon="3.66279">
        <ele>598.55</ele>
        <time>2011-09-17T08:31:12Z</time>
      </trkpt>
      <trkpt lat="44.30259" lon="3.66282">
        <ele>598.886</ele>
        <time>2011-09-17T08:31:22Z</time>
      </trkpt>
      <trkpt lat="44.30256" lon="3.66285">
        <ele>599.083</ele>
        <time>2011-09-17T08:31:32Z</time>
      </trkpt>
      <trkpt lat="44.30256" lon="3.66284">
        <ele>598.956</ele>
        <time>2011-09-17T08:31:42Z</time>
      </trkpt>
      <trkpt lat="44.30254" lon="3.66288">
        <ele>598.678</ele>
        <time>2011-09-17T08:31:52Z</time>
      </trkpt>
      <trkpt lat="44.30252" lon="3.66303">
        <ele>598.552</ele>
        <time>2011-09-17T08:32:02Z</time>
      </trkpt>
      <trkpt lat="44.30245" lon="3.66316">
        <ele>598.367</ele>
        <time>2011-09-17T08:32:12Z</time>
      </trkpt>
      <trkpt lat="44.30239" lon="3.66325">
        <ele>598.645</ele>
        <time>2011-09-17T08:32:22Z</time>
      </trkpt>
      <trkpt lat="44.30232" lon="3.66333">
        <ele>598.701</ele>
        <time>2011-09-17T08:32:32Z</time>
      </trkpt>
      <trkpt lat="44.30223" lon="3.66343">
        <ele>598.157</ele>
        <time>2011-09-17T08:32:42Z</time>
      </trkpt>
      <trkpt lat="44.30216" lon="3.66349">
        <ele>597.956</ele>
        <time>2011-09-17T08:32:52Z</time>
      </trkpt>
      <trkpt lat="44.30215" lon="3.6635">
        <ele>598.544</ele>
        <time>2011-09-17T08:33:02Z</time>
      </trkpt>
      <trkpt lat="44.30215" lon="3.6635">
        <ele>598.481</ele>
        <time>2011-09-17T08:33:12Z</time>
      </trkpt>
      <trkpt lat="44.30215" lon="3.6635">
        <ele>598.407</ele>
        <time>2011-09-17T08:33:22Z</time>
      </trkpt>
      <trkpt lat="44.30215" lon="3.66349">
        <ele>598.534</ele>
        <time>2011-09-17T08:33:32Z</time>
      </trkpt>
      <trkpt lat="44.30215" lon="3.6635">
        <ele>598.329</ele>
        <time>2011-09-17T08:33:42Z</time>
      </trkpt>
      <trkpt lat="44.30215" lon="3.6635">
        <ele>598.538</ele>
        <time>2011-09-17T08:33:52Z</time>
      </trkpt>
      <trkpt lat="44.30212" lon="3.66348">
        <ele>598.437</ele>
        <time>2011-09-17T08:34:02Z</time>
      </trkpt>
      <trkpt lat="44.30203" lon="3.66354">
        <ele>598.28</ele>
        <time>2011-09-17T08:34:12Z</time>
      </trkpt>
      <trkpt lat="44.30192" lon="3.66358">
        <ele>597.933</ele>
        <time>2011-09-17T08:34:22Z</time>
      </trkpt>
      <trkpt lat="44.30181" lon="3.66358">
        <ele>597.726</ele>
        <time>2011-09-17T08:34:32Z</time>
      </trkpt>
      <trkpt lat="44.30171" lon="3.66351">
        <ele>597.335</ele>
        <time>2011-09-17T08:34:42Z</time>
      </trkpt>
      <trkpt lat="44.30161" lon="3.66347">
        <ele>597.011</ele>
        <time>2011-09-17T08:34:52Z</time>
      </trkpt>
      <trkpt lat="44.30152" lon="3.66343">
        <ele>596.937</ele>
        <time>2011-09-17T08:35:02Z</time>
      </trkpt>
      <trkpt lat="44.30144" lon="3.66351">
        <ele>597.083</ele>
        <time>2011-09-17T08:35:12Z</time>
      </trkpt>
      <trkpt lat="44.30139" lon="3.66359">
        <ele>597.373</ele>
        <time>2011-09-17T08:35:22Z</time>
      </trkpt>
      <trkpt lat="44.30135" lon="3.66373">
        <ele>597.685</ele>
        <time>2011-09-17T08:35:32Z</time>
      </trkpt>
      <trkpt lat="44.30128" lon="3.66386">
        <ele>598.134</ele>
        <time>2011-09-17T08:35:42Z</time>
      </trkpt>
      <trkpt lat="44.30122" lon="3.664">
        <ele>598.07</ele>
        <time>2011-09-17T08:35:52Z</time>
      </trkpt>
      <trkpt lat="44.30117" lon="3.66401">
        <ele>598.781</ele>
        <time>2011-09-17T08:36:02Z</time>
      </trkpt>
      <trkpt lat="44.30103" lon="3.66399">
        <ele>599.205</ele>
        <time>2011-09-17T08:36:12Z</time>
      </trkpt>
      <trkpt lat="44.30101" lon="3.66402">
        <ele>600.256</ele>
        <time>2011-09-17T08:36:22Z</time>
      </trkpt>
      <trkpt lat="44.301" lon="3.66409">
        <ele>602.52</ele>
        <time>2011-09-17T08:36:32Z</time>
      </trkpt>
      <trkpt lat="44.30096" lon="3.66415">
        <ele>604.287</ele>
        <time>2011-09-17T08:36:42Z</time>
      </trkpt>
      <trkpt lat="44.30097" lon="3.66416">
        <ele>606.797</ele>
        <time>2011-09-17T08:36:52Z</time>
      </trkpt>
      <trkpt lat="44.30089" lon="3.66411">
        <ele>608.473</ele>
        <time>2011-09-17T08:37:02Z</time>
      </trkpt>
      <trkpt lat="44.30082" lon="3.6641">
        <ele>610.833</ele>
        <time>2011-09-17T08:37:12Z</time>
      </trkpt>
      <trkpt lat="44.30069" lon="3.66404">
        <ele>613.015</ele>
        <time>2011-09-17T08:37:22Z</time>
      </trkpt>
      <trkpt lat="44.30063" lon="3.66409">
        <ele>614.408</ele>
        <time>2011-09-17T08:37:32Z</time>
      </trkpt>
      <trkpt lat="44.30055" lon="3.66416">
        <ele>615.339</ele>
        <time>2011-09-17T08:37:42Z</time>
      </trkpt>
      <trkpt lat="44.30052" lon="3.66425">
        <ele>615.963</ele>
        <time>2011-09-17T08:37:52Z</time>
      </trkpt>
      <trkpt lat="44.30057" lon="3.66432">
        <ele>616.865</ele>
        <time>2011-09-17T08:38:02Z</time>
      </trkpt>
      <trkpt lat="44.30057" lon="3.66431">
        <ele>617.045</ele>
        <time>2011-09-17T08:38:12Z</time>
      </trkpt>
      <trkpt lat="44.30057" lon="3.66432">
        <ele>616.822</ele>
        <time>2011-09-17T08:38:22Z</time>
      </trkpt>
      <trkpt lat="44.30057" lon="3.66438">
        <ele>617.462</ele>
        <time>2011-09-17T08:38:32Z</time>
      </trkpt>
      <trkpt lat="44.30052" lon="3.66431">
        <ele>616.742</ele>
        <time>2011-09-17T08:38:42Z</time>
      </trkpt>
      <trkpt lat="44.30047" lon="3.66417">
        <ele>616.158</ele>
        <time>2011-09-17T08:38:52Z</time>
      </trkpt>
      <trkpt lat="44.30052" lon="3.66406">
        <ele>615.313</ele>
        <time>2011-09-17T08:39:02Z</time>
      </trkpt>
      <trkpt lat="44.30059" lon="3.66404">
        <ele>614.039</ele>
        <time>2011-09-17T08:39:12Z</time>
      </trkpt>
      <trkpt lat="44.30066" lon="3.66406">
        <ele>612.767</ele>
        <time>2011-09-17T08:39:22Z</time>
      </trkpt>
      <trkpt lat="44.30073" lon="3.66407">
        <ele>610.445</ele>
        <time>2011-09-17T08:39:32Z</time>
      </trkpt>
      <trkpt lat="44.30084" lon="3.66406">
        <ele>608.412</ele>
        <time>2011-09-17T08:39:42Z</time>
      </trkpt>
      <trkpt lat="44.30089" lon="3.66413">
        <ele>605.393</ele>
        <time>2011-09-17T08:39:52Z</time>
      </trkpt>
      <trkpt lat="44.30095" lon="3.66409">
        <ele>603.009</ele>
        <time>2011-09-17T08:40:02Z</time>
      </trkpt>
      <trkpt lat="44.30101" lon="3.66404">
        <ele>602.018</ele>
        <time>2011-09-17T08:40:12Z</time>
      </trkpt>
      <trkpt lat="44.30104" lon="3.66413">
        <ele>602.399</ele>
        <time>2011-09-17T08:40:22Z</time>
      </trkpt>
      <trkpt lat="44.3011" lon="3.66417">
        <ele>602.144</ele>
        <time>2011-09-17T08:40:32Z</time>
      </trkpt>
      <trkpt lat="44.30117" lon="3.66427">
        <ele>601.909</ele>
        <time>2011-09-17T08:40:42Z</time>
      </trkpt>
      <trkpt lat="44.30125" lon="3.66436">
        <ele>602.036</ele>
        <time>2011-09-17T08:40:52Z</time>
      </trkpt>
      <trkpt lat="44.30134" lon="3.66446">
        <ele>602.287</ele>
        <time>2011-09-17T08:41:02Z</time>
      </trkpt>
      <trkpt lat="44.30145" lon="3.66455">
        <ele>602.58</ele>
        <time>2011-09-17T08:41:12Z</time>
      </trkpt>
      <trkpt lat="44.30153" lon="3.66459">
        <ele>602.646</ele>
        <time>2011-09-17T08:41:22Z</time>
      </trkpt>
      <trkpt lat="44.30153" lon="3.66459">
        <ele>602.72</ele>
        <time>2011-09-17T08:41:32Z</time>
      </trkpt>
      <trkpt lat="44.30153" lon="3.66459">
        <ele>602.848</ele>
        <time>2011-09-17T08:41:42Z</time>
      </trkpt>
      <trkpt lat="44.30152" lon="3.6646">
        <ele>602.577</ele>
        <time>2011-09-17T08:41:52Z</time>
      </trkpt>
      <trkpt lat="44.30147" lon="3.66454">
        <ele>602.967</ele>
        <time>2011-09-17T08:42:02Z</time>
      </trkpt>
      <trkpt lat="44.30131" lon="3.66445">
        <ele>602.696</ele>
        <time>2011-09-17T08:42:12Z</time>
      </trkpt>
      <trkpt lat="44.30117" lon="3.66434">
        <ele>602.904</ele>
        <time>2011-09-17T08:42:22Z</time>
      </trkpt>
      <trkpt lat="44.30107" lon="3.66423">
        <ele>602.808</ele>
        <time>2011-09-17T08:42:32Z</time>
      </trkpt>
      <trkpt lat="44.30101" lon="3.66413">
        <ele>602.942</ele>
        <time>2011-09-17T08:42:42Z</time>
      </trkpt>
      <trkpt lat="44.30096" lon="3.664">
        <ele>602.359</ele>
        <time>2011-09-17T08:42:52Z</time>
      </trkpt>
      <trkpt lat="44.30092" lon="3.66387">
        <ele>600.495</ele>
        <time>2011-09-17T08:43:02Z</time>
      </trkpt>
      <trkpt lat="44.30086" lon="3.66378">
        <ele>600.879</ele>
        <time>2011-09-17T08:43:12Z</time>
      </trkpt>
      <trkpt lat="44.3007" lon="3.66377">
        <ele>601.479</ele>
        <time>2011-09-17T08:43:22Z</time>
      </trkpt>
      <trkpt lat="44.30059" lon="3.66377">
        <ele>601.982</ele>
        <time>2011-09-17T08:43:32Z</time>
      </trkpt>
      <trkpt lat="44.30052" lon="3.66377">
        <ele>602.188</ele>
        <time>2011-09-17T08:43:42Z</time>
      </trkpt>
      <trkpt lat="44.30039" lon="3.6638">
        <ele>602.877</ele>
        <time>2011-09-17T08:43:52Z</time>
      </trkpt>
      <trkpt lat="44.30031" lon="3.66386">
        <ele>603.353</ele>
        <time>2011-09-17T08:44:02Z</time>
      </trkpt>
      <trkpt lat="44.30025" lon="3.66391">
        <ele>603.814</ele>
        <time>2011-09-17T08:44:12Z</time>
      </trkpt>
      <trkpt lat="44.30018" lon="3.66398">
        <ele>603.833</ele>
        <time>2011-09-17T08:44:22Z</time>
      </trkpt>
      <trkpt lat="44.30017" lon="3.66398">
        <ele>604.114</ele>
        <time>2011-09-17T08:44:32Z</time>
      </trkpt>
      <trkpt lat="44.30017" lon="3.66398">
        <ele>604.288</ele>
        <time>2011-09-17T08:44:42Z</time>
      </trkpt>
      <trkpt lat="44.30012" lon="3.66403">
        <ele>604.121</ele>
        <time>2011-09-17T08:44:52Z</time>
      </trkpt>
      <trkpt lat="44.30003" lon="3.66409">
        <ele>603.908</ele>
        <time>2011-09-17T08:45:02Z</time>
      </trkpt>
      <trkpt lat="44.29997" lon="3.66418">
        <ele>604.435</ele>
        <time>2011-09-17T08:45:12Z</time>
      </trkpt>
      <trkpt lat="44.29992" lon="3.66421">
        <ele>604.124</ele>
        <time>2011-09-17T08:45:22Z</time>
      </trkpt>
      <trkpt lat="44.29977" lon="3.66425">
        <ele>604.392</ele>
        <time>2011-09-17T08:45:32Z</time>
      </trkpt>
      <trkpt lat="44.29965" lon="3.66432">
        <ele>604.659</ele>
        <time>2011-09-17T08:45:42Z</time>
      </trkpt>
      <trkpt lat="44.29953" lon="3.66439">
        <ele>604.669</ele>
        <time>2011-09-17T08:45:52Z</time>
      </trkpt>
      <trkpt lat="44.29939" lon="3.6645">
        <ele>604.471</ele>
        <time>2011-09-17T08:46:02Z</time>
      </trkpt>
      <trkpt lat="44.29921" lon="3.66458">
        <ele>605.15</ele>
        <time>2011-09-17T08:46:12Z</time>
      </trkpt>
      <trkpt lat="44.29913" lon="3.66468">
        <ele>605.216</ele>
        <time>2011-09-17T08:46:22Z</time>
      </trkpt>
      <trkpt lat="44.29906" lon="3.66477">
        <ele>604.577</ele>
        <time>2011-09-17T08:46:32Z</time>
      </trkpt>
      <trkpt lat="44.29898" lon="3.66485">
        <ele>604.873</ele>
        <time>2011-09-17T08:46:42Z</time>
      </trkpt>
      <trkpt lat="44.29893" lon="3.66491">
        <ele>604.187</ele>
        <time>2011-09-17T08:46:52Z</time>
      </trkpt>
      <trkpt lat="44.29878" lon="3.66496">
        <ele>604.375</ele>
        <time>2011-09-17T08:47:02Z</time>
      </trkpt>
      <trkpt lat="44.29866" lon="3.66498">
        <ele>604.888</ele>
        <time>2011-09-17T08:47:12Z</time>
      </trkpt>
      <trkpt lat="44.29864" lon="3.66502">
        <ele>605.356</ele>
        <time>2011-09-17T08:47:22Z</time>
      </trkpt>
      <trkpt lat="44.29855" lon="3.66512">
        <ele>605.104</ele>
        <time>2011-09-17T08:47:32Z</time>
      </trkpt>
      <trkpt lat="44.29846" lon="3.66522">
        <ele>604.969</ele>
        <time>2011-09-17T08:47:42Z</time>
      </trkpt>
      <trkpt lat="44.29836" lon="3.66532">
        <ele>604.904</ele>
        <time>2011-09-17T08:47:52Z</time>
      </trkpt>
      <trkpt lat="44.29823" lon="3.66544">
        <ele>605.037</ele>
        <time>2011-09-17T08:48:02Z</time>
      </trkpt>
      <trkpt lat="44.29807" lon="3.66553">
        <ele>604.722</ele>
        <time>2011-09-17T08:48:12Z</time>
      </trkpt>
      <trkpt lat="44.29802" lon="3.66567">
        <ele>604.973</ele>
        <time>2011-09-17T08:48:22Z</time>
      </trkpt>
      <trkpt lat="44.29796" lon="3.66585">
        <ele>604.768</ele>
        <time>2011-09-17T08:48:32Z</time>
      </trkpt>
      <trkpt lat="44.29789" lon="3.66599">
        <ele>605.299</ele>
        <time>2011-09-17T08:48:42Z</time>
      </trkpt>
      <trkpt lat="44.29787" lon="3.66614">
        <ele>605.046</ele>
        <time>2011-09-17T08:48:52Z</time>
      </trkpt>
      <trkpt lat="44.29783" lon="3.66631">
        <ele>604.614</ele>
        <time>2011-09-17T08:49:02Z</time>
      </trkpt>
      <trkpt lat="44.29786" lon="3.6665">
        <ele>605.222</ele>
        <time>2011-09-17T08:49:12Z</time>
      </trkpt>
      <trkpt lat="44.29785" lon="3.66666">
        <ele>605.215</ele>
        <time>2011-09-17T08:49:22Z</time>
      </trkpt>
      <trkpt lat="44.29784" lon="3.66682">
        <ele>605.006</ele>
        <time>2011-09-17T08:49:32Z</time>
      </trkpt>
      <trkpt lat="44.29779" lon="3.66698">
        <ele>605.052</ele>
        <time>2011-09-17T08:49:42Z</time>
      </trkpt>
      <trkpt lat="44.29784" lon="3.66719">
        <ele>605.298</ele>
        <time>2011-09-17T08:49:52Z</time>
      </trkpt>
      <trkpt lat="44.29785" lon="3.66739">
        <ele>605.317</ele>
        <time>2011-09-17T08:50:02Z</time>
      </trkpt>
      <trkpt lat="44.29781" lon="3.66751">
        <ele>605.891</ele>
        <time>2011-09-17T08:50:12Z</time>
      </trkpt>
      <trkpt lat="44.29777" lon="3.66771">
        <ele>605.647</ele>
        <time>2011-09-17T08:50:22Z</time>
      </trkpt>
      <trkpt lat="44.29771" lon="3.66786">
        <ele>605.629</ele>
        <time>2011-09-17T08:50:32Z</time>
      </trkpt>
      <trkpt lat="44.29769" lon="3.66801">
        <ele>605.727</ele>
        <time>2011-09-17T08:50:42Z</time>
      </trkpt>
      <trkpt lat="44.29773" lon="3.66819">
        <ele>605.767</ele>
        <time>2011-09-17T08:50:52Z</time>
      </trkpt>
      <trkpt lat="44.29773" lon="3.6684">
        <ele>605.999</ele>
        <time>2011-09-17T08:51:02Z</time>
      </trkpt>
      <trkpt lat="44.29768" lon="3.6686">
        <ele>605.871</ele>
        <time>2011-09-17T08:51:12Z</time>
      </trkpt>
      <trkpt lat="44.29767" lon="3.66878">
        <ele>605.989</ele>
        <time>2011-09-17T08:51:22Z</time>
      </trkpt>
      <trkpt lat="44.29768" lon="3.66894">
        <ele>606.217</ele>
        <time>2011-09-17T08:51:32Z</time>
      </trkpt>
      <trkpt lat="44.29773" lon="3.66913">
        <ele>606.416</ele>
        <time>2011-09-17T08:51:42Z</time>
      </trkpt>
      <trkpt lat="44.29767" lon="3.66928">
        <ele>606.59</ele>
        <time>2011-09-17T08:51:52Z</time>
      </trkpt>
      <trkpt lat="44.29772" lon="3.66946">
        <ele>606.645</ele>
        <time>2011-09-17T08:52:02Z</time>
      </trkpt>
      <trkpt lat="44.29775" lon="3.66963">
        <ele>607.01</ele>
        <time>2011-09-17T08:52:12Z</time>
      </trkpt>
      <trkpt lat="44.29777" lon="3.66981">
        <ele>607.269</ele>
        <time>2011-09-17T08:52:22Z</time>
      </trkpt>
      <trkpt lat="44.2978" lon="3.66998">
        <ele>607.248</ele>
        <time>2011-09-17T08:52:32Z</time>
      </trkpt>
      <trkpt lat="44.29786" lon="3.67014">
        <ele>607.646</ele>
        <time>2011-09-17T08:52:42Z</time>
      </trkpt>
      <trkpt lat="44.29789" lon="3.6703">
        <ele>608.048</ele>
        <time>2011-09-17T08:52:52Z</time>
      </trkpt>
      <trkpt lat="44.29795" lon="3.67046">
        <ele>608.127</ele>
        <time>2011-09-17T08:53:02Z</time>
      </trkpt>
      <trkpt lat="44.29798" lon="3.67063">
        <ele>608.841</ele>
        <time>2011-09-17T08:53:12Z</time>
      </trkpt>
      <trkpt lat="44.29804" lon="3.67078">
        <ele>608.823</ele>
        <time>2011-09-17T08:53:22Z</time>
      </trkpt>
      <trkpt lat="44.29808" lon="3.67093">
        <ele>609.333</ele>
        <time>2011-09-17T08:53:32Z</time>
      </trkpt>
      <trkpt lat="44.29815" lon="3.6711">
        <ele>609.375</ele>
        <time>2011-09-17T08:53:42Z</time>
      </trkpt>
      <trkpt lat="44.29824" lon="3.67124">
        <ele>609.684</ele>
        <time>2011-09-17T08:53:52Z</time>
      </trkpt>
      <trkpt lat="44.29834" lon="3.67134">
        <ele>609.823</ele>
        <time>2011-09-17T08:54:02Z</time>
      </trkpt>
      <trkpt lat="44.29842" lon="3.67144">
        <ele>610</ele>
        <time>2011-09-17T08:54:12Z</time>
      </trkpt>
      <trkpt lat="44.29851" lon="3.67155">
        <ele>610.633</ele>
        <time>2011-09-17T08:54:22Z</time>
      </trkpt>
      <trkpt lat="44.29862" lon="3.67161">
        <ele>610.456</ele>
        <time>2011-09-17T08:54:32Z</time>
      </trkpt>
      <trkpt lat="44.29873" lon="3.6717">
        <ele>610.77</ele>
        <time>2011-09-17T08:54:42Z</time>
      </trkpt>
      <trkpt lat="44.29878" lon="3.67179">
        <ele>611.063</ele>
        <time>2011-09-17T08:54:52Z</time>
      </trkpt>
      <trkpt lat="44.29892" lon="3.67183">
        <ele>611.774</ele>
        <time>2011-09-17T08:55:02Z</time>
      </trkpt>
      <trkpt lat="44.29904" lon="3.67194">
        <ele>611.542</ele>
        <time>2011-09-17T08:55:12Z</time>
      </trkpt>
      <trkpt lat="44.2991" lon="3.67206">
        <ele>611.998</ele>
        <time>2011-09-17T08:55:22Z</time>
      </trkpt>
      <trkpt lat="44.29913" lon="3.67217">
        <ele>612.493</ele>
        <time>2011-09-17T08:55:32Z</time>
      </trkpt>
      <trkpt lat="44.29917" lon="3.67233">
        <ele>612.615</ele>
        <time>2011-09-17T08:55:42Z</time>
      </trkpt>
      <trkpt lat="44.29926" lon="3.67252">
        <ele>612.851</ele>
        <time>2011-09-17T08:55:52Z</time>
      </trkpt>
      <trkpt lat="44.29934" lon="3.67269">
        <ele>612.982</ele>
        <time>2011-09-17T08:56:02Z</time>
      </trkpt>
      <trkpt lat="44.29937" lon="3.67285">
        <ele>613.354</ele>
        <time>2011-09-17T08:56:12Z</time>
      </trkpt>
      <trkpt lat="44.29939" lon="3.673">
        <ele>613.94</ele>
        <time>2011-09-17T08:56:22Z</time>
      </trkpt>
      <trkpt lat="44.29945" lon="3.67317">
        <ele>614.063</ele>
        <time>2011-09-17T08:56:32Z</time>
      </trkpt>
      <trkpt lat="44.29946" lon="3.67335">
        <ele>614.331</ele>
        <time>2011-09-17T08:56:42Z</time>
      </trkpt>
      <trkpt lat="44.29944" lon="3.6735">
        <ele>614.255</ele>
        <time>2011-09-17T08:56:52Z</time>
      </trkpt>
      <trkpt lat="44.29943" lon="3.67367">
        <ele>614.809</ele>
        <time>2011-09-17T08:57:02Z</time>
      </trkpt>
      <trkpt lat="44.29941" lon="3.67384">
        <ele>614.941</ele>
        <time>2011-09-17T08:57:12Z</time>
      </trkpt>
      <trkpt lat="44.29942" lon="3.67404">
        <ele>615.3</ele>
        <time>2011-09-17T08:57:22Z</time>
      </trkpt>
      <trkpt lat="44.29946" lon="3.67422">
        <ele>615.753</ele>
        <time>2011-09-17T08:57:32Z</time>
      </trkpt>
      <trkpt lat="44.29946" lon="3.67437">
        <ele>616.084</ele>
        <time>2011-09-17T08:57:42Z</time>
      </trkpt>
      <trkpt lat="44.29944" lon="3.67451">
        <ele>616.458</ele>
        <time>2011-09-17T08:57:52Z</time>
      </trkpt>
      <trkpt lat="44.2994" lon="3.67465">
        <ele>616.591</ele>
        <time>2011-09-17T08:58:02Z</time>
      </trkpt>
      <trkpt lat="44.29936" lon="3.67483">
        <ele>616.827</ele>
        <time>2011-09-17T08:58:12Z</time>
      </trkpt>
      <trkpt lat="44.29939" lon="3.67501">
        <ele>617</ele>
        <time>2011-09-17T08:58:22Z</time>
      </trkpt>
      <trkpt lat="44.29949" lon="3.67519">
        <ele>617.26</ele>
        <time>2011-09-17T08:58:32Z</time>
      </trkpt>
      <trkpt lat="44.29949" lon="3.67538">
        <ele>618.071</ele>
        <time>2011-09-17T08:58:42Z</time>
      </trkpt>
      <trkpt lat="44.29952" lon="3.67556">
        <ele>618.083</ele>
        <time>2011-09-17T08:58:52Z</time>
      </trkpt>
      <trkpt lat="44.29955" lon="3.67574">
        <ele>618.309</ele>
        <time>2011-09-17T08:59:02Z</time>
      </trkpt>
      <trkpt lat="44.29962" lon="3.67591">
        <ele>618.576</ele>
        <time>2011-09-17T08:59:12Z</time>
      </trkpt>
      <trkpt lat="44.29967" lon="3.67605">
        <ele>619.178</ele>
        <time>2011-09-17T08:59:22Z</time>
      </trkpt>
      <trkpt lat="44.29975" lon="3.67624">
        <ele>619.232</ele>
        <time>2011-09-17T08:59:32Z</time>
      </trkpt>
      <trkpt lat="44.29977" lon="3.67644">
        <ele>619.639</ele>
        <time>2011-09-17T08:59:42Z</time>
      </trkpt>
      <trkpt lat="44.29985" lon="3.67659">
        <ele>619.834</ele>
        <time>2011-09-17T08:59:52Z</time>
      </trkpt>
      <trkpt lat="44.29991" lon="3.67671">
        <ele>619.919</ele>
        <time>2011-09-17T09:00:02Z</time>
      </trkpt>
      <trkpt lat="44.29998" lon="3.67684">
        <ele>620.27</ele>
        <time>2011-09-17T09:00:12Z</time>
      </trkpt>
      <trkpt lat="44.30005" lon="3.67695">
        <ele>620.463</ele>
        <time>2011-09-17T09:00:22Z</time>
      </trkpt>
      <trkpt lat="44.30014" lon="3.67709">
        <ele>620.915</ele>
        <time>2011-09-17T09:00:32Z</time>
      </trkpt>
      <trkpt lat="44.30019" lon="3.67723">
        <ele>621.23</ele>
        <time>2011-09-17T09:00:42Z</time>
      </trkpt>
      <trkpt lat="44.30032" lon="3.67739">
        <ele>621.428</ele>
        <time>2011-09-17T09:00:52Z</time>
      </trkpt>
      <trkpt lat="44.30037" lon="3.67758">
        <ele>621.757</ele>
        <time>2011-09-17T09:01:02Z</time>
      </trkpt>
      <trkpt lat="44.30038" lon="3.67773">
        <ele>622.249</ele>
        <time>2011-09-17T09:01:12Z</time>
      </trkpt>
      <trkpt lat="44.3004" lon="3.67791">
        <ele>621.992</ele>
        <time>2011-09-17T09:01:22Z</time>
      </trkpt>
      <trkpt lat="44.30043" lon="3.67797">
        <ele>621.956</ele>
        <time>2011-09-17T09:01:32Z</time>
      </trkpt>
      <trkpt lat="44.30046" lon="3.67816">
        <ele>622.291</ele>
        <time>2011-09-17T09:01:42Z</time>
      </trkpt>
      <trkpt lat="44.30043" lon="3.67836">
        <ele>622.434</ele>
        <time>2011-09-17T09:01:52Z</time>
      </trkpt>
      <trkpt lat="44.30038" lon="3.67853">
        <ele>622.793</ele>
        <time>2011-09-17T09:02:02Z</time>
      </trkpt>
      <trkpt lat="44.30033" lon="3.67862">
        <ele>622.617</ele>
        <time>2011-09-17T09:02:12Z</time>
      </trkpt>
      <trkpt lat="44.30024" lon="3.67874">
        <ele>622.822</ele>
        <time>2011-09-17T09:02:22Z</time>
      </trkpt>
      <trkpt lat="44.3002" lon="3.67887">
        <ele>623.242</ele>
        <time>2011-09-17T09:02:32Z</time>
      </trkpt>
      <trkpt lat="44.30015" lon="3.67899">
        <ele>623.358</ele>
        <time>2011-09-17T09:02:42Z</time>
      </trkpt>
      <trkpt lat="44.30006" lon="3.67912">
        <ele>623.413</ele>
        <time>2011-09-17T09:02:52Z</time>
      </trkpt>
      <trkpt lat="44.30001" lon="3.67926">
        <ele>623.746</ele>
        <time>2011-09-17T09:03:02Z</time>
      </trkpt>
      <trkpt lat="44.29991" lon="3.67936">
        <ele>624.023</ele>
        <time>2011-09-17T09:03:12Z</time>
      </trkpt>
      <trkpt lat="44.29984" lon="3.67951">
        <ele>624.409</ele>
        <time>2011-09-17T09:03:22Z</time>
      </trkpt>
      <trkpt lat="44.29974" lon="3.67964">
        <ele>624.938</ele>
        <time>2011-09-17T09:03:32Z</time>
      </trkpt>
      <trkpt lat="44.2997" lon="3.67976">
        <ele>624.843</ele>
        <time>2011-09-17T09:03:42Z</time>
      </trkpt>
      <trkpt lat="44.29959" lon="3.67989">
        <ele>625.199</ele>
        <time>2011-09-17T09:03:52Z</time>
      </trkpt>
      <trkpt lat="44.29954" lon="3.68003">
        <ele>625.503</ele>
        <time>2011-09-17T09:04:02Z</time>
      </trkpt>
      <trkpt lat="44.29944" lon="3.68016">
        <ele>625.815</ele>
        <time>2011-09-17T09:04:12Z</time>
      </trkpt>
      <trkpt lat="44.29941" lon="3.68023">
        <ele>625.91</ele>
        <time>2011-09-17T09:04:22Z</time>
      </trkpt>
      <trkpt lat="44.29944" lon="3.68024">
        <ele>626.153</ele>
        <time>2011-09-17T09:04:32Z</time>
      </trkpt>
      <trkpt lat="44.29948" lon="3.68013">
        <ele>626.335</ele>
        <time>2011-09-17T09:04:42Z</time>
      </trkpt>
      <trkpt lat="44.29945" lon="3.6802">
        <ele>626.552</ele>
        <time>2011-09-17T09:04:52Z</time>
      </trkpt>
      <trkpt lat="44.29932" lon="3.68053">
        <ele>626.645</ele>
        <time>2011-09-17T09:05:02Z</time>
      </trkpt>
      <trkpt lat="44.29916" lon="3.68099">
        <ele>626.967</ele>
        <time>2011-09-17T09:05:12Z</time>
      </trkpt>
      <trkpt lat="44.29922" lon="3.68101">
        <ele>627.26</ele>
        <time>2011-09-17T09:05:22Z</time>
      </trkpt>
      <trkpt lat="44.29919" lon="3.68108">
        <ele>627.509</ele>
        <time>2011-09-17T09:05:32Z</time>
      </trkpt>
      <trkpt lat="44.29915" lon="3.68123">
        <ele>627.596</ele>
        <time>2011-09-17T09:05:42Z</time>
      </trkpt>
      <trkpt lat="44.2991" lon="3.68138">
        <ele>627.683</ele>
        <time>2011-09-17T09:05:52Z</time>
      </trkpt>
      <trkpt lat="44.2991" lon="3.68154">
        <ele>627.902</ele>
        <time>2011-09-17T09:06:02Z</time>
      </trkpt>
      <trkpt lat="44.29905" lon="3.68169">
        <ele>628.367</ele>
        <time>2011-09-17T09:06:12Z</time>
      </trkpt>
      <trkpt lat="44.29901" lon="3.68182">
        <ele>628.846</ele>
        <time>2011-09-17T09:06:22Z</time>
      </trkpt>
      <trkpt lat="44.29898" lon="3.68197">
        <ele>628.418</ele>
        <time>2011-09-17T09:06:32Z</time>
      </trkpt>
      <trkpt lat="44.29895" lon="3.68209">
        <ele>628.925</ele>
        <time>2011-09-17T09:06:42Z</time>
      </trkpt>
      <trkpt lat="44.2989" lon="3.68224">
        <ele>628.994</ele>
        <time>2011-09-17T09:06:52Z</time>
      </trkpt>
      <trkpt lat="44.29883" lon="3.68237">
        <ele>629.046</ele>
        <time>2011-09-17T09:07:02Z</time>
      </trkpt>
      <trkpt lat="44.29875" lon="3.68251">
        <ele>629.482</ele>
        <time>2011-09-17T09:07:12Z</time>
      </trkpt>
      <trkpt lat="44.29869" lon="3.68265">
        <ele>629.659</ele>
        <time>2011-09-17T09:07:22Z</time>
      </trkpt>
      <trkpt lat="44.29868" lon="3.68282">
        <ele>629.678</ele>
        <time>2011-09-17T09:07:32Z</time>
      </trkpt>
      <trkpt lat="44.2986" lon="3.68295">
        <ele>630.032</ele>
        <time>2011-09-17T09:07:42Z</time>
      </trkpt>
      <trkpt lat="44.29856" lon="3.68306">
        <ele>630.36</ele>
        <time>2011-09-17T09:07:52Z</time>
      </trkpt>
      <trkpt lat="44.29849" lon="3.68318">
        <ele>630.621</ele>
        <time>2011-09-17T09:08:02Z</time>
      </trkpt>
      <trkpt lat="44.29841" lon="3.68324">
        <ele>630.357</ele>
        <time>2011-09-17T09:08:12Z</time>
      </trkpt>
      <trkpt lat="44.29844" lon="3.68325">
        <ele>630.814</ele>
        <time>2011-09-17T09:08:22Z</time>
      </trkpt>
      <trkpt lat="44.29844" lon="3.68325">
        <ele>630.925</ele>
        <time>2011-09-17T09:08:32Z</time>
      </trkpt>
      <trkpt lat="44.29841" lon="3.68326">
        <ele>630.624</ele>
        <time>2011-09-17T09:08:42Z</time>
      </trkpt>
      <trkpt lat="44.29831" lon="3.68333">
        <ele>630.907</ele>
        <time>2011-09-17T09:08:52Z</time>
      </trkpt>
      <trkpt lat="44.2982" lon="3.68341">
        <ele>631.131</ele>
        <time>2011-09-17T09:09:02Z</time>
      </trkpt>
      <trkpt lat="44.29811" lon="3.68351">
        <ele>631.388</ele>
        <time>2011-09-17T09:09:12Z</time>
      </trkpt>
      <trkpt lat="44.29803" lon="3.68362">
        <ele>631.393</ele>
        <time>2011-09-17T09:09:22Z</time>
      </trkpt>
      <trkpt lat="44.29792" lon="3.68367">
        <ele>631.721</ele>
        <time>2011-09-17T09:09:32Z</time>
      </trkpt>
      <trkpt lat="44.29782" lon="3.68372">
        <ele>632.051</ele>
        <time>2011-09-17T09:09:42Z</time>
      </trkpt>
      <trkpt lat="44.29771" lon="3.6838">
        <ele>632.149</ele>
        <time>2011-09-17T09:09:52Z</time>
      </trkpt>
      <trkpt lat="44.2976" lon="3.68387">
        <ele>632.022</ele>
        <time>2011-09-17T09:10:02Z</time>
      </trkpt>
      <trkpt lat="44.29749" lon="3.68391">
        <ele>632.471</ele>
        <time>2011-09-17T09:10:12Z</time>
      </trkpt>
      <trkpt lat="44.29738" lon="3.68392">
        <ele>632.463</ele>
        <time>2011-09-17T09:10:22Z</time>
      </trkpt>
      <trkpt lat="44.29728" lon="3.68393">
        <ele>633.013</ele>
        <time>2011-09-17T09:10:32Z</time>
      </trkpt>
      <trkpt lat="44.29717" lon="3.68392">
        <ele>633.322</ele>
        <time>2011-09-17T09:10:42Z</time>
      </trkpt>
      <trkpt lat="44.29709" lon="3.68395">
        <ele>633.869</ele>
        <time>2011-09-17T09:10:52Z</time>
      </trkpt>
      <trkpt lat="44.29693" lon="3.68395">
        <ele>633.499</ele>
        <time>2011-09-17T09:11:02Z</time>
      </trkpt>
      <trkpt lat="44.2968" lon="3.68395">
        <ele>633.98</ele>
        <time>2011-09-17T09:11:12Z</time>
      </trkpt>
      <trkpt lat="44.29672" lon="3.68403">
        <ele>634.083</ele>
        <time>2011-09-17T09:11:22Z</time>
      </trkpt>
      <trkpt lat="44.29657" lon="3.68409">
        <ele>634.114</ele>
        <time>2011-09-17T09:11:32Z</time>
      </trkpt>
      <trkpt lat="44.29646" lon="3.68412">
        <ele>634.672</ele>
        <time>2011-09-17T09:11:42Z</time>
      </trkpt>
      <trkpt lat="44.29633" lon="3.68414">
        <ele>634.598</ele>
        <time>2011-09-17T09:11:52Z</time>
      </trkpt>
      <trkpt lat="44.29622" lon="3.68417">
        <ele>634.989</ele>
        <time>2011-09-17T09:12:02Z</time>
      </trkpt>
      <trkpt lat="44.2961" lon="3.68423">
        <ele>635.185</ele>
        <time>2011-09-17T09:12:12Z</time>
      </trkpt>
      <trkpt lat="44.29601" lon="3.68418">
        <ele>635.335</ele>
        <time>2011-09-17T09:12:22Z</time>
      </trkpt>
      <trkpt lat="44.29596" lon="3.68425">
        <ele>635.327</ele>
        <time>2011-09-17T09:12:32Z</time>
      </trkpt>
      <trkpt lat="44.29585" lon="3.68418">
        <ele>636.112</ele>
        <time>2011-09-17T09:12:42Z</time>
      </trkpt>
      <trkpt lat="44.29573" lon="3.68408">
        <ele>636.411</ele>
        <time>2011-09-17T09:12:52Z</time>
      </trkpt>
      <trkpt lat="44.29562" lon="3.684">
        <ele>636.54</ele>
        <time>2011-09-17T09:13:02Z</time>
      </trkpt>
      <trkpt lat="44.29553" lon="3.68392">
        <ele>636.796</ele>
        <time>2011-09-17T09:13:12Z</time>
      </trkpt>
      <trkpt lat="44.29544" lon="3.68387">
        <ele>636.852</ele>
        <time>2011-09-17T09:13:22Z</time>
      </trkpt>
      <trkpt lat="44.29567" lon="3.68374">
        <ele>637.354</ele>
        <time>2011-09-17T09:13:32Z</time>
      </trkpt>
      <trkpt lat="44.29596" lon="3.68324">
        <ele>637.51</ele>
        <time>2011-09-17T09:13:42Z</time>
      </trkpt>
      <trkpt lat="44.29607" lon="3.68321">
        <ele>637.629</ele>
        <time>2011-09-17T09:13:52Z</time>
      </trkpt>
      <trkpt lat="44.29617" lon="3.68318">
        <ele>637.774</ele>
        <time>2011-09-17T09:14:02Z</time>
      </trkpt>
      <trkpt lat="44.29628" lon="3.68315">
        <ele>638.141</ele>
        <time>2011-09-17T09:14:12Z</time>
      </trkpt>
    </trkseg>
  </trk>
  <trk>
    <name><![CDATA[ACTIVE LOG111413]]></name>
    <trkseg>
      <trkpt lat="44.29596" lon="3.68324">
        <ele>638.038</ele>
        <time>2011-09-17T09:14:13Z</time>
      </trkpt>
      <trkpt lat="44.29596" lon="3.68324">
        <ele>638.791</ele>
        <time>2011-09-17T09:14:23Z</time>
      </trkpt>
      <trkpt lat="44.29596" lon="3.68324">
        <ele>639.069</ele>
        <time>2011-09-17T09:14:33Z</time>
      </trkpt>
    </trkseg>
  </trk>
  <trk>
    <name><![CDATA[ACTIVE LOG111437]]></name>
    <trkseg>
      <trkpt lat="44.29462" lon="3.68392">
        <ele>638.765</ele>
        <time>2011-09-17T09:14:37Z</time>
      </trkpt>
      <trkpt lat="44.29442" lon="3.684">
        <ele>638.997</ele>
        <time>2011-09-17T09:14:47Z</time>
      </trkpt>
      <trkpt lat="44.29433" lon="3.68409">
        <ele>639.589</ele>
        <time>2011-09-17T09:14:57Z</time>
      </trkpt>
      <trkpt lat="44.29422" lon="3.68419">
        <ele>639.425</ele>
        <time>2011-09-17T09:15:07Z</time>
      </trkpt>
      <trkpt lat="44.29413" lon="3.68432">
        <ele>639.748</ele>
        <time>2011-09-17T09:15:17Z</time>
      </trkpt>
      <trkpt lat="44.29409" lon="3.68437">
        <ele>639.904</ele>
        <time>2011-09-17T09:15:27Z</time>
      </trkpt>
      <trkpt lat="44.29397" lon="3.68446">
        <ele>640.033</ele>
        <time>2011-09-17T09:15:37Z</time>
      </trkpt>
      <trkpt lat="44.29384" lon="3.68451">
        <ele>640.395</ele>
        <time>2011-09-17T09:15:47Z</time>
      </trkpt>
      <trkpt lat="44.29373" lon="3.68458">
        <ele>640.752</ele>
        <time>2011-09-17T09:15:57Z</time>
      </trkpt>
      <trkpt lat="44.29361" lon="3.68463">
        <ele>641.058</ele>
        <time>2011-09-17T09:16:07Z</time>
      </trkpt>
      <trkpt lat="44.29351" lon="3.68466">
        <ele>641.394</ele>
        <time>2011-09-17T09:16:17Z</time>
      </trkpt>
      <trkpt lat="44.29339" lon="3.68469">
        <ele>641.677</ele>
        <time>2011-09-17T09:16:27Z</time>
      </trkpt>
      <trkpt lat="44.29325" lon="3.6847">
        <ele>642.107</ele>
        <time>2011-09-17T09:16:37Z</time>
      </trkpt>
      <trkpt lat="44.2931" lon="3.68471">
        <ele>642.469</ele>
        <time>2011-09-17T09:16:47Z</time>
      </trkpt>
      <trkpt lat="44.29296" lon="3.68478">
        <ele>642.826</ele>
        <time>2011-09-17T09:16:57Z</time>
      </trkpt>
      <trkpt lat="44.29287" lon="3.68487">
        <ele>643.014</ele>
        <time>2011-09-17T09:17:07Z</time>
      </trkpt>
      <trkpt lat="44.29277" lon="3.68493">
        <ele>643.659</ele>
        <time>2011-09-17T09:17:17Z</time>
      </trkpt>
      <trkpt lat="44.29263" lon="3.685">
        <ele>643.923</ele>
        <time>2011-09-17T09:17:27Z</time>
      </trkpt>
      <trkpt lat="44.29257" lon="3.68499">
        <ele>643.41</ele>
        <time>2011-09-17T09:17:37Z</time>
      </trkpt>
      <trkpt lat="44.29258" lon="3.68499">
        <ele>643.695</ele>
        <time>2011-09-17T09:17:47Z</time>
      </trkpt>
      <trkpt lat="44.29262" lon="3.68499">
        <ele>643.688</ele>
        <time>2011-09-17T09:17:57Z</time>
      </trkpt>
      <trkpt lat="44.29257" lon="3.68497">
        <ele>643.138</ele>
        <time>2011-09-17T09:18:07Z</time>
      </trkpt>
      <trkpt lat="44.29257" lon="3.68496">
        <ele>643.254</ele>
        <time>2011-09-17T09:18:17Z</time>
      </trkpt>
      <trkpt lat="44.29257" lon="3.68496">
        <ele>643.65</ele>
        <time>2011-09-17T09:18:27Z</time>
      </trkpt>
      <trkpt lat="44.29257" lon="3.68496">
        <ele>643.432</ele>
        <time>2011-09-17T09:18:37Z</time>
      </trkpt>
      <trkpt lat="44.29257" lon="3.68496">
        <ele>643.681</ele>
        <time>2011-09-17T09:18:47Z</time>
      </trkpt>
      <trkpt lat="44.29257" lon="3.68496">
        <ele>643.411</ele>
        <time>2011-09-17T09:18:57Z</time>
      </trkpt>
      <trkpt lat="44.29257" lon="3.68496">
        <ele>643.774</ele>
        <time>2011-09-17T09:19:07Z</time>
      </trkpt>
      <trkpt lat="44.29257" lon="3.68496">
        <ele>644.059</ele>
        <time>2011-09-17T09:19:17Z</time>
      </trkpt>
      <trkpt lat="44.29257" lon="3.68496">
        <ele>643.91</ele>
        <time>2011-09-17T09:19:27Z</time>
      </trkpt>
      <trkpt lat="44.29257" lon="3.68496">
        <ele>643.983</ele>
        <time>2011-09-17T09:19:37Z</time>
      </trkpt>
      <trkpt lat="44.29257" lon="3.68496">
        <ele>644.29</ele>
        <time>2011-09-17T09:19:47Z</time>
      </trkpt>
      <trkpt lat="44.29256" lon="3.68496">
        <ele>644.091</ele>
        <time>2011-09-17T09:19:57Z</time>
      </trkpt>
      <trkpt lat="44.29256" lon="3.68496">
        <ele>644.496</ele>
        <time>2011-09-17T09:20:07Z</time>
      </trkpt>
      <trkpt lat="44.29256" lon="3.68496">
        <ele>644.247</ele>
        <time>2011-09-17T09:20:17Z</time>
      </trkpt>
      <trkpt lat="44.29255" lon="3.68496">
        <ele>644.623</ele>
        <time>2011-09-17T09:20:27Z</time>
      </trkpt>
      <trkpt lat="44.29255" lon="3.68496">
        <ele>644.076</ele>
        <time>2011-09-17T09:20:37Z</time>
      </trkpt>
      <trkpt lat="44.29255" lon="3.68496">
        <ele>644.67</ele>
        <time>2011-09-17T09:20:47Z</time>
      </trkpt>
      <trkpt lat="44.29256" lon="3.68496">
        <ele>645.218</ele>
        <time>2011-09-17T09:20:57Z</time>
      </trkpt>
      <trkpt lat="44.29255" lon="3.68496">
        <ele>645.06</ele>
        <time>2011-09-17T09:21:07Z</time>
      </trkpt>
      <trkpt lat="44.29255" lon="3.68497">
        <ele>645.397</ele>
        <time>2011-09-17T09:21:17Z</time>
      </trkpt>
      <trkpt lat="44.29256" lon="3.68497">
        <ele>645.195</ele>
        <time>2011-09-17T09:21:27Z</time>
      </trkpt>
      <trkpt lat="44.29255" lon="3.68497">
        <ele>645.233</ele>
        <time>2011-09-17T09:21:37Z</time>
      </trkpt>
      <trkpt lat="44.29255" lon="3.68496">
        <ele>645.172</ele>
        <time>2011-09-17T09:21:47Z</time>
      </trkpt>
      <trkpt lat="44.29255" lon="3.68496">
        <ele>645.467</ele>
        <time>2011-09-17T09:21:57Z</time>
      </trkpt>
      <trkpt lat="44.29255" lon="3.68496">
        <ele>645.99</ele>
        <time>2011-09-17T09:22:07Z</time>
      </trkpt>
      <trkpt lat="44.29255" lon="3.68496">
        <ele>645.485</ele>
        <time>2011-09-17T09:22:17Z</time>
      </trkpt>
      <trkpt lat="44.29255" lon="3.68495">
        <ele>645.83</ele>
        <time>2011-09-17T09:22:27Z</time>
      </trkpt>
      <trkpt lat="44.29256" lon="3.68494">
        <ele>645.581</ele>
        <time>2011-09-17T09:22:37Z</time>
      </trkpt>
      <trkpt lat="44.29256" lon="3.68494">
        <ele>645.438</ele>
        <time>2011-09-17T09:22:47Z</time>
      </trkpt>
      <trkpt lat="44.29256" lon="3.68494">
        <ele>645.666</ele>
        <time>2011-09-17T09:22:57Z</time>
      </trkpt>
      <trkpt lat="44.29256" lon="3.68494">
        <ele>645.831</ele>
        <time>2011-09-17T09:23:07Z</time>
      </trkpt>
      <trkpt lat="44.29256" lon="3.68494">
        <ele>645.76</ele>
        <time>2011-09-17T09:23:17Z</time>
      </trkpt>
      <trkpt lat="44.29255" lon="3.68494">
        <ele>645.893</ele>
        <time>2011-09-17T09:23:27Z</time>
      </trkpt>
      <trkpt lat="44.29255" lon="3.68494">
        <ele>646.152</ele>
        <time>2011-09-17T09:23:37Z</time>
      </trkpt>
      <trkpt lat="44.29254" lon="3.68495">
        <ele>645.809</ele>
        <time>2011-09-17T09:23:47Z</time>
      </trkpt>
      <trkpt lat="44.29254" lon="3.68495">
        <ele>646.052</ele>
        <time>2011-09-17T09:23:57Z</time>
      </trkpt>
      <trkpt lat="44.29254" lon="3.68495">
        <ele>646.309</ele>
        <time>2011-09-17T09:24:07Z</time>
      </trkpt>
      <trkpt lat="44.29254" lon="3.68494">
        <ele>646.058</ele>
        <time>2011-09-17T09:24:17Z</time>
      </trkpt>
      <trkpt lat="44.29255" lon="3.68494">
        <ele>646.194</ele>
        <time>2011-09-17T09:24:27Z</time>
      </trkpt>
      <trkpt lat="44.29255" lon="3.68493">
        <ele>645.991</ele>
        <time>2011-09-17T09:24:37Z</time>
      </trkpt>
      <trkpt lat="44.29254" lon="3.68492">
        <ele>646.198</ele>
        <time>2011-09-17T09:24:47Z</time>
      </trkpt>
      <trkpt lat="44.29254" lon="3.68492">
        <ele>646.477</ele>
        <time>2011-09-17T09:24:57Z</time>
      </trkpt>
      <trkpt lat="44.29254" lon="3.68492">
        <ele>645.909</ele>
        <time>2011-09-17T09:25:07Z</time>
      </trkpt>
      <trkpt lat="44.29254" lon="3.68492">
        <ele>646.428</ele>
        <time>2011-09-17T09:25:17Z</time>
      </trkpt>
      <trkpt lat="44.29254" lon="3.68492">
        <ele>646.457</ele>
        <time>2011-09-17T09:25:27Z</time>
      </trkpt>
      <trkpt lat="44.29254" lon="3.68492">
        <ele>646.615</ele>
        <time>2011-09-17T09:25:37Z</time>
      </trkpt>
      <trkpt lat="44.29254" lon="3.68493">
        <ele>646.856</ele>
        <time>2011-09-17T09:25:47Z</time>
      </trkpt>
      <trkpt lat="44.29254" lon="3.68493">
        <ele>646.885</ele>
        <time>2011-09-17T09:25:57Z</time>
      </trkpt>
      <trkpt lat="44.29254" lon="3.68493">
        <ele>646.862</ele>
        <time>2011-09-17T09:26:07Z</time>
      </trkpt>
      <trkpt lat="44.29254" lon="3.68493">
        <ele>646.369</ele>
        <time>2011-09-17T09:26:17Z</time>
      </trkpt>
      <trkpt lat="44.29254" lon="3.68492">
        <ele>646.659</ele>
        <time>2011-09-17T09:26:27Z</time>
      </trkpt>
      <trkpt lat="44.29254" lon="3.68492">
        <ele>646.93</ele>
        <time>2011-09-17T09:26:37Z</time>
      </trkpt>
      <trkpt lat="44.29254" lon="3.68493">
        <ele>646.916</ele>
        <time>2011-09-17T09:26:47Z</time>
      </trkpt>
      <trkpt lat="44.29253" lon="3.68493">
        <ele>646.813</ele>
        <time>2011-09-17T09:26:57Z</time>
      </trkpt>
      <trkpt lat="44.29254" lon="3.68494">
        <ele>646.57</ele>
        <time>2011-09-17T09:27:07Z</time>
      </trkpt>
      <trkpt lat="44.29254" lon="3.68494">
        <ele>646.967</ele>
        <time>2011-09-17T09:27:17Z</time>
      </trkpt>
      <trkpt lat="44.29254" lon="3.68495">
        <ele>646.761</ele>
        <time>2011-09-17T09:27:27Z</time>
      </trkpt>
      <trkpt lat="44.29253" lon="3.68495">
        <ele>647.101</ele>
        <time>2011-09-17T09:27:37Z</time>
      </trkpt>
      <trkpt lat="44.29254" lon="3.68496">
        <ele>647.102</ele>
        <time>2011-09-17T09:27:47Z</time>
      </trkpt>
      <trkpt lat="44.29254" lon="3.68496">
        <ele>647.153</ele>
        <time>2011-09-17T09:27:57Z</time>
      </trkpt>
      <trkpt lat="44.29254" lon="3.68496">
        <ele>647.177</ele>
        <time>2011-09-17T09:28:07Z</time>
      </trkpt>
      <trkpt lat="44.29254" lon="3.68496">
        <ele>647.246</ele>
        <time>2011-09-17T09:28:17Z</time>
      </trkpt>
      <trkpt lat="44.29254" lon="3.68496">
        <ele>647.063</ele>
        <time>2011-09-17T09:28:27Z</time>
      </trkpt>
      <trkpt lat="44.29254" lon="3.68496">
        <ele>646.937</ele>
        <time>2011-09-17T09:28:37Z</time>
      </trkpt>
      <trkpt lat="44.29254" lon="3.68496">
        <ele>647.008</ele>
        <time>2011-09-17T09:28:47Z</time>
      </trkpt>
      <trkpt lat="44.29255" lon="3.68496">
        <ele>646.944</ele>
        <time>2011-09-17T09:28:57Z</time>
      </trkpt>
      <trkpt lat="44.29255" lon="3.68496">
        <ele>646.96</ele>
        <time>2011-09-17T09:29:07Z</time>
      </trkpt>
      <trkpt lat="44.29254" lon="3.68496">
        <ele>646.965</ele>
        <time>2011-09-17T09:29:17Z</time>
      </trkpt>
      <trkpt lat="44.29254" lon="3.68496">
        <ele>647.121</ele>
        <time>2011-09-17T09:29:27Z</time>
      </trkpt>
      <trkpt lat="44.29253" lon="3.68496">
        <ele>647.289</ele>
        <time>2011-09-17T09:29:37Z</time>
      </trkpt>
      <trkpt lat="44.29252" lon="3.68496">
        <ele>647.18</ele>
        <time>2011-09-17T09:29:47Z</time>
      </trkpt>
      <trkpt lat="44.29252" lon="3.68496">
        <ele>647.294</ele>
        <time>2011-09-17T09:29:57Z</time>
      </trkpt>
      <trkpt lat="44.29252" lon="3.68495">
        <ele>647.383</ele>
        <time>2011-09-17T09:30:07Z</time>
      </trkpt>
      <trkpt lat="44.29253" lon="3.68495">
        <ele>647.497</ele>
        <time>2011-09-17T09:30:17Z</time>
      </trkpt>
      <trkpt lat="44.29253" lon="3.68495">
        <ele>647.629</ele>
        <time>2011-09-17T09:30:27Z</time>
      </trkpt>
      <trkpt lat="44.29252" lon="3.68495">
        <ele>647.993</ele>
        <time>2011-09-17T09:30:37Z</time>
      </trkpt>
      <trkpt lat="44.29253" lon="3.68495">
        <ele>647.825</ele>
        <time>2011-09-17T09:30:47Z</time>
      </trkpt>
      <trkpt lat="44.29254" lon="3.68495">
        <ele>648.271</ele>
        <time>2011-09-17T09:30:57Z</time>
      </trkpt>
      <trkpt lat="44.29254" lon="3.68494">
        <ele>648.018</ele>
        <time>2011-09-17T09:31:07Z</time>
      </trkpt>
      <trkpt lat="44.29255" lon="3.68494">
        <ele>648.029</ele>
        <time>2011-09-17T09:31:17Z</time>
      </trkpt>
      <trkpt lat="44.29255" lon="3.68494">
        <ele>647.999</ele>
        <time>2011-09-17T09:31:27Z</time>
      </trkpt>
      <trkpt lat="44.29254" lon="3.68494">
        <ele>648.457</ele>
        <time>2011-09-17T09:31:37Z</time>
      </trkpt>
      <trkpt lat="44.29254" lon="3.68495">
        <ele>647.796</ele>
        <time>2011-09-17T09:31:47Z</time>
      </trkpt>
      <trkpt lat="44.29254" lon="3.68496">
        <ele>648.478</ele>
        <time>2011-09-17T09:31:57Z</time>
      </trkpt>
      <trkpt lat="44.29254" lon="3.68497">
        <ele>648.398</ele>
        <time>2011-09-17T09:32:07Z</time>
      </trkpt>
      <trkpt lat="44.29254" lon="3.68497">
        <ele>648.464</ele>
        <time>2011-09-17T09:32:17Z</time>
      </trkpt>
      <trkpt lat="44.29254" lon="3.68497">
        <ele>648.195</ele>
        <time>2011-09-17T09:32:27Z</time>
      </trkpt>
      <trkpt lat="44.29253" lon="3.68497">
        <ele>648.058</ele>
        <time>2011-09-17T09:32:37Z</time>
      </trkpt>
      <trkpt lat="44.29252" lon="3.68496">
        <ele>648.398</ele>
        <time>2011-09-17T09:32:47Z</time>
      </trkpt>
      <trkpt lat="44.29252" lon="3.68495">
        <ele>648.528</ele>
        <time>2011-09-17T09:32:57Z</time>
      </trkpt>
      <trkpt lat="44.29251" lon="3.68493">
        <ele>648.591</ele>
        <time>2011-09-17T09:33:07Z</time>
      </trkpt>
      <trkpt lat="44.29251" lon="3.68491">
        <ele>648.388</ele>
        <time>2011-09-17T09:33:17Z</time>
      </trkpt>
      <trkpt lat="44.29251" lon="3.68491">
        <ele>648.671</ele>
        <time>2011-09-17T09:33:27Z</time>
      </trkpt>
      <trkpt lat="44.29251" lon="3.68491">
        <ele>649.4</ele>
        <time>2011-09-17T09:33:37Z</time>
      </trkpt>
      <trkpt lat="44.29251" lon="3.68491">
        <ele>648.982</ele>
        <time>2011-09-17T09:33:47Z</time>
      </trkpt>
      <trkpt lat="44.29252" lon="3.6849">
        <ele>649.06</ele>
        <time>2011-09-17T09:33:57Z</time>
      </trkpt>
      <trkpt lat="44.29252" lon="3.68491">
        <ele>649.018</ele>
        <time>2011-09-17T09:34:07Z</time>
      </trkpt>
      <trkpt lat="44.29253" lon="3.685">
        <ele>649.047</ele>
        <time>2011-09-17T09:34:17Z</time>
      </trkpt>
      <trkpt lat="44.29252" lon="3.68511">
        <ele>649.658</ele>
        <time>2011-09-17T09:34:27Z</time>
      </trkpt>
      <trkpt lat="44.29248" lon="3.68525">
        <ele>649.855</ele>
        <time>2011-09-17T09:34:37Z</time>
      </trkpt>
      <trkpt lat="44.29246" lon="3.68538">
        <ele>650.244</ele>
        <time>2011-09-17T09:34:47Z</time>
      </trkpt>
      <trkpt lat="44.29242" lon="3.68548">
        <ele>650.232</ele>
        <time>2011-09-17T09:34:57Z</time>
      </trkpt>
      <trkpt lat="44.29239" lon="3.6856">
        <ele>650.647</ele>
        <time>2011-09-17T09:35:07Z</time>
      </trkpt>
      <trkpt lat="44.29237" lon="3.68575">
        <ele>650.739</ele>
        <time>2011-09-17T09:35:17Z</time>
      </trkpt>
      <trkpt lat="44.29235" lon="3.68592">
        <ele>650.792</ele>
        <time>2011-09-17T09:35:27Z</time>
      </trkpt>
      <trkpt lat="44.29234" lon="3.68609">
        <ele>651.322</ele>
        <time>2011-09-17T09:35:37Z</time>
      </trkpt>
      <trkpt lat="44.29234" lon="3.68624">
        <ele>651.82</ele>
        <time>2011-09-17T09:35:47Z</time>
      </trkpt>
      <trkpt lat="44.29236" lon="3.6864">
        <ele>651.833</ele>
        <time>2011-09-17T09:35:57Z</time>
      </trkpt>
      <trkpt lat="44.29235" lon="3.68656">
        <ele>652.567</ele>
        <time>2011-09-17T09:36:07Z</time>
      </trkpt>
      <trkpt lat="44.29232" lon="3.68666">
        <ele>652.474</ele>
        <time>2011-09-17T09:36:17Z</time>
      </trkpt>
      <trkpt lat="44.29225" lon="3.68678">
        <ele>652.796</ele>
        <time>2011-09-17T09:36:27Z</time>
      </trkpt>
      <trkpt lat="44.29217" lon="3.68693">
        <ele>653.117</ele>
        <time>2011-09-17T09:36:37Z</time>
      </trkpt>
      <trkpt lat="44.29206" lon="3.68706">
        <ele>653.378</ele>
        <time>2011-09-17T09:36:47Z</time>
      </trkpt>
      <trkpt lat="44.29197" lon="3.68718">
        <ele>653.407</ele>
        <time>2011-09-17T09:36:57Z</time>
      </trkpt>
      <trkpt lat="44.2919" lon="3.68725">
        <ele>653.521</ele>
        <time>2011-09-17T09:37:07Z</time>
      </trkpt>
      <trkpt lat="44.29182" lon="3.68735">
        <ele>653.748</ele>
        <time>2011-09-17T09:37:17Z</time>
      </trkpt>
      <trkpt lat="44.29171" lon="3.68746">
        <ele>654.105</ele>
        <time>2011-09-17T09:37:27Z</time>
      </trkpt>
      <trkpt lat="44.29159" lon="3.68753">
        <ele>654.147</ele>
        <time>2011-09-17T09:37:37Z</time>
      </trkpt>
      <trkpt lat="44.29147" lon="3.68761">
        <ele>654.232</ele>
        <time>2011-09-17T09:37:47Z</time>
      </trkpt>
      <trkpt lat="44.29134" lon="3.68766">
        <ele>654.567</ele>
        <time>2011-09-17T09:37:57Z</time>
      </trkpt>
      <trkpt lat="44.29121" lon="3.68771">
        <ele>654.81</ele>
        <time>2011-09-17T09:38:07Z</time>
      </trkpt>
      <trkpt lat="44.2911" lon="3.68776">
        <ele>654.892</ele>
        <time>2011-09-17T09:38:17Z</time>
      </trkpt>
      <trkpt lat="44.29099" lon="3.68782">
        <ele>655.455</ele>
        <time>2011-09-17T09:38:27Z</time>
      </trkpt>
      <trkpt lat="44.29087" lon="3.68787">
        <ele>655.492</ele>
        <time>2011-09-17T09:38:37Z</time>
      </trkpt>
      <trkpt lat="44.29077" lon="3.68791">
        <ele>655.598</ele>
        <time>2011-09-17T09:38:47Z</time>
      </trkpt>
      <trkpt lat="44.29063" lon="3.68801">
        <ele>655.64</ele>
        <time>2011-09-17T09:38:57Z</time>
      </trkpt>
      <trkpt lat="44.2905" lon="3.68808">
        <ele>656.245</ele>
        <time>2011-09-17T09:39:07Z</time>
      </trkpt>
      <trkpt lat="44.2904" lon="3.6881">
        <ele>656.536</ele>
        <time>2011-09-17T09:39:17Z</time>
      </trkpt>
      <trkpt lat="44.29033" lon="3.68815">
        <ele>656.943</ele>
        <time>2011-09-17T09:39:27Z</time>
      </trkpt>
      <trkpt lat="44.29023" lon="3.68828">
        <ele>656.774</ele>
        <time>2011-09-17T09:39:37Z</time>
      </trkpt>
      <trkpt lat="44.29015" lon="3.68841">
        <ele>656.43</ele>
        <time>2011-09-17T09:39:47Z</time>
      </trkpt>
      <trkpt lat="44.29007" lon="3.68852">
        <ele>656.829</ele>
        <time>2011-09-17T09:39:57Z</time>
      </trkpt>
      <trkpt lat="44.28998" lon="3.68863">
        <ele>656.893</ele>
        <time>2011-09-17T09:40:07Z</time>
      </trkpt>
      <trkpt lat="44.28994" lon="3.6887">
        <ele>656.536</ele>
        <time>2011-09-17T09:40:17Z</time>
      </trkpt>
      <trkpt lat="44.28991" lon="3.68876">
        <ele>656.766</ele>
        <time>2011-09-17T09:40:27Z</time>
      </trkpt>
      <trkpt lat="44.28989" lon="3.68892">
        <ele>656.42</ele>
        <time>2011-09-17T09:40:37Z</time>
      </trkpt>
      <trkpt lat="44.28984" lon="3.68907">
        <ele>656.475</ele>
        <time>2011-09-17T09:40:47Z</time>
      </trkpt>
      <trkpt lat="44.28978" lon="3.68918">
        <ele>656.811</ele>
        <time>2011-09-17T09:40:57Z</time>
      </trkpt>
      <trkpt lat="44.28969" lon="3.68933">
        <ele>657.056</ele>
        <time>2011-09-17T09:41:07Z</time>
      </trkpt>
      <trkpt lat="44.28965" lon="3.68946">
        <ele>657.085</ele>
        <time>2011-09-17T09:41:17Z</time>
      </trkpt>
      <trkpt lat="44.28953" lon="3.68954">
        <ele>657.178</ele>
        <time>2011-09-17T09:41:27Z</time>
      </trkpt>
      <trkpt lat="44.28942" lon="3.6896">
        <ele>656.901</ele>
        <time>2011-09-17T09:41:37Z</time>
      </trkpt>
      <trkpt lat="44.28923" lon="3.68966">
        <ele>657.479</ele>
        <time>2011-09-17T09:41:47Z</time>
      </trkpt>
      <trkpt lat="44.28908" lon="3.68966">
        <ele>657.112</ele>
        <time>2011-09-17T09:41:57Z</time>
      </trkpt>
      <trkpt lat="44.28898" lon="3.68967">
        <ele>657.387</ele>
        <time>2011-09-17T09:42:07Z</time>
      </trkpt>
      <trkpt lat="44.28883" lon="3.68969">
        <ele>657.149</ele>
        <time>2011-09-17T09:42:17Z</time>
      </trkpt>
      <trkpt lat="44.2887" lon="3.68967">
        <ele>657.257</ele>
        <time>2011-09-17T09:42:27Z</time>
      </trkpt>
      <trkpt lat="44.28856" lon="3.68964">
        <ele>657.463</ele>
        <time>2011-09-17T09:42:37Z</time>
      </trkpt>
      <trkpt lat="44.28843" lon="3.68958">
        <ele>657.244</ele>
        <time>2011-09-17T09:42:47Z</time>
      </trkpt>
      <trkpt lat="44.28831" lon="3.68954">
        <ele>657.664</ele>
        <time>2011-09-17T09:42:57Z</time>
      </trkpt>
      <trkpt lat="44.28819" lon="3.68948">
        <ele>657.299</ele>
        <time>2011-09-17T09:43:07Z</time>
      </trkpt>
      <trkpt lat="44.28806" lon="3.68949">
        <ele>657.646</ele>
        <time>2011-09-17T09:43:17Z</time>
      </trkpt>
      <trkpt lat="44.28794" lon="3.68943">
        <ele>657.691</ele>
        <time>2011-09-17T09:43:27Z</time>
      </trkpt>
      <trkpt lat="44.28782" lon="3.68936">
        <ele>658.224</ele>
        <time>2011-09-17T09:43:37Z</time>
      </trkpt>
      <trkpt lat="44.28773" lon="3.68927">
        <ele>657.582</ele>
        <time>2011-09-17T09:43:47Z</time>
      </trkpt>
      <trkpt lat="44.28759" lon="3.68932">
        <ele>658.187</ele>
        <time>2011-09-17T09:43:57Z</time>
      </trkpt>
      <trkpt lat="44.28748" lon="3.68939">
        <ele>658.745</ele>
        <time>2011-09-17T09:44:07Z</time>
      </trkpt>
      <trkpt lat="44.28736" lon="3.68947">
        <ele>657.778</ele>
        <time>2011-09-17T09:44:17Z</time>
      </trkpt>
      <trkpt lat="44.28725" lon="3.68955">
        <ele>658.053</ele>
        <time>2011-09-17T09:44:27Z</time>
      </trkpt>
      <trkpt lat="44.28714" lon="3.68964">
        <ele>657.775</ele>
        <time>2011-09-17T09:44:37Z</time>
      </trkpt>
      <trkpt lat="44.28703" lon="3.68971">
        <ele>657.685</ele>
        <time>2011-09-17T09:44:47Z</time>
      </trkpt>
      <trkpt lat="44.28691" lon="3.6898">
        <ele>657.883</ele>
        <time>2011-09-17T09:44:57Z</time>
      </trkpt>
      <trkpt lat="44.28679" lon="3.68987">
        <ele>657.976</ele>
        <time>2011-09-17T09:45:07Z</time>
      </trkpt>
      <trkpt lat="44.28668" lon="3.68996">
        <ele>658.013</ele>
        <time>2011-09-17T09:45:17Z</time>
      </trkpt>
      <trkpt lat="44.28656" lon="3.69002">
        <ele>658.005</ele>
        <time>2011-09-17T09:45:27Z</time>
      </trkpt>
      <trkpt lat="44.28644" lon="3.6901">
        <ele>658.211</ele>
        <time>2011-09-17T09:45:37Z</time>
      </trkpt>
      <trkpt lat="44.28632" lon="3.69019">
        <ele>658.232</ele>
        <time>2011-09-17T09:45:47Z</time>
      </trkpt>
      <trkpt lat="44.2862" lon="3.69029">
        <ele>657.96</ele>
        <time>2011-09-17T09:45:57Z</time>
      </trkpt>
      <trkpt lat="44.2861" lon="3.69041">
        <ele>658.282</ele>
        <time>2011-09-17T09:46:07Z</time>
      </trkpt>
      <trkpt lat="44.28598" lon="3.69051">
        <ele>658.161</ele>
        <time>2011-09-17T09:46:17Z</time>
      </trkpt>
      <trkpt lat="44.28588" lon="3.69059">
        <ele>658.055</ele>
        <time>2011-09-17T09:46:27Z</time>
      </trkpt>
      <trkpt lat="44.28581" lon="3.69071">
        <ele>657.952</ele>
        <time>2011-09-17T09:46:37Z</time>
      </trkpt>
      <trkpt lat="44.28575" lon="3.69082">
        <ele>657.997</ele>
        <time>2011-09-17T09:46:47Z</time>
      </trkpt>
      <trkpt lat="44.28574" lon="3.69084">
        <ele>658.119</ele>
        <time>2011-09-17T09:46:57Z</time>
      </trkpt>
      <trkpt lat="44.28567" lon="3.69099">
        <ele>658.528</ele>
        <time>2011-09-17T09:47:07Z</time>
      </trkpt>
      <trkpt lat="44.28561" lon="3.69114">
        <ele>658.629</ele>
        <time>2011-09-17T09:47:17Z</time>
      </trkpt>
      <trkpt lat="44.28553" lon="3.69128">
        <ele>659.234</ele>
        <time>2011-09-17T09:47:27Z</time>
      </trkpt>
      <trkpt lat="44.28547" lon="3.69144">
        <ele>658.964</ele>
        <time>2011-09-17T09:47:37Z</time>
      </trkpt>
      <trkpt lat="44.28541" lon="3.69163">
        <ele>659.453</ele>
        <time>2011-09-17T09:47:47Z</time>
      </trkpt>
      <trkpt lat="44.28534" lon="3.69182">
        <ele>659.511</ele>
        <time>2011-09-17T09:47:57Z</time>
      </trkpt>
      <trkpt lat="44.28528" lon="3.69197">
        <ele>659.704</ele>
        <time>2011-09-17T09:48:07Z</time>
      </trkpt>
      <trkpt lat="44.28521" lon="3.69212">
        <ele>659.588</ele>
        <time>2011-09-17T09:48:17Z</time>
      </trkpt>
      <trkpt lat="44.28514" lon="3.69228">
        <ele>659.545</ele>
        <time>2011-09-17T09:48:27Z</time>
      </trkpt>
      <trkpt lat="44.28508" lon="3.69241">
        <ele>660.145</ele>
        <time>2011-09-17T09:48:37Z</time>
      </trkpt>
      <trkpt lat="44.285" lon="3.69258">
        <ele>660.172</ele>
        <time>2011-09-17T09:48:47Z</time>
      </trkpt>
      <trkpt lat="44.2849" lon="3.69272">
        <ele>659.997</ele>
        <time>2011-09-17T09:48:57Z</time>
      </trkpt>
      <trkpt lat="44.28482" lon="3.69284">
        <ele>659.979</ele>
        <time>2011-09-17T09:49:07Z</time>
      </trkpt>
      <trkpt lat="44.2847" lon="3.6929">
        <ele>660.145</ele>
        <time>2011-09-17T09:49:17Z</time>
      </trkpt>
      <trkpt lat="44.28458" lon="3.69302">
        <ele>660.727</ele>
        <time>2011-09-17T09:49:27Z</time>
      </trkpt>
      <trkpt lat="44.28451" lon="3.69316">
        <ele>661.12</ele>
        <time>2011-09-17T09:49:37Z</time>
      </trkpt>
      <trkpt lat="44.28441" lon="3.69324">
        <ele>661.041</ele>
        <time>2011-09-17T09:49:47Z</time>
      </trkpt>
      <trkpt lat="44.28429" lon="3.69332">
        <ele>661.155</ele>
        <time>2011-09-17T09:49:57Z</time>
      </trkpt>
      <trkpt lat="44.28419" lon="3.69348">
        <ele>661.07</ele>
        <time>2011-09-17T09:50:07Z</time>
      </trkpt>
      <trkpt lat="44.28407" lon="3.69355">
        <ele>661.041</ele>
        <time>2011-09-17T09:50:17Z</time>
      </trkpt>
      <trkpt lat="44.28396" lon="3.69365">
        <ele>660.645</ele>
        <time>2011-09-17T09:50:27Z</time>
      </trkpt>
      <trkpt lat="44.28387" lon="3.69378">
        <ele>660.785</ele>
        <time>2011-09-17T09:50:37Z</time>
      </trkpt>
      <trkpt lat="44.28377" lon="3.69387">
        <ele>661.104</ele>
        <time>2011-09-17T09:50:47Z</time>
      </trkpt>
      <trkpt lat="44.28368" lon="3.69402">
        <ele>660.684</ele>
        <time>2011-09-17T09:50:57Z</time>
      </trkpt>
      <trkpt lat="44.28355" lon="3.6941">
        <ele>660.528</ele>
        <time>2011-09-17T09:51:07Z</time>
      </trkpt>
      <trkpt lat="44.28342" lon="3.69419">
        <ele>660.806</ele>
        <time>2011-09-17T09:51:17Z</time>
      </trkpt>
      <trkpt lat="44.2833" lon="3.69427">
        <ele>660.806</ele>
        <time>2011-09-17T09:51:27Z</time>
      </trkpt>
      <trkpt lat="44.28319" lon="3.69437">
        <ele>660.814</ele>
        <time>2011-09-17T09:51:37Z</time>
      </trkpt>
      <trkpt lat="44.28309" lon="3.69444">
        <ele>660.806</ele>
        <time>2011-09-17T09:51:47Z</time>
      </trkpt>
      <trkpt lat="44.28299" lon="3.69452">
        <ele>661.348</ele>
        <time>2011-09-17T09:51:57Z</time>
      </trkpt>
      <trkpt lat="44.28287" lon="3.69461">
        <ele>660.655</ele>
        <time>2011-09-17T09:52:07Z</time>
      </trkpt>
      <trkpt lat="44.28277" lon="3.69473">
        <ele>661.107</ele>
        <time>2011-09-17T09:52:17Z</time>
      </trkpt>
      <trkpt lat="44.28268" lon="3.69487">
        <ele>661.326</ele>
        <time>2011-09-17T09:52:27Z</time>
      </trkpt>
      <trkpt lat="44.28262" lon="3.69506">
        <ele>661.49</ele>
        <time>2011-09-17T09:52:37Z</time>
      </trkpt>
      <trkpt lat="44.28256" lon="3.6952">
        <ele>661.979</ele>
        <time>2011-09-17T09:52:47Z</time>
      </trkpt>
      <trkpt lat="44.28253" lon="3.69537">
        <ele>661.408</ele>
        <time>2011-09-17T09:52:57Z</time>
      </trkpt>
      <trkpt lat="44.28249" lon="3.69556">
        <ele>661.366</ele>
        <time>2011-09-17T09:53:07Z</time>
      </trkpt>
      <trkpt lat="44.28244" lon="3.69573">
        <ele>662.037</ele>
        <time>2011-09-17T09:53:17Z</time>
      </trkpt>
      <trkpt lat="44.28238" lon="3.69591">
        <ele>662.098</ele>
        <time>2011-09-17T09:53:27Z</time>
      </trkpt>
      <trkpt lat="44.28231" lon="3.69606">
        <ele>662.447</ele>
        <time>2011-09-17T09:53:37Z</time>
      </trkpt>
      <trkpt lat="44.28222" lon="3.69621">
        <ele>661.831</ele>
        <time>2011-09-17T09:53:47Z</time>
      </trkpt>
      <trkpt lat="44.28219" lon="3.69625">
        <ele>661.53</ele>
        <time>2011-09-17T09:53:57Z</time>
      </trkpt>
      <trkpt lat="44.28222" lon="3.69626">
        <ele>661.314</ele>
        <time>2011-09-17T09:54:07Z</time>
      </trkpt>
      <trkpt lat="44.28221" lon="3.69625">
        <ele>661.189</ele>
        <time>2011-09-17T09:54:17Z</time>
      </trkpt>
      <trkpt lat="44.28219" lon="3.69617">
        <ele>660.984</ele>
        <time>2011-09-17T09:54:27Z</time>
      </trkpt>
      <trkpt lat="44.2822" lon="3.6962">
        <ele>661.45</ele>
        <time>2011-09-17T09:54:37Z</time>
      </trkpt>
      <trkpt lat="44.2822" lon="3.6962">
        <ele>661.319</ele>
        <time>2011-09-17T09:54:47Z</time>
      </trkpt>
      <trkpt lat="44.28216" lon="3.69619">
        <ele>661.082</ele>
        <time>2011-09-17T09:54:57Z</time>
      </trkpt>
      <trkpt lat="44.28216" lon="3.69619">
        <ele>661.68</ele>
        <time>2011-09-17T09:55:07Z</time>
      </trkpt>
      <trkpt lat="44.28216" lon="3.69619">
        <ele>661.648</ele>
        <time>2011-09-17T09:55:17Z</time>
      </trkpt>
      <trkpt lat="44.28216" lon="3.69619">
        <ele>661.416</ele>
        <time>2011-09-17T09:55:27Z</time>
      </trkpt>
      <trkpt lat="44.28216" lon="3.69619">
        <ele>661.172</ele>
        <time>2011-09-17T09:55:37Z</time>
      </trkpt>
      <trkpt lat="44.28215" lon="3.69618">
        <ele>661.498</ele>
        <time>2011-09-17T09:55:47Z</time>
      </trkpt>
      <trkpt lat="44.28215" lon="3.69618">
        <ele>661.069</ele>
        <time>2011-09-17T09:55:57Z</time>
      </trkpt>
      <trkpt lat="44.28215" lon="3.69618">
        <ele>661.417</ele>
        <time>2011-09-17T09:56:07Z</time>
      </trkpt>
      <trkpt lat="44.28215" lon="3.69618">
        <ele>661.031</ele>
        <time>2011-09-17T09:56:17Z</time>
      </trkpt>
      <trkpt lat="44.28215" lon="3.69618">
        <ele>660.894</ele>
        <time>2011-09-17T09:56:27Z</time>
      </trkpt>
      <trkpt lat="44.28215" lon="3.69617">
        <ele>660.905</ele>
        <time>2011-09-17T09:56:37Z</time>
      </trkpt>
      <trkpt lat="44.28216" lon="3.69618">
        <ele>661.243</ele>
        <time>2011-09-17T09:56:47Z</time>
      </trkpt>
      <trkpt lat="44.28215" lon="3.69619">
        <ele>661.108</ele>
        <time>2011-09-17T09:56:57Z</time>
      </trkpt>
      <trkpt lat="44.28216" lon="3.69617">
        <ele>661.072</ele>
        <time>2011-09-17T09:57:07Z</time>
      </trkpt>
      <trkpt lat="44.28216" lon="3.69618">
        <ele>661.042</ele>
        <time>2011-09-17T09:57:17Z</time>
      </trkpt>
      <trkpt lat="44.28216" lon="3.69618">
        <ele>661.266</ele>
        <time>2011-09-17T09:57:27Z</time>
      </trkpt>
      <trkpt lat="44.28216" lon="3.69618">
        <ele>661.318</ele>
        <time>2011-09-17T09:57:37Z</time>
      </trkpt>
      <trkpt lat="44.28216" lon="3.69618">
        <ele>661.145</ele>
        <time>2011-09-17T09:57:47Z</time>
      </trkpt>
      <trkpt lat="44.28216" lon="3.69618">
        <ele>661.686</ele>
        <time>2011-09-17T09:57:57Z</time>
      </trkpt>
      <trkpt lat="44.28216" lon="3.69618">
        <ele>661.206</ele>
        <time>2011-09-17T09:58:07Z</time>
      </trkpt>
      <trkpt lat="44.28215" lon="3.6962">
        <ele>661.144</ele>
        <time>2011-09-17T09:58:17Z</time>
      </trkpt>
      <trkpt lat="44.28216" lon="3.69623">
        <ele>661.076</ele>
        <time>2011-09-17T09:58:27Z</time>
      </trkpt>
      <trkpt lat="44.28214" lon="3.69614">
        <ele>660.848</ele>
        <time>2011-09-17T09:58:37Z</time>
      </trkpt>
      <trkpt lat="44.28212" lon="3.69608">
        <ele>660.853</ele>
        <time>2011-09-17T09:58:47Z</time>
      </trkpt>
      <trkpt lat="44.28212" lon="3.69608">
        <ele>660.91</ele>
        <time>2011-09-17T09:58:57Z</time>
      </trkpt>
      <trkpt lat="44.28212" lon="3.69608">
        <ele>660.52</ele>
        <time>2011-09-17T09:59:07Z</time>
      </trkpt>
      <trkpt lat="44.28215" lon="3.69619">
        <ele>660.31</ele>
        <time>2011-09-17T09:59:17Z</time>
      </trkpt>
      <trkpt lat="44.28214" lon="3.69624">
        <ele>660.812</ele>
        <time>2011-09-17T09:59:27Z</time>
      </trkpt>
      <trkpt lat="44.28214" lon="3.69624">
        <ele>661.412</ele>
        <time>2011-09-17T09:59:37Z</time>
      </trkpt>
      <trkpt lat="44.28214" lon="3.69624">
        <ele>660.966</ele>
        <time>2011-09-17T09:59:47Z</time>
      </trkpt>
      <trkpt lat="44.28214" lon="3.69624">
        <ele>660.917</ele>
        <time>2011-09-17T09:59:57Z</time>
      </trkpt>
      <trkpt lat="44.28214" lon="3.69624">
        <ele>660.898</ele>
        <time>2011-09-17T10:00:07Z</time>
      </trkpt>
      <trkpt lat="44.28214" lon="3.69624">
        <ele>660.739</ele>
        <time>2011-09-17T10:00:17Z</time>
      </trkpt>
      <trkpt lat="44.28214" lon="3.69624">
        <ele>660.53</ele>
        <time>2011-09-17T10:00:27Z</time>
      </trkpt>
      <trkpt lat="44.28214" lon="3.69624">
        <ele>660.586</ele>
        <time>2011-09-17T10:00:37Z</time>
      </trkpt>
      <trkpt lat="44.28214" lon="3.69624">
        <ele>660.151</ele>
        <time>2011-09-17T10:00:47Z</time>
      </trkpt>
      <trkpt lat="44.28214" lon="3.69622">
        <ele>659.85</ele>
        <time>2011-09-17T10:00:57Z</time>
      </trkpt>
      <trkpt lat="44.28214" lon="3.69623">
        <ele>659.744</ele>
        <time>2011-09-17T10:01:07Z</time>
      </trkpt>
      <trkpt lat="44.28213" lon="3.69621">
        <ele>660.591</ele>
        <time>2011-09-17T10:01:17Z</time>
      </trkpt>
      <trkpt lat="44.28214" lon="3.69621">
        <ele>660.887</ele>
        <time>2011-09-17T10:01:27Z</time>
      </trkpt>
      <trkpt lat="44.28215" lon="3.69622">
        <ele>659.777</ele>
        <time>2011-09-17T10:01:37Z</time>
      </trkpt>
      <trkpt lat="44.28216" lon="3.69623">
        <ele>660.093</ele>
        <time>2011-09-17T10:01:47Z</time>
      </trkpt>
      <trkpt lat="44.28215" lon="3.69621">
        <ele>659.836</ele>
        <time>2011-09-17T10:01:57Z</time>
      </trkpt>
      <trkpt lat="44.28214" lon="3.69622">
        <ele>659.78</ele>
        <time>2011-09-17T10:02:07Z</time>
      </trkpt>
      <trkpt lat="44.28214" lon="3.69623">
        <ele>660.109</ele>
        <time>2011-09-17T10:02:17Z</time>
      </trkpt>
      <trkpt lat="44.28214" lon="3.69623">
        <ele>659.888</ele>
        <time>2011-09-17T10:02:27Z</time>
      </trkpt>
      <trkpt lat="44.28214" lon="3.69623">
        <ele>660.149</ele>
        <time>2011-09-17T10:02:37Z</time>
      </trkpt>
      <trkpt lat="44.28214" lon="3.69623">
        <ele>660.302</ele>
        <time>2011-09-17T10:02:47Z</time>
      </trkpt>
      <trkpt lat="44.28214" lon="3.69624">
        <ele>660.207</ele>
        <time>2011-09-17T10:02:57Z</time>
      </trkpt>
      <trkpt lat="44.28214" lon="3.69624">
        <ele>660.086</ele>
        <time>2011-09-17T10:03:07Z</time>
      </trkpt>
      <trkpt lat="44.28214" lon="3.69624">
        <ele>659.987</ele>
        <time>2011-09-17T10:03:17Z</time>
      </trkpt>
      <trkpt lat="44.28214" lon="3.69624">
        <ele>659.718</ele>
        <time>2011-09-17T10:03:27Z</time>
      </trkpt>
      <trkpt lat="44.28214" lon="3.69624">
        <ele>660.025</ele>
        <time>2011-09-17T10:03:37Z</time>
      </trkpt>
      <trkpt lat="44.28214" lon="3.69624">
        <ele>659.908</ele>
        <time>2011-09-17T10:03:47Z</time>
      </trkpt>
      <trkpt lat="44.28214" lon="3.69624">
        <ele>660.264</ele>
        <time>2011-09-17T10:03:57Z</time>
      </trkpt>
      <trkpt lat="44.28214" lon="3.69624">
        <ele>659.936</ele>
        <time>2011-09-17T10:04:07Z</time>
      </trkpt>
      <trkpt lat="44.28214" lon="3.69624">
        <ele>659.732</ele>
        <time>2011-09-17T10:04:17Z</time>
      </trkpt>
      <trkpt lat="44.28214" lon="3.69624">
        <ele>660.31</ele>
        <time>2011-09-17T10:04:27Z</time>
      </trkpt>
      <trkpt lat="44.28214" lon="3.69624">
        <ele>660.46</ele>
        <time>2011-09-17T10:04:37Z</time>
      </trkpt>
      <trkpt lat="44.28214" lon="3.69624">
        <ele>660.225</ele>
        <time>2011-09-17T10:04:47Z</time>
      </trkpt>
      <trkpt lat="44.28214" lon="3.69624">
        <ele>660.444</ele>
        <time>2011-09-17T10:04:57Z</time>
      </trkpt>
      <trkpt lat="44.28214" lon="3.69624">
        <ele>660.55</ele>
        <time>2011-09-17T10:05:07Z</time>
      </trkpt>
      <trkpt lat="44.28214" lon="3.69624">
        <ele>660.842</ele>
        <time>2011-09-17T10:05:17Z</time>
      </trkpt>
      <trkpt lat="44.28214" lon="3.69624">
        <ele>660.681</ele>
        <time>2011-09-17T10:05:27Z</time>
      </trkpt>
      <trkpt lat="44.28215" lon="3.69624">
        <ele>661.018</ele>
        <time>2011-09-17T10:05:37Z</time>
      </trkpt>
      <trkpt lat="44.28215" lon="3.69624">
        <ele>660.855</ele>
        <time>2011-09-17T10:05:47Z</time>
      </trkpt>
      <trkpt lat="44.28215" lon="3.69624">
        <ele>661.035</ele>
        <time>2011-09-17T10:05:57Z</time>
      </trkpt>
      <trkpt lat="44.28215" lon="3.69624">
        <ele>660.874</ele>
        <time>2011-09-17T10:06:07Z</time>
      </trkpt>
      <trkpt lat="44.28215" lon="3.69624">
        <ele>660.948</ele>
        <time>2011-09-17T10:06:17Z</time>
      </trkpt>
      <trkpt lat="44.28215" lon="3.69625">
        <ele>661.025</ele>
        <time>2011-09-17T10:06:27Z</time>
      </trkpt>
      <trkpt lat="44.28215" lon="3.69625">
        <ele>660.9</ele>
        <time>2011-09-17T10:06:37Z</time>
      </trkpt>
      <trkpt lat="44.28215" lon="3.69625">
        <ele>661.018</ele>
        <time>2011-09-17T10:06:47Z</time>
      </trkpt>
      <trkpt lat="44.28215" lon="3.69625">
        <ele>661.041</ele>
        <time>2011-09-17T10:06:57Z</time>
      </trkpt>
      <trkpt lat="44.28215" lon="3.69625">
        <ele>660.845</ele>
        <time>2011-09-17T10:07:07Z</time>
      </trkpt>
      <trkpt lat="44.28215" lon="3.69625">
        <ele>661.18</ele>
        <time>2011-09-17T10:07:17Z</time>
      </trkpt>
      <trkpt lat="44.28215" lon="3.69625">
        <ele>661.52</ele>
        <time>2011-09-17T10:07:27Z</time>
      </trkpt>
      <trkpt lat="44.28215" lon="3.69625">
        <ele>661.087</ele>
        <time>2011-09-17T10:07:37Z</time>
      </trkpt>
      <trkpt lat="44.28215" lon="3.69625">
        <ele>661.123</ele>
        <time>2011-09-17T10:07:47Z</time>
      </trkpt>
      <trkpt lat="44.28215" lon="3.69625">
        <ele>661.267</ele>
        <time>2011-09-17T10:07:57Z</time>
      </trkpt>
      <trkpt lat="44.28215" lon="3.69625">
        <ele>661.297</ele>
        <time>2011-09-17T10:08:07Z</time>
      </trkpt>
      <trkpt lat="44.28215" lon="3.69625">
        <ele>661.381</ele>
        <time>2011-09-17T10:08:17Z</time>
      </trkpt>
      <trkpt lat="44.28215" lon="3.69625">
        <ele>661.218</ele>
        <time>2011-09-17T10:08:27Z</time>
      </trkpt>
      <trkpt lat="44.28215" lon="3.69625">
        <ele>661.2</ele>
        <time>2011-09-17T10:08:37Z</time>
      </trkpt>
      <trkpt lat="44.28215" lon="3.69625">
        <ele>661.633</ele>
        <time>2011-09-17T10:08:47Z</time>
      </trkpt>
      <trkpt lat="44.28215" lon="3.69625">
        <ele>661.437</ele>
        <time>2011-09-17T10:08:57Z</time>
      </trkpt>
      <trkpt lat="44.28215" lon="3.69625">
        <ele>661.224</ele>
        <time>2011-09-17T10:09:07Z</time>
      </trkpt>
      <trkpt lat="44.28215" lon="3.69625">
        <ele>661.156</ele>
        <time>2011-09-17T10:09:17Z</time>
      </trkpt>
      <trkpt lat="44.28215" lon="3.69625">
        <ele>660.782</ele>
        <time>2011-09-17T10:09:27Z</time>
      </trkpt>
      <trkpt lat="44.28215" lon="3.69625">
        <ele>661.087</ele>
        <time>2011-09-17T10:09:37Z</time>
      </trkpt>
      <trkpt lat="44.28215" lon="3.69625">
        <ele>661.042</ele>
        <time>2011-09-17T10:09:47Z</time>
      </trkpt>
      <trkpt lat="44.28214" lon="3.69626">
        <ele>661.001</ele>
        <time>2011-09-17T10:09:57Z</time>
      </trkpt>
      <trkpt lat="44.28214" lon="3.69626">
        <ele>661.07</ele>
        <time>2011-09-17T10:10:07Z</time>
      </trkpt>
      <trkpt lat="44.28214" lon="3.69627">
        <ele>661.076</ele>
        <time>2011-09-17T10:10:17Z</time>
      </trkpt>
      <trkpt lat="44.28214" lon="3.69627">
        <ele>660.835</ele>
        <time>2011-09-17T10:10:27Z</time>
      </trkpt>
      <trkpt lat="44.28214" lon="3.69627">
        <ele>660.96</ele>
        <time>2011-09-17T10:10:37Z</time>
      </trkpt>
      <trkpt lat="44.28214" lon="3.69627">
        <ele>660.956</ele>
        <time>2011-09-17T10:10:47Z</time>
      </trkpt>
      <trkpt lat="44.28214" lon="3.69627">
        <ele>661.116</ele>
        <time>2011-09-17T10:10:57Z</time>
      </trkpt>
      <trkpt lat="44.28214" lon="3.69627">
        <ele>661.701</ele>
        <time>2011-09-17T10:11:07Z</time>
      </trkpt>
      <trkpt lat="44.28214" lon="3.69627">
        <ele>660.82</ele>
        <time>2011-09-17T10:11:17Z</time>
      </trkpt>
      <trkpt lat="44.28214" lon="3.69627">
        <ele>660.956</ele>
        <time>2011-09-17T10:11:27Z</time>
      </trkpt>
      <trkpt lat="44.28214" lon="3.69627">
        <ele>661.327</ele>
        <time>2011-09-17T10:11:37Z</time>
      </trkpt>
      <trkpt lat="44.28214" lon="3.69627">
        <ele>660.781</ele>
        <time>2011-09-17T10:11:47Z</time>
      </trkpt>
      <trkpt lat="44.28214" lon="3.69627">
        <ele>661.061</ele>
        <time>2011-09-17T10:11:57Z</time>
      </trkpt>
      <trkpt lat="44.28214" lon="3.69627">
        <ele>660.775</ele>
        <time>2011-09-17T10:12:07Z</time>
      </trkpt>
      <trkpt lat="44.28214" lon="3.69627">
        <ele>660.959</ele>
        <time>2011-09-17T10:12:17Z</time>
      </trkpt>
      <trkpt lat="44.28214" lon="3.69628">
        <ele>661.059</ele>
        <time>2011-09-17T10:12:27Z</time>
      </trkpt>
      <trkpt lat="44.28214" lon="3.69628">
        <ele>660.792</ele>
        <time>2011-09-17T10:12:37Z</time>
      </trkpt>
      <trkpt lat="44.28214" lon="3.69628">
        <ele>660.597</ele>
        <time>2011-09-17T10:12:47Z</time>
      </trkpt>
      <trkpt lat="44.28214" lon="3.69628">
        <ele>661.075</ele>
        <time>2011-09-17T10:12:57Z</time>
      </trkpt>
      <trkpt lat="44.28214" lon="3.69628">
        <ele>660.798</ele>
        <time>2011-09-17T10:13:07Z</time>
      </trkpt>
      <trkpt lat="44.28214" lon="3.69627">
        <ele>660.745</ele>
        <time>2011-09-17T10:13:17Z</time>
      </trkpt>
      <trkpt lat="44.28213" lon="3.69627">
        <ele>660.726</ele>
        <time>2011-09-17T10:13:27Z</time>
      </trkpt>
      <trkpt lat="44.28213" lon="3.69627">
        <ele>660.577</ele>
        <time>2011-09-17T10:13:37Z</time>
      </trkpt>
      <trkpt lat="44.28213" lon="3.69627">
        <ele>660.955</ele>
        <time>2011-09-17T10:13:47Z</time>
      </trkpt>
      <trkpt lat="44.28213" lon="3.69627">
        <ele>660.836</ele>
        <time>2011-09-17T10:13:57Z</time>
      </trkpt>
      <trkpt lat="44.28213" lon="3.69627">
        <ele>661.129</ele>
        <time>2011-09-17T10:14:07Z</time>
      </trkpt>
      <trkpt lat="44.28213" lon="3.69627">
        <ele>660.894</ele>
        <time>2011-09-17T10:14:17Z</time>
      </trkpt>
      <trkpt lat="44.28214" lon="3.69627">
        <ele>660.769</ele>
        <time>2011-09-17T10:14:27Z</time>
      </trkpt>
      <trkpt lat="44.28214" lon="3.69627">
        <ele>661.155</ele>
        <time>2011-09-17T10:14:37Z</time>
      </trkpt>
      <trkpt lat="44.28214" lon="3.69627">
        <ele>660.732</ele>
        <time>2011-09-17T10:14:47Z</time>
      </trkpt>
      <trkpt lat="44.28214" lon="3.69627">
        <ele>660.616</ele>
        <time>2011-09-17T10:14:57Z</time>
      </trkpt>
      <trkpt lat="44.28214" lon="3.69627">
        <ele>660.601</ele>
        <time>2011-09-17T10:15:07Z</time>
      </trkpt>
      <trkpt lat="44.28214" lon="3.69627">
        <ele>660.792</ele>
        <time>2011-09-17T10:15:17Z</time>
      </trkpt>
      <trkpt lat="44.28214" lon="3.69627">
        <ele>660.327</ele>
        <time>2011-09-17T10:15:27Z</time>
      </trkpt>
      <trkpt lat="44.28214" lon="3.69627">
        <ele>660.751</ele>
        <time>2011-09-17T10:15:37Z</time>
      </trkpt>
      <trkpt lat="44.28214" lon="3.69627">
        <ele>660.277</ele>
        <time>2011-09-17T10:15:47Z</time>
      </trkpt>
      <trkpt lat="44.28214" lon="3.69627">
        <ele>660.876</ele>
        <time>2011-09-17T10:15:57Z</time>
      </trkpt>
      <trkpt lat="44.28214" lon="3.69627">
        <ele>660.389</ele>
        <time>2011-09-17T10:16:07Z</time>
      </trkpt>
      <trkpt lat="44.28214" lon="3.69627">
        <ele>660.573</ele>
        <time>2011-09-17T10:16:17Z</time>
      </trkpt>
      <trkpt lat="44.28213" lon="3.69627">
        <ele>660.609</ele>
        <time>2011-09-17T10:16:27Z</time>
      </trkpt>
      <trkpt lat="44.28214" lon="3.69627">
        <ele>660.507</ele>
        <time>2011-09-17T10:16:37Z</time>
      </trkpt>
      <trkpt lat="44.28214" lon="3.69627">
        <ele>660.724</ele>
        <time>2011-09-17T10:16:47Z</time>
      </trkpt>
      <trkpt lat="44.28214" lon="3.69627">
        <ele>660.765</ele>
        <time>2011-09-17T10:16:57Z</time>
      </trkpt>
      <trkpt lat="44.28214" lon="3.69627">
        <ele>660.475</ele>
        <time>2011-09-17T10:17:07Z</time>
      </trkpt>
      <trkpt lat="44.28214" lon="3.69627">
        <ele>660.578</ele>
        <time>2011-09-17T10:17:17Z</time>
      </trkpt>
      <trkpt lat="44.28214" lon="3.69627">
        <ele>660.545</ele>
        <time>2011-09-17T10:17:27Z</time>
      </trkpt>
      <trkpt lat="44.28214" lon="3.69627">
        <ele>660.385</ele>
        <time>2011-09-17T10:17:37Z</time>
      </trkpt>
      <trkpt lat="44.28214" lon="3.69627">
        <ele>660.688</ele>
        <time>2011-09-17T10:17:47Z</time>
      </trkpt>
      <trkpt lat="44.28214" lon="3.69627">
        <ele>660.335</ele>
        <time>2011-09-17T10:17:57Z</time>
      </trkpt>
      <trkpt lat="44.28213" lon="3.69627">
        <ele>660.409</ele>
        <time>2011-09-17T10:18:07Z</time>
      </trkpt>
      <trkpt lat="44.28213" lon="3.69627">
        <ele>660.806</ele>
        <time>2011-09-17T10:18:17Z</time>
      </trkpt>
      <trkpt lat="44.28213" lon="3.69627">
        <ele>661.086</ele>
        <time>2011-09-17T10:18:27Z</time>
      </trkpt>
      <trkpt lat="44.28213" lon="3.69627">
        <ele>660.889</ele>
        <time>2011-09-17T10:18:37Z</time>
      </trkpt>
      <trkpt lat="44.28213" lon="3.69627">
        <ele>660.874</ele>
        <time>2011-09-17T10:18:47Z</time>
      </trkpt>
      <trkpt lat="44.28214" lon="3.69627">
        <ele>660.425</ele>
        <time>2011-09-17T10:18:57Z</time>
      </trkpt>
      <trkpt lat="44.28214" lon="3.69626">
        <ele>661.454</ele>
        <time>2011-09-17T10:19:07Z</time>
      </trkpt>
      <trkpt lat="44.28214" lon="3.69625">
        <ele>660.686</ele>
        <time>2011-09-17T10:19:17Z</time>
      </trkpt>
      <trkpt lat="44.28214" lon="3.69625">
        <ele>661.12</ele>
        <time>2011-09-17T10:19:27Z</time>
      </trkpt>
      <trkpt lat="44.28214" lon="3.69626">
        <ele>660.523</ele>
        <time>2011-09-17T10:19:37Z</time>
      </trkpt>
      <trkpt lat="44.28214" lon="3.69625">
        <ele>661.064</ele>
        <time>2011-09-17T10:19:47Z</time>
      </trkpt>
      <trkpt lat="44.28214" lon="3.69625">
        <ele>660.705</ele>
        <time>2011-09-17T10:19:57Z</time>
      </trkpt>
      <trkpt lat="44.28214" lon="3.69625">
        <ele>661.023</ele>
        <time>2011-09-17T10:20:07Z</time>
      </trkpt>
      <trkpt lat="44.28214" lon="3.69625">
        <ele>660.989</ele>
        <time>2011-09-17T10:20:17Z</time>
      </trkpt>
      <trkpt lat="44.28214" lon="3.69625">
        <ele>660.974</ele>
        <time>2011-09-17T10:20:27Z</time>
      </trkpt>
      <trkpt lat="44.28214" lon="3.69625">
        <ele>660.983</ele>
        <time>2011-09-17T10:20:37Z</time>
      </trkpt>
      <trkpt lat="44.28214" lon="3.69625">
        <ele>660.961</ele>
        <time>2011-09-17T10:20:47Z</time>
      </trkpt>
      <trkpt lat="44.28214" lon="3.69625">
        <ele>660.937</ele>
        <time>2011-09-17T10:20:57Z</time>
      </trkpt>
      <trkpt lat="44.28214" lon="3.69625">
        <ele>660.946</ele>
        <time>2011-09-17T10:21:07Z</time>
      </trkpt>
      <trkpt lat="44.28214" lon="3.69625">
        <ele>660.706</ele>
        <time>2011-09-17T10:21:17Z</time>
      </trkpt>
      <trkpt lat="44.28214" lon="3.69625">
        <ele>660.689</ele>
        <time>2011-09-17T10:21:27Z</time>
      </trkpt>
      <trkpt lat="44.28214" lon="3.69625">
        <ele>660.843</ele>
        <time>2011-09-17T10:21:37Z</time>
      </trkpt>
      <trkpt lat="44.28214" lon="3.69625">
        <ele>660.671</ele>
        <time>2011-09-17T10:21:47Z</time>
      </trkpt>
      <trkpt lat="44.28214" lon="3.69625">
        <ele>660.51</ele>
        <time>2011-09-17T10:21:57Z</time>
      </trkpt>
      <trkpt lat="44.28214" lon="3.69625">
        <ele>660.777</ele>
        <time>2011-09-17T10:22:07Z</time>
      </trkpt>
      <trkpt lat="44.28214" lon="3.69625">
        <ele>660.408</ele>
        <time>2011-09-17T10:22:17Z</time>
      </trkpt>
      <trkpt lat="44.28214" lon="3.69625">
        <ele>660.361</ele>
        <time>2011-09-17T10:22:27Z</time>
      </trkpt>
      <trkpt lat="44.28213" lon="3.69625">
        <ele>660.742</ele>
        <time>2011-09-17T10:22:37Z</time>
      </trkpt>
      <trkpt lat="44.28212" lon="3.69624">
        <ele>660.591</ele>
        <time>2011-09-17T10:22:47Z</time>
      </trkpt>
      <trkpt lat="44.28212" lon="3.69625">
        <ele>660.702</ele>
        <time>2011-09-17T10:22:57Z</time>
      </trkpt>
      <trkpt lat="44.28212" lon="3.69625">
        <ele>660.696</ele>
        <time>2011-09-17T10:23:07Z</time>
      </trkpt>
      <trkpt lat="44.28213" lon="3.69625">
        <ele>661.01</ele>
        <time>2011-09-17T10:23:17Z</time>
      </trkpt>
      <trkpt lat="44.28214" lon="3.69626">
        <ele>660.962</ele>
        <time>2011-09-17T10:23:27Z</time>
      </trkpt>
      <trkpt lat="44.28215" lon="3.69626">
        <ele>660.457</ele>
        <time>2011-09-17T10:23:37Z</time>
      </trkpt>
      <trkpt lat="44.28217" lon="3.69626">
        <ele>660.587</ele>
        <time>2011-09-17T10:23:47Z</time>
      </trkpt>
      <trkpt lat="44.28217" lon="3.69626">
        <ele>660.818</ele>
        <time>2011-09-17T10:23:57Z</time>
      </trkpt>
      <trkpt lat="44.28217" lon="3.69626">
        <ele>661.268</ele>
        <time>2011-09-17T10:24:07Z</time>
      </trkpt>
      <trkpt lat="44.28217" lon="3.69626">
        <ele>660.58</ele>
        <time>2011-09-17T10:24:17Z</time>
      </trkpt>
      <trkpt lat="44.28217" lon="3.69626">
        <ele>660.939</ele>
        <time>2011-09-17T10:24:27Z</time>
      </trkpt>
      <trkpt lat="44.28217" lon="3.69626">
        <ele>660.626</ele>
        <time>2011-09-17T10:24:37Z</time>
      </trkpt>
      <trkpt lat="44.28217" lon="3.69626">
        <ele>660.552</ele>
        <time>2011-09-17T10:24:47Z</time>
      </trkpt>
      <trkpt lat="44.28217" lon="3.69626">
        <ele>660.617</ele>
        <time>2011-09-17T10:24:57Z</time>
      </trkpt>
      <trkpt lat="44.28217" lon="3.69626">
        <ele>661.419</ele>
        <time>2011-09-17T10:25:07Z</time>
      </trkpt>
      <trkpt lat="44.28217" lon="3.69626">
        <ele>661.386</ele>
        <time>2011-09-17T10:25:17Z</time>
      </trkpt>
      <trkpt lat="44.28216" lon="3.69626">
        <ele>661.413</ele>
        <time>2011-09-17T10:25:27Z</time>
      </trkpt>
      <trkpt lat="44.28216" lon="3.69626">
        <ele>660.916</ele>
        <time>2011-09-17T10:25:37Z</time>
      </trkpt>
      <trkpt lat="44.28216" lon="3.69626">
        <ele>660.963</ele>
        <time>2011-09-17T10:25:47Z</time>
      </trkpt>
      <trkpt lat="44.28216" lon="3.69626">
        <ele>661.086</ele>
        <time>2011-09-17T10:25:57Z</time>
      </trkpt>
      <trkpt lat="44.28216" lon="3.69626">
        <ele>660.804</ele>
        <time>2011-09-17T10:26:07Z</time>
      </trkpt>
      <trkpt lat="44.28216" lon="3.69626">
        <ele>661.203</ele>
        <time>2011-09-17T10:26:17Z</time>
      </trkpt>
      <trkpt lat="44.28216" lon="3.69626">
        <ele>661.108</ele>
        <time>2011-09-17T10:26:27Z</time>
      </trkpt>
      <trkpt lat="44.28216" lon="3.69626">
        <ele>661.348</ele>
        <time>2011-09-17T10:26:37Z</time>
      </trkpt>
      <trkpt lat="44.28216" lon="3.69626">
        <ele>661.224</ele>
        <time>2011-09-17T10:26:47Z</time>
      </trkpt>
      <trkpt lat="44.28216" lon="3.69626">
        <ele>661.35</ele>
        <time>2011-09-17T10:26:57Z</time>
      </trkpt>
      <trkpt lat="44.28216" lon="3.69626">
        <ele>661.645</ele>
        <time>2011-09-17T10:27:07Z</time>
      </trkpt>
      <trkpt lat="44.28216" lon="3.69626">
        <ele>661.432</ele>
        <time>2011-09-17T10:27:17Z</time>
      </trkpt>
      <trkpt lat="44.28216" lon="3.69626">
        <ele>661.132</ele>
        <time>2011-09-17T10:27:27Z</time>
      </trkpt>
      <trkpt lat="44.28216" lon="3.69626">
        <ele>661.268</ele>
        <time>2011-09-17T10:27:37Z</time>
      </trkpt>
      <trkpt lat="44.28216" lon="3.69626">
        <ele>661.307</ele>
        <time>2011-09-17T10:27:47Z</time>
      </trkpt>
      <trkpt lat="44.28215" lon="3.69628">
        <ele>661.308</ele>
        <time>2011-09-17T10:27:57Z</time>
      </trkpt>
      <trkpt lat="44.28214" lon="3.69629">
        <ele>661.73</ele>
        <time>2011-09-17T10:28:07Z</time>
      </trkpt>
      <trkpt lat="44.28214" lon="3.69627">
        <ele>661.573</ele>
        <time>2011-09-17T10:28:17Z</time>
      </trkpt>
      <trkpt lat="44.28215" lon="3.69626">
        <ele>661.627</ele>
        <time>2011-09-17T10:28:27Z</time>
      </trkpt>
      <trkpt lat="44.28215" lon="3.69626">
        <ele>661.427</ele>
        <time>2011-09-17T10:28:37Z</time>
      </trkpt>
      <trkpt lat="44.28214" lon="3.69624">
        <ele>661.485</ele>
        <time>2011-09-17T10:28:47Z</time>
      </trkpt>
      <trkpt lat="44.28214" lon="3.69624">
        <ele>661.086</ele>
        <time>2011-09-17T10:28:57Z</time>
      </trkpt>
      <trkpt lat="44.28214" lon="3.69624">
        <ele>661.63</ele>
        <time>2011-09-17T10:29:07Z</time>
      </trkpt>
      <trkpt lat="44.28214" lon="3.69624">
        <ele>661.465</ele>
        <time>2011-09-17T10:29:17Z</time>
      </trkpt>
      <trkpt lat="44.28214" lon="3.69624">
        <ele>661.51</ele>
        <time>2011-09-17T10:29:27Z</time>
      </trkpt>
      <trkpt lat="44.28214" lon="3.69624">
        <ele>661.357</ele>
        <time>2011-09-17T10:29:37Z</time>
      </trkpt>
      <trkpt lat="44.28214" lon="3.69624">
        <ele>661.098</ele>
        <time>2011-09-17T10:29:47Z</time>
      </trkpt>
      <trkpt lat="44.28214" lon="3.69624">
        <ele>660.794</ele>
        <time>2011-09-17T10:29:57Z</time>
      </trkpt>
      <trkpt lat="44.28214" lon="3.69624">
        <ele>660.691</ele>
        <time>2011-09-17T10:30:07Z</time>
      </trkpt>
      <trkpt lat="44.28215" lon="3.69624">
        <ele>660.885</ele>
        <time>2011-09-17T10:30:17Z</time>
      </trkpt>
      <trkpt lat="44.28215" lon="3.69624">
        <ele>660.831</ele>
        <time>2011-09-17T10:30:27Z</time>
      </trkpt>
      <trkpt lat="44.28215" lon="3.69624">
        <ele>661.106</ele>
        <time>2011-09-17T10:30:37Z</time>
      </trkpt>
      <trkpt lat="44.28215" lon="3.69624">
        <ele>660.871</ele>
        <time>2011-09-17T10:30:47Z</time>
      </trkpt>
      <trkpt lat="44.28215" lon="3.69624">
        <ele>660.917</ele>
        <time>2011-09-17T10:30:57Z</time>
      </trkpt>
      <trkpt lat="44.28215" lon="3.69624">
        <ele>661.18</ele>
        <time>2011-09-17T10:31:07Z</time>
      </trkpt>
      <trkpt lat="44.28215" lon="3.69624">
        <ele>661.075</ele>
        <time>2011-09-17T10:31:17Z</time>
      </trkpt>
      <trkpt lat="44.28215" lon="3.69624">
        <ele>661.15</ele>
        <time>2011-09-17T10:31:27Z</time>
      </trkpt>
      <trkpt lat="44.28215" lon="3.69624">
        <ele>661.235</ele>
        <time>2011-09-17T10:31:37Z</time>
      </trkpt>
      <trkpt lat="44.28215" lon="3.69624">
        <ele>660.883</ele>
        <time>2011-09-17T10:31:47Z</time>
      </trkpt>
      <trkpt lat="44.28215" lon="3.69624">
        <ele>661.191</ele>
        <time>2011-09-17T10:31:57Z</time>
      </trkpt>
      <trkpt lat="44.28215" lon="3.69624">
        <ele>660.452</ele>
        <time>2011-09-17T10:32:07Z</time>
      </trkpt>
      <trkpt lat="44.28214" lon="3.69624">
        <ele>660.62</ele>
        <time>2011-09-17T10:32:17Z</time>
      </trkpt>
      <trkpt lat="44.28214" lon="3.69624">
        <ele>660.883</ele>
        <time>2011-09-17T10:32:27Z</time>
      </trkpt>
      <trkpt lat="44.28214" lon="3.69624">
        <ele>660.647</ele>
        <time>2011-09-17T10:32:37Z</time>
      </trkpt>
      <trkpt lat="44.28215" lon="3.69622">
        <ele>660.033</ele>
        <time>2011-09-17T10:32:47Z</time>
      </trkpt>
      <trkpt lat="44.28215" lon="3.69621">
        <ele>660.496</ele>
        <time>2011-09-17T10:32:57Z</time>
      </trkpt>
      <trkpt lat="44.28215" lon="3.69621">
        <ele>660.962</ele>
        <time>2011-09-17T10:33:07Z</time>
      </trkpt>
      <trkpt lat="44.28215" lon="3.69619">
        <ele>660.742</ele>
        <time>2011-09-17T10:33:17Z</time>
      </trkpt>
      <trkpt lat="44.28216" lon="3.69617">
        <ele>660.433</ele>
        <time>2011-09-17T10:33:27Z</time>
      </trkpt>
      <trkpt lat="44.28216" lon="3.69616">
        <ele>661.159</ele>
        <time>2011-09-17T10:33:37Z</time>
      </trkpt>
      <trkpt lat="44.28216" lon="3.69616">
        <ele>659.794</ele>
        <time>2011-09-17T10:33:47Z</time>
      </trkpt>
      <trkpt lat="44.28217" lon="3.69619">
        <ele>660.321</ele>
        <time>2011-09-17T10:33:57Z</time>
      </trkpt>
      <trkpt lat="44.28217" lon="3.69626">
        <ele>661.005</ele>
        <time>2011-09-17T10:34:07Z</time>
      </trkpt>
      <trkpt lat="44.28218" lon="3.69627">
        <ele>660.113</ele>
        <time>2011-09-17T10:34:17Z</time>
      </trkpt>
      <trkpt lat="44.28219" lon="3.69628">
        <ele>660.223</ele>
        <time>2011-09-17T10:34:27Z</time>
      </trkpt>
      <trkpt lat="44.28219" lon="3.69628">
        <ele>661.099</ele>
        <time>2011-09-17T10:34:37Z</time>
      </trkpt>
      <trkpt lat="44.2822" lon="3.69629">
        <ele>660.899</ele>
        <time>2011-09-17T10:34:47Z</time>
      </trkpt>
      <trkpt lat="44.28219" lon="3.69629">
        <ele>661.003</ele>
        <time>2011-09-17T10:34:57Z</time>
      </trkpt>
      <trkpt lat="44.28219" lon="3.69629">
        <ele>661.573</ele>
        <time>2011-09-17T10:35:07Z</time>
      </trkpt>
      <trkpt lat="44.28218" lon="3.69628">
        <ele>661.2</ele>
        <time>2011-09-17T10:35:17Z</time>
      </trkpt>
      <trkpt lat="44.28218" lon="3.69628">
        <ele>660.599</ele>
        <time>2011-09-17T10:35:27Z</time>
      </trkpt>
      <trkpt lat="44.28218" lon="3.69628">
        <ele>660.738</ele>
        <time>2011-09-17T10:35:37Z</time>
      </trkpt>
      <trkpt lat="44.28218" lon="3.69628">
        <ele>660.693</ele>
        <time>2011-09-17T10:35:47Z</time>
      </trkpt>
      <trkpt lat="44.28219" lon="3.69627">
        <ele>660.352</ele>
        <time>2011-09-17T10:35:57Z</time>
      </trkpt>
      <trkpt lat="44.28219" lon="3.69627">
        <ele>660.197</ele>
        <time>2011-09-17T10:36:07Z</time>
      </trkpt>
      <trkpt lat="44.28219" lon="3.69626">
        <ele>661.07</ele>
        <time>2011-09-17T10:36:17Z</time>
      </trkpt>
      <trkpt lat="44.2822" lon="3.69624">
        <ele>660.94</ele>
        <time>2011-09-17T10:36:27Z</time>
      </trkpt>
      <trkpt lat="44.28221" lon="3.69622">
        <ele>661.126</ele>
        <time>2011-09-17T10:36:37Z</time>
      </trkpt>
      <trkpt lat="44.28222" lon="3.69619">
        <ele>661.678</ele>
        <time>2011-09-17T10:36:47Z</time>
      </trkpt>
      <trkpt lat="44.28223" lon="3.69617">
        <ele>661.893</ele>
        <time>2011-09-17T10:36:57Z</time>
      </trkpt>
      <trkpt lat="44.28223" lon="3.69617">
        <ele>661.44</ele>
        <time>2011-09-17T10:37:07Z</time>
      </trkpt>
      <trkpt lat="44.28224" lon="3.69617">
        <ele>661.659</ele>
        <time>2011-09-17T10:37:17Z</time>
      </trkpt>
      <trkpt lat="44.28225" lon="3.69617">
        <ele>661.401</ele>
        <time>2011-09-17T10:37:27Z</time>
      </trkpt>
      <trkpt lat="44.28226" lon="3.69616">
        <ele>661.202</ele>
        <time>2011-09-17T10:37:37Z</time>
      </trkpt>
      <trkpt lat="44.28226" lon="3.69615">
        <ele>661.301</ele>
        <time>2011-09-17T10:37:47Z</time>
      </trkpt>
      <trkpt lat="44.28226" lon="3.69614">
        <ele>661.351</ele>
        <time>2011-09-17T10:37:57Z</time>
      </trkpt>
      <trkpt lat="44.28225" lon="3.69614">
        <ele>661.929</ele>
        <time>2011-09-17T10:38:07Z</time>
      </trkpt>
      <trkpt lat="44.28225" lon="3.69614">
        <ele>661.927</ele>
        <time>2011-09-17T10:38:17Z</time>
      </trkpt>
      <trkpt lat="44.28225" lon="3.69614">
        <ele>661.509</ele>
        <time>2011-09-17T10:38:27Z</time>
      </trkpt>
      <trkpt lat="44.28225" lon="3.69615">
        <ele>660.996</ele>
        <time>2011-09-17T10:38:37Z</time>
      </trkpt>
      <trkpt lat="44.28218" lon="3.69621">
        <ele>661.385</ele>
        <time>2011-09-17T10:38:47Z</time>
      </trkpt>
      <trkpt lat="44.28208" lon="3.69632">
        <ele>661.307</ele>
        <time>2011-09-17T10:38:57Z</time>
      </trkpt>
      <trkpt lat="44.28199" lon="3.69641">
        <ele>661.703</ele>
        <time>2011-09-17T10:39:07Z</time>
      </trkpt>
      <trkpt lat="44.28187" lon="3.69651">
        <ele>661.386</ele>
        <time>2011-09-17T10:39:17Z</time>
      </trkpt>
      <trkpt lat="44.28178" lon="3.69655">
        <ele>661.47</ele>
        <time>2011-09-17T10:39:27Z</time>
      </trkpt>
      <trkpt lat="44.28171" lon="3.69656">
        <ele>661.388</ele>
        <time>2011-09-17T10:39:37Z</time>
      </trkpt>
      <trkpt lat="44.28153" lon="3.69658">
        <ele>661.197</ele>
        <time>2011-09-17T10:39:47Z</time>
      </trkpt>
      <trkpt lat="44.28141" lon="3.69663">
        <ele>661.052</ele>
        <time>2011-09-17T10:39:57Z</time>
      </trkpt>
      <trkpt lat="44.28127" lon="3.69664">
        <ele>661.568</ele>
        <time>2011-09-17T10:40:07Z</time>
      </trkpt>
      <trkpt lat="44.28117" lon="3.69662">
        <ele>661.666</ele>
        <time>2011-09-17T10:40:17Z</time>
      </trkpt>
      <trkpt lat="44.28109" lon="3.69662">
        <ele>661.137</ele>
        <time>2011-09-17T10:40:27Z</time>
      </trkpt>
      <trkpt lat="44.28099" lon="3.69669">
        <ele>661.332</ele>
        <time>2011-09-17T10:40:37Z</time>
      </trkpt>
      <trkpt lat="44.28092" lon="3.69668">
        <ele>661.392</ele>
        <time>2011-09-17T10:40:47Z</time>
      </trkpt>
      <trkpt lat="44.28077" lon="3.6967">
        <ele>661.649</ele>
        <time>2011-09-17T10:40:57Z</time>
      </trkpt>
      <trkpt lat="44.2807" lon="3.69673">
        <ele>661.713</ele>
        <time>2011-09-17T10:41:07Z</time>
      </trkpt>
      <trkpt lat="44.28058" lon="3.69678">
        <ele>662.217</ele>
        <time>2011-09-17T10:41:17Z</time>
      </trkpt>
      <trkpt lat="44.28036" lon="3.69686">
        <ele>662.395</ele>
        <time>2011-09-17T10:41:27Z</time>
      </trkpt>
      <trkpt lat="44.28033" lon="3.69691">
        <ele>661.698</ele>
        <time>2011-09-17T10:41:37Z</time>
      </trkpt>
      <trkpt lat="44.28025" lon="3.69698">
        <ele>661.625</ele>
        <time>2011-09-17T10:41:47Z</time>
      </trkpt>
      <trkpt lat="44.28015" lon="3.69708">
        <ele>661.054</ele>
        <time>2011-09-17T10:41:57Z</time>
      </trkpt>
      <trkpt lat="44.2801" lon="3.69719">
        <ele>660.976</ele>
        <time>2011-09-17T10:42:07Z</time>
      </trkpt>
      <trkpt lat="44.28001" lon="3.69733">
        <ele>661.177</ele>
        <time>2011-09-17T10:42:17Z</time>
      </trkpt>
      <trkpt lat="44.27995" lon="3.69746">
        <ele>661.275</ele>
        <time>2011-09-17T10:42:27Z</time>
      </trkpt>
      <trkpt lat="44.27988" lon="3.69761">
        <ele>661.779</ele>
        <time>2011-09-17T10:42:37Z</time>
      </trkpt>
      <trkpt lat="44.27986" lon="3.69779">
        <ele>661.239</ele>
        <time>2011-09-17T10:42:47Z</time>
      </trkpt>
      <trkpt lat="44.27987" lon="3.69795">
        <ele>661.196</ele>
        <time>2011-09-17T10:42:57Z</time>
      </trkpt>
      <trkpt lat="44.27989" lon="3.6981">
        <ele>660.885</ele>
        <time>2011-09-17T10:43:07Z</time>
      </trkpt>
      <trkpt lat="44.27988" lon="3.69828">
        <ele>660.947</ele>
        <time>2011-09-17T10:43:17Z</time>
      </trkpt>
      <trkpt lat="44.27991" lon="3.69843">
        <ele>661.486</ele>
        <time>2011-09-17T10:43:27Z</time>
      </trkpt>
      <trkpt lat="44.2799" lon="3.69861">
        <ele>661.805</ele>
        <time>2011-09-17T10:43:37Z</time>
      </trkpt>
      <trkpt lat="44.27991" lon="3.69878">
        <ele>662.362</ele>
        <time>2011-09-17T10:43:47Z</time>
      </trkpt>
      <trkpt lat="44.27995" lon="3.69894">
        <ele>661.697</ele>
        <time>2011-09-17T10:43:57Z</time>
      </trkpt>
      <trkpt lat="44.27995" lon="3.69913">
        <ele>661.432</ele>
        <time>2011-09-17T10:44:07Z</time>
      </trkpt>
      <trkpt lat="44.27995" lon="3.69928">
        <ele>661.895</ele>
        <time>2011-09-17T10:44:17Z</time>
      </trkpt>
      <trkpt lat="44.27991" lon="3.69946">
        <ele>661.654</ele>
        <time>2011-09-17T10:44:27Z</time>
      </trkpt>
      <trkpt lat="44.27989" lon="3.69963">
        <ele>661.815</ele>
        <time>2011-09-17T10:44:37Z</time>
      </trkpt>
      <trkpt lat="44.27985" lon="3.69977">
        <ele>661.916</ele>
        <time>2011-09-17T10:44:47Z</time>
      </trkpt>
      <trkpt lat="44.27989" lon="3.69993">
        <ele>661.953</ele>
        <time>2011-09-17T10:44:57Z</time>
      </trkpt>
      <trkpt lat="44.27988" lon="3.70013">
        <ele>662.257</ele>
        <time>2011-09-17T10:45:07Z</time>
      </trkpt>
      <trkpt lat="44.27992" lon="3.70029">
        <ele>662.085</ele>
        <time>2011-09-17T10:45:17Z</time>
      </trkpt>
      <trkpt lat="44.27996" lon="3.70046">
        <ele>662.249</ele>
        <time>2011-09-17T10:45:27Z</time>
      </trkpt>
      <trkpt lat="44.27998" lon="3.70064">
        <ele>662.632</ele>
        <time>2011-09-17T10:45:37Z</time>
      </trkpt>
      <trkpt lat="44.27996" lon="3.70082">
        <ele>662.682</ele>
        <time>2011-09-17T10:45:47Z</time>
      </trkpt>
      <trkpt lat="44.27993" lon="3.70099">
        <ele>663.039</ele>
        <time>2011-09-17T10:45:57Z</time>
      </trkpt>
      <trkpt lat="44.27996" lon="3.70116">
        <ele>663.263</ele>
        <time>2011-09-17T10:46:07Z</time>
      </trkpt>
      <trkpt lat="44.27994" lon="3.70132">
        <ele>663.158</ele>
        <time>2011-09-17T10:46:17Z</time>
      </trkpt>
      <trkpt lat="44.27988" lon="3.70148">
        <ele>663.393</ele>
        <time>2011-09-17T10:46:27Z</time>
      </trkpt>
      <trkpt lat="44.27984" lon="3.70168">
        <ele>663.615</ele>
        <time>2011-09-17T10:46:37Z</time>
      </trkpt>
      <trkpt lat="44.27981" lon="3.70183">
        <ele>664.056</ele>
        <time>2011-09-17T10:46:47Z</time>
      </trkpt>
      <trkpt lat="44.27981" lon="3.70197">
        <ele>663.94</ele>
        <time>2011-09-17T10:46:57Z</time>
      </trkpt>
      <trkpt lat="44.27976" lon="3.70213">
        <ele>664.378</ele>
        <time>2011-09-17T10:47:07Z</time>
      </trkpt>
      <trkpt lat="44.27969" lon="3.70226">
        <ele>664.534</ele>
        <time>2011-09-17T10:47:17Z</time>
      </trkpt>
      <trkpt lat="44.27967" lon="3.70239">
        <ele>664.976</ele>
        <time>2011-09-17T10:47:27Z</time>
      </trkpt>
      <trkpt lat="44.2796" lon="3.70254">
        <ele>665.237</ele>
        <time>2011-09-17T10:47:37Z</time>
      </trkpt>
      <trkpt lat="44.27954" lon="3.70271">
        <ele>665.8</ele>
        <time>2011-09-17T10:47:47Z</time>
      </trkpt>
      <trkpt lat="44.27949" lon="3.70287">
        <ele>666.178</ele>
        <time>2011-09-17T10:47:57Z</time>
      </trkpt>
      <trkpt lat="44.27945" lon="3.703">
        <ele>665.797</ele>
        <time>2011-09-17T10:48:07Z</time>
      </trkpt>
      <trkpt lat="44.2794" lon="3.70319">
        <ele>666.397</ele>
        <time>2011-09-17T10:48:17Z</time>
      </trkpt>
      <trkpt lat="44.2793" lon="3.70333">
        <ele>666.432</ele>
        <time>2011-09-17T10:48:27Z</time>
      </trkpt>
      <trkpt lat="44.27924" lon="3.70351">
        <ele>666.693</ele>
        <time>2011-09-17T10:48:37Z</time>
      </trkpt>
      <trkpt lat="44.27919" lon="3.70368">
        <ele>667.026</ele>
        <time>2011-09-17T10:48:47Z</time>
      </trkpt>
      <trkpt lat="44.27914" lon="3.70383">
        <ele>667.367</ele>
        <time>2011-09-17T10:48:57Z</time>
      </trkpt>
      <trkpt lat="44.27907" lon="3.70398">
        <ele>667.732</ele>
        <time>2011-09-17T10:49:07Z</time>
      </trkpt>
      <trkpt lat="44.27903" lon="3.70416">
        <ele>668.569</ele>
        <time>2011-09-17T10:49:17Z</time>
      </trkpt>
      <trkpt lat="44.279" lon="3.7043">
        <ele>667.824</ele>
        <time>2011-09-17T10:49:27Z</time>
      </trkpt>
      <trkpt lat="44.27891" lon="3.70448">
        <ele>668.752</ele>
        <time>2011-09-17T10:49:37Z</time>
      </trkpt>
      <trkpt lat="44.27889" lon="3.70469">
        <ele>668.907</ele>
        <time>2011-09-17T10:49:47Z</time>
      </trkpt>
      <trkpt lat="44.27886" lon="3.70487">
        <ele>669.256</ele>
        <time>2011-09-17T10:49:57Z</time>
      </trkpt>
      <trkpt lat="44.27883" lon="3.70504">
        <ele>669.539</ele>
        <time>2011-09-17T10:50:07Z</time>
      </trkpt>
      <trkpt lat="44.27878" lon="3.70524">
        <ele>669.851</ele>
        <time>2011-09-17T10:50:17Z</time>
      </trkpt>
      <trkpt lat="44.27878" lon="3.70537">
        <ele>669.867</ele>
        <time>2011-09-17T10:50:27Z</time>
      </trkpt>
      <trkpt lat="44.27875" lon="3.70556">
        <ele>670.07</ele>
        <time>2011-09-17T10:50:37Z</time>
      </trkpt>
      <trkpt lat="44.27872" lon="3.70576">
        <ele>670.369</ele>
        <time>2011-09-17T10:50:47Z</time>
      </trkpt>
      <trkpt lat="44.27872" lon="3.70591">
        <ele>671.029</ele>
        <time>2011-09-17T10:50:57Z</time>
      </trkpt>
      <trkpt lat="44.27868" lon="3.70607">
        <ele>670.971</ele>
        <time>2011-09-17T10:51:07Z</time>
      </trkpt>
      <trkpt lat="44.27864" lon="3.70624">
        <ele>671.021</ele>
        <time>2011-09-17T10:51:17Z</time>
      </trkpt>
      <trkpt lat="44.27865" lon="3.70645">
        <ele>671.164</ele>
        <time>2011-09-17T10:51:27Z</time>
      </trkpt>
      <trkpt lat="44.27859" lon="3.70665">
        <ele>671.211</ele>
        <time>2011-09-17T10:51:37Z</time>
      </trkpt>
      <trkpt lat="44.27852" lon="3.70681">
        <ele>671.803</ele>
        <time>2011-09-17T10:51:47Z</time>
      </trkpt>
      <trkpt lat="44.27846" lon="3.70696">
        <ele>671.716</ele>
        <time>2011-09-17T10:51:57Z</time>
      </trkpt>
      <trkpt lat="44.27836" lon="3.70711">
        <ele>671.832</ele>
        <time>2011-09-17T10:52:07Z</time>
      </trkpt>
      <trkpt lat="44.27823" lon="3.70722">
        <ele>672.163</ele>
        <time>2011-09-17T10:52:17Z</time>
      </trkpt>
      <trkpt lat="44.27808" lon="3.70734">
        <ele>672.58</ele>
        <time>2011-09-17T10:52:27Z</time>
      </trkpt>
      <trkpt lat="44.27796" lon="3.70745">
        <ele>672.34</ele>
        <time>2011-09-17T10:52:37Z</time>
      </trkpt>
      <trkpt lat="44.27791" lon="3.70752">
        <ele>672.942</ele>
        <time>2011-09-17T10:52:47Z</time>
      </trkpt>
      <trkpt lat="44.27778" lon="3.70763">
        <ele>673.806</ele>
        <time>2011-09-17T10:52:57Z</time>
      </trkpt>
      <trkpt lat="44.27773" lon="3.70778">
        <ele>673.587</ele>
        <time>2011-09-17T10:53:07Z</time>
      </trkpt>
      <trkpt lat="44.27764" lon="3.70791">
        <ele>674.314</ele>
        <time>2011-09-17T10:53:17Z</time>
      </trkpt>
      <trkpt lat="44.27766" lon="3.70806">
        <ele>674.816</ele>
        <time>2011-09-17T10:53:27Z</time>
      </trkpt>
      <trkpt lat="44.27759" lon="3.70825">
        <ele>675.373</ele>
        <time>2011-09-17T10:53:37Z</time>
      </trkpt>
      <trkpt lat="44.27751" lon="3.70843">
        <ele>675.186</ele>
        <time>2011-09-17T10:53:47Z</time>
      </trkpt>
      <trkpt lat="44.27744" lon="3.70866">
        <ele>675.643</ele>
        <time>2011-09-17T10:53:57Z</time>
      </trkpt>
      <trkpt lat="44.27747" lon="3.70882">
        <ele>675.622</ele>
        <time>2011-09-17T10:54:07Z</time>
      </trkpt>
      <trkpt lat="44.27762" lon="3.70897">
        <ele>675.267</ele>
        <time>2011-09-17T10:54:17Z</time>
      </trkpt>
      <trkpt lat="44.27768" lon="3.70911">
        <ele>675.68</ele>
        <time>2011-09-17T10:54:27Z</time>
      </trkpt>
      <trkpt lat="44.27771" lon="3.70931">
        <ele>675.751</ele>
        <time>2011-09-17T10:54:37Z</time>
      </trkpt>
      <trkpt lat="44.27779" lon="3.70945">
        <ele>676.05</ele>
        <time>2011-09-17T10:54:47Z</time>
      </trkpt>
      <trkpt lat="44.27792" lon="3.70955">
        <ele>676.11</ele>
        <time>2011-09-17T10:54:57Z</time>
      </trkpt>
      <trkpt lat="44.27798" lon="3.70966">
        <ele>676.042</ele>
        <time>2011-09-17T10:55:07Z</time>
      </trkpt>
      <trkpt lat="44.27809" lon="3.70978">
        <ele>675.297</ele>
        <time>2011-09-17T10:55:17Z</time>
      </trkpt>
      <trkpt lat="44.2782" lon="3.70991">
        <ele>675.566</ele>
        <time>2011-09-17T10:55:27Z</time>
      </trkpt>
      <trkpt lat="44.27827" lon="3.71006">
        <ele>676.184</ele>
        <time>2011-09-17T10:55:37Z</time>
      </trkpt>
      <trkpt lat="44.27834" lon="3.71021">
        <ele>676.018</ele>
        <time>2011-09-17T10:55:47Z</time>
      </trkpt>
      <trkpt lat="44.27836" lon="3.71038">
        <ele>676.211</ele>
        <time>2011-09-17T10:55:57Z</time>
      </trkpt>
      <trkpt lat="44.27835" lon="3.71055">
        <ele>676.332</ele>
        <time>2011-09-17T10:56:07Z</time>
      </trkpt>
      <trkpt lat="44.27838" lon="3.7107">
        <ele>676.615</ele>
        <time>2011-09-17T10:56:17Z</time>
      </trkpt>
      <trkpt lat="44.27836" lon="3.71088">
        <ele>676.898</ele>
        <time>2011-09-17T10:56:27Z</time>
      </trkpt>
      <trkpt lat="44.27837" lon="3.71104">
        <ele>676.903</ele>
        <time>2011-09-17T10:56:37Z</time>
      </trkpt>
      <trkpt lat="44.27835" lon="3.71123">
        <ele>677.04</ele>
        <time>2011-09-17T10:56:47Z</time>
      </trkpt>
      <trkpt lat="44.2784" lon="3.71141">
        <ele>676.969</ele>
        <time>2011-09-17T10:56:57Z</time>
      </trkpt>
      <trkpt lat="44.27845" lon="3.71161">
        <ele>676.607</ele>
        <time>2011-09-17T10:57:07Z</time>
      </trkpt>
      <trkpt lat="44.27838" lon="3.71186">
        <ele>676.922</ele>
        <time>2011-09-17T10:57:17Z</time>
      </trkpt>
      <trkpt lat="44.27842" lon="3.71205">
        <ele>676.565</ele>
        <time>2011-09-17T10:57:27Z</time>
      </trkpt>
      <trkpt lat="44.27842" lon="3.71222">
        <ele>676.768</ele>
        <time>2011-09-17T10:57:37Z</time>
      </trkpt>
      <trkpt lat="44.27835" lon="3.71235">
        <ele>676.969</ele>
        <time>2011-09-17T10:57:47Z</time>
      </trkpt>
      <trkpt lat="44.27839" lon="3.71241">
        <ele>676.734</ele>
        <time>2011-09-17T10:57:57Z</time>
      </trkpt>
      <trkpt lat="44.27827" lon="3.71261">
        <ele>677.054</ele>
        <time>2011-09-17T10:58:07Z</time>
      </trkpt>
      <trkpt lat="44.27817" lon="3.71275">
        <ele>676.808</ele>
        <time>2011-09-17T10:58:17Z</time>
      </trkpt>
      <trkpt lat="44.2781" lon="3.71289">
        <ele>676.467</ele>
        <time>2011-09-17T10:58:27Z</time>
      </trkpt>
      <trkpt lat="44.27803" lon="3.713">
        <ele>676.657</ele>
        <time>2011-09-17T10:58:37Z</time>
      </trkpt>
      <trkpt lat="44.27794" lon="3.71306">
        <ele>676.848</ele>
        <time>2011-09-17T10:58:47Z</time>
      </trkpt>
      <trkpt lat="44.2779" lon="3.71314">
        <ele>676.776</ele>
        <time>2011-09-17T10:58:57Z</time>
      </trkpt>
      <trkpt lat="44.27784" lon="3.7133">
        <ele>676.734</ele>
        <time>2011-09-17T10:59:07Z</time>
      </trkpt>
      <trkpt lat="44.27778" lon="3.71353">
        <ele>676.768</ele>
        <time>2011-09-17T10:59:17Z</time>
      </trkpt>
      <trkpt lat="44.27765" lon="3.71371">
        <ele>676.853</ele>
        <time>2011-09-17T10:59:27Z</time>
      </trkpt>
      <trkpt lat="44.27751" lon="3.71389">
        <ele>676.89</ele>
        <time>2011-09-17T10:59:37Z</time>
      </trkpt>
      <trkpt lat="44.27738" lon="3.71407">
        <ele>677.202</ele>
        <time>2011-09-17T10:59:47Z</time>
      </trkpt>
    </trkseg>
  </trk>
  <trk>
    <name><![CDATA[ACTIVE LOG125949]]></name>
    <trkseg>
      <trkpt lat="44.27777" lon="3.71354">
        <ele>677.5</ele>
        <time>2011-09-17T10:59:49Z</time>
      </trkpt>
      <trkpt lat="44.27777" lon="3.71354">
        <ele>677.141</ele>
        <time>2011-09-17T10:59:59Z</time>
      </trkpt>
    </trkseg>
  </trk>
  <trk>
    <name><![CDATA[ACTIVE LOG130000]]></name>
    <trkseg>
      <trkpt lat="44.27787" lon="3.71435">
        <ele>677.141</ele>
        <time>2011-09-17T11:00:00Z</time>
      </trkpt>
      <trkpt lat="44.2779" lon="3.71457">
        <ele>677.643</ele>
        <time>2011-09-17T11:00:10Z</time>
      </trkpt>
      <trkpt lat="44.27802" lon="3.71476">
        <ele>677.825</ele>
        <time>2011-09-17T11:00:20Z</time>
      </trkpt>
      <trkpt lat="44.27805" lon="3.7149">
        <ele>678.119</ele>
        <time>2011-09-17T11:00:30Z</time>
      </trkpt>
      <trkpt lat="44.27809" lon="3.71501">
        <ele>678.224</ele>
        <time>2011-09-17T11:00:40Z</time>
      </trkpt>
      <trkpt lat="44.27811" lon="3.71519">
        <ele>678.401</ele>
        <time>2011-09-17T11:00:50Z</time>
      </trkpt>
      <trkpt lat="44.27815" lon="3.71537">
        <ele>678.549</ele>
        <time>2011-09-17T11:01:00Z</time>
      </trkpt>
      <trkpt lat="44.27813" lon="3.71551">
        <ele>678.504</ele>
        <time>2011-09-17T11:01:10Z</time>
      </trkpt>
      <trkpt lat="44.27806" lon="3.71567">
        <ele>679.107</ele>
        <time>2011-09-17T11:01:20Z</time>
      </trkpt>
      <trkpt lat="44.27808" lon="3.71579">
        <ele>679.191</ele>
        <time>2011-09-17T11:01:30Z</time>
      </trkpt>
      <trkpt lat="44.27802" lon="3.71595">
        <ele>679.078</ele>
        <time>2011-09-17T11:01:40Z</time>
      </trkpt>
      <trkpt lat="44.27802" lon="3.71618">
        <ele>679.207</ele>
        <time>2011-09-17T11:01:50Z</time>
      </trkpt>
      <trkpt lat="44.27795" lon="3.71633">
        <ele>679.485</ele>
        <time>2011-09-17T11:02:00Z</time>
      </trkpt>
      <trkpt lat="44.27784" lon="3.71655">
        <ele>680.055</ele>
        <time>2011-09-17T11:02:10Z</time>
      </trkpt>
      <trkpt lat="44.27785" lon="3.71671">
        <ele>680.177</ele>
        <time>2011-09-17T11:02:20Z</time>
      </trkpt>
      <trkpt lat="44.27788" lon="3.71689">
        <ele>680.639</ele>
        <time>2011-09-17T11:02:30Z</time>
      </trkpt>
      <trkpt lat="44.27787" lon="3.71711">
        <ele>680.164</ele>
        <time>2011-09-17T11:02:40Z</time>
      </trkpt>
      <trkpt lat="44.27785" lon="3.71729">
        <ele>680.645</ele>
        <time>2011-09-17T11:02:50Z</time>
      </trkpt>
      <trkpt lat="44.27783" lon="3.71744">
        <ele>680.951</ele>
        <time>2011-09-17T11:03:00Z</time>
      </trkpt>
      <trkpt lat="44.27786" lon="3.71762">
        <ele>681.192</ele>
        <time>2011-09-17T11:03:10Z</time>
      </trkpt>
      <trkpt lat="44.27787" lon="3.71781">
        <ele>681.559</ele>
        <time>2011-09-17T11:03:20Z</time>
      </trkpt>
      <trkpt lat="44.27791" lon="3.71796">
        <ele>681.791</ele>
        <time>2011-09-17T11:03:30Z</time>
      </trkpt>
      <trkpt lat="44.27784" lon="3.71816">
        <ele>681.947</ele>
        <time>2011-09-17T11:03:40Z</time>
      </trkpt>
      <trkpt lat="44.2778" lon="3.71833">
        <ele>681.947</ele>
        <time>2011-09-17T11:03:50Z</time>
      </trkpt>
      <trkpt lat="44.27776" lon="3.71851">
        <ele>681.942</ele>
        <time>2011-09-17T11:04:00Z</time>
      </trkpt>
      <trkpt lat="44.27781" lon="3.71864">
        <ele>681.855</ele>
        <time>2011-09-17T11:04:10Z</time>
      </trkpt>
      <trkpt lat="44.27778" lon="3.71879">
        <ele>681.884</ele>
        <time>2011-09-17T11:04:20Z</time>
      </trkpt>
      <trkpt lat="44.27778" lon="3.71894">
        <ele>682.196</ele>
        <time>2011-09-17T11:04:30Z</time>
      </trkpt>
      <trkpt lat="44.2777" lon="3.71924">
        <ele>682.196</ele>
        <time>2011-09-17T11:04:40Z</time>
      </trkpt>
      <trkpt lat="44.2777" lon="3.71941">
        <ele>682.613</ele>
        <time>2011-09-17T11:04:50Z</time>
      </trkpt>
      <trkpt lat="44.27778" lon="3.71958">
        <ele>682.661</ele>
        <time>2011-09-17T11:05:00Z</time>
      </trkpt>
      <trkpt lat="44.27789" lon="3.71973">
        <ele>683.12</ele>
        <time>2011-09-17T11:05:10Z</time>
      </trkpt>
      <trkpt lat="44.27788" lon="3.7199">
        <ele>683.136</ele>
        <time>2011-09-17T11:05:20Z</time>
      </trkpt>
      <trkpt lat="44.27782" lon="3.72011">
        <ele>683.453</ele>
        <time>2011-09-17T11:05:30Z</time>
      </trkpt>
      <trkpt lat="44.27777" lon="3.72026">
        <ele>683.43</ele>
        <time>2011-09-17T11:05:40Z</time>
      </trkpt>
      <trkpt lat="44.27776" lon="3.72038">
        <ele>683.757</ele>
        <time>2011-09-17T11:05:50Z</time>
      </trkpt>
      <trkpt lat="44.2778" lon="3.72052">
        <ele>683.609</ele>
        <time>2011-09-17T11:06:00Z</time>
      </trkpt>
      <trkpt lat="44.27781" lon="3.72067">
        <ele>684.035</ele>
        <time>2011-09-17T11:06:10Z</time>
      </trkpt>
      <trkpt lat="44.27786" lon="3.72082">
        <ele>683.934</ele>
        <time>2011-09-17T11:06:20Z</time>
      </trkpt>
      <trkpt lat="44.27792" lon="3.72099">
        <ele>684.317</ele>
        <time>2011-09-17T11:06:30Z</time>
      </trkpt>
      <trkpt lat="44.27795" lon="3.72119">
        <ele>684.354</ele>
        <time>2011-09-17T11:06:40Z</time>
      </trkpt>
      <trkpt lat="44.27796" lon="3.72137">
        <ele>685.16</ele>
        <time>2011-09-17T11:06:50Z</time>
      </trkpt>
      <trkpt lat="44.278" lon="3.72152">
        <ele>684.925</ele>
        <time>2011-09-17T11:07:00Z</time>
      </trkpt>
      <trkpt lat="44.27802" lon="3.72169">
        <ele>684.885</ele>
        <time>2011-09-17T11:07:10Z</time>
      </trkpt>
      <trkpt lat="44.27796" lon="3.72187">
        <ele>684.864</ele>
        <time>2011-09-17T11:07:20Z</time>
      </trkpt>
      <trkpt lat="44.278" lon="3.72203">
        <ele>685.224</ele>
        <time>2011-09-17T11:07:30Z</time>
      </trkpt>
      <trkpt lat="44.278" lon="3.72221">
        <ele>684.983</ele>
        <time>2011-09-17T11:07:40Z</time>
      </trkpt>
      <trkpt lat="44.27803" lon="3.72237">
        <ele>685.267</ele>
        <time>2011-09-17T11:07:50Z</time>
      </trkpt>
      <trkpt lat="44.27803" lon="3.72254">
        <ele>685.024</ele>
        <time>2011-09-17T11:08:00Z</time>
      </trkpt>
      <trkpt lat="44.27803" lon="3.7227">
        <ele>684.974</ele>
        <time>2011-09-17T11:08:10Z</time>
      </trkpt>
      <trkpt lat="44.27794" lon="3.72291">
        <ele>685.175</ele>
        <time>2011-09-17T11:08:20Z</time>
      </trkpt>
      <trkpt lat="44.27788" lon="3.72309">
        <ele>685.188</ele>
        <time>2011-09-17T11:08:30Z</time>
      </trkpt>
      <trkpt lat="44.2779" lon="3.7232">
        <ele>685.323</ele>
        <time>2011-09-17T11:08:40Z</time>
      </trkpt>
      <trkpt lat="44.27787" lon="3.72335">
        <ele>685.5</ele>
        <time>2011-09-17T11:08:50Z</time>
      </trkpt>
      <trkpt lat="44.27788" lon="3.72348">
        <ele>686.753</ele>
        <time>2011-09-17T11:09:00Z</time>
      </trkpt>
      <trkpt lat="44.27777" lon="3.72362">
        <ele>686.288</ele>
        <time>2011-09-17T11:09:10Z</time>
      </trkpt>
      <trkpt lat="44.27771" lon="3.72371">
        <ele>686.237</ele>
        <time>2011-09-17T11:09:20Z</time>
      </trkpt>
      <trkpt lat="44.27756" lon="3.72382">
        <ele>686.2</ele>
        <time>2011-09-17T11:09:30Z</time>
      </trkpt>
      <trkpt lat="44.27749" lon="3.72389">
        <ele>686.251</ele>
        <time>2011-09-17T11:09:40Z</time>
      </trkpt>
      <trkpt lat="44.27736" lon="3.72399">
        <ele>686.816</ele>
        <time>2011-09-17T11:09:50Z</time>
      </trkpt>
      <trkpt lat="44.27724" lon="3.72407">
        <ele>686.528</ele>
        <time>2011-09-17T11:10:00Z</time>
      </trkpt>
      <trkpt lat="44.27707" lon="3.72411">
        <ele>686.837</ele>
        <time>2011-09-17T11:10:10Z</time>
      </trkpt>
      <trkpt lat="44.27693" lon="3.72422">
        <ele>686.824</ele>
        <time>2011-09-17T11:10:20Z</time>
      </trkpt>
      <trkpt lat="44.27683" lon="3.72439">
        <ele>687.144</ele>
        <time>2011-09-17T11:10:30Z</time>
      </trkpt>
      <trkpt lat="44.27673" lon="3.72449">
        <ele>687.68</ele>
        <time>2011-09-17T11:10:40Z</time>
      </trkpt>
      <trkpt lat="44.27654" lon="3.72466">
        <ele>687.701</ele>
        <time>2011-09-17T11:10:50Z</time>
      </trkpt>
      <trkpt lat="44.27627" lon="3.72489">
        <ele>687.907</ele>
        <time>2011-09-17T11:11:00Z</time>
      </trkpt>
      <trkpt lat="44.27618" lon="3.72497">
        <ele>687.836</ele>
        <time>2011-09-17T11:11:10Z</time>
      </trkpt>
      <trkpt lat="44.27612" lon="3.72499">
        <ele>688.444</ele>
        <time>2011-09-17T11:11:20Z</time>
      </trkpt>
      <trkpt lat="44.27597" lon="3.72517">
        <ele>688.46</ele>
        <time>2011-09-17T11:11:30Z</time>
      </trkpt>
      <trkpt lat="44.27588" lon="3.7253">
        <ele>688.65</ele>
        <time>2011-09-17T11:11:40Z</time>
      </trkpt>
      <trkpt lat="44.27585" lon="3.72533">
        <ele>688.515</ele>
        <time>2011-09-17T11:11:50Z</time>
      </trkpt>
      <trkpt lat="44.27581" lon="3.72541">
        <ele>688.528</ele>
        <time>2011-09-17T11:12:00Z</time>
      </trkpt>
      <trkpt lat="44.27562" lon="3.72563">
        <ele>689.107</ele>
        <time>2011-09-17T11:12:10Z</time>
      </trkpt>
      <trkpt lat="44.27556" lon="3.72567">
        <ele>689.073</ele>
        <time>2011-09-17T11:12:20Z</time>
      </trkpt>
      <trkpt lat="44.27552" lon="3.72577">
        <ele>689.263</ele>
        <time>2011-09-17T11:12:30Z</time>
      </trkpt>
      <trkpt lat="44.27548" lon="3.72582">
        <ele>690.114</ele>
        <time>2011-09-17T11:12:40Z</time>
      </trkpt>
      <trkpt lat="44.27529" lon="3.7261">
        <ele>690.634</ele>
        <time>2011-09-17T11:12:50Z</time>
      </trkpt>
      <trkpt lat="44.27519" lon="3.72625">
        <ele>690.164</ele>
        <time>2011-09-17T11:13:00Z</time>
      </trkpt>
      <trkpt lat="44.27514" lon="3.72635">
        <ele>690.669</ele>
        <time>2011-09-17T11:13:10Z</time>
      </trkpt>
      <trkpt lat="44.27509" lon="3.72645">
        <ele>690.919</ele>
        <time>2011-09-17T11:13:20Z</time>
      </trkpt>
      <trkpt lat="44.27506" lon="3.72657">
        <ele>691.157</ele>
        <time>2011-09-17T11:13:30Z</time>
      </trkpt>
      <trkpt lat="44.27503" lon="3.72664">
        <ele>691.229</ele>
        <time>2011-09-17T11:13:40Z</time>
      </trkpt>
      <trkpt lat="44.27502" lon="3.72683">
        <ele>691.781</ele>
        <time>2011-09-17T11:13:50Z</time>
      </trkpt>
      <trkpt lat="44.27499" lon="3.72692">
        <ele>691.654</ele>
        <time>2011-09-17T11:14:00Z</time>
      </trkpt>
      <trkpt lat="44.27491" lon="3.72699">
        <ele>692.132</ele>
        <time>2011-09-17T11:14:10Z</time>
      </trkpt>
      <trkpt lat="44.2749" lon="3.72713">
        <ele>691.625</ele>
        <time>2011-09-17T11:14:20Z</time>
      </trkpt>
      <trkpt lat="44.2748" lon="3.72738">
        <ele>692.169</ele>
        <time>2011-09-17T11:14:30Z</time>
      </trkpt>
      <trkpt lat="44.27475" lon="3.72754">
        <ele>692.428</ele>
        <time>2011-09-17T11:14:40Z</time>
      </trkpt>
      <trkpt lat="44.27474" lon="3.72766">
        <ele>692.497</ele>
        <time>2011-09-17T11:14:50Z</time>
      </trkpt>
      <trkpt lat="44.27475" lon="3.72783">
        <ele>692.777</ele>
        <time>2011-09-17T11:15:00Z</time>
      </trkpt>
      <trkpt lat="44.27474" lon="3.72799">
        <ele>692.888</ele>
        <time>2011-09-17T11:15:10Z</time>
      </trkpt>
      <trkpt lat="44.27473" lon="3.72822">
        <ele>693.115</ele>
        <time>2011-09-17T11:15:20Z</time>
      </trkpt>
      <trkpt lat="44.2747" lon="3.72838">
        <ele>693.591</ele>
        <time>2011-09-17T11:15:30Z</time>
      </trkpt>
      <trkpt lat="44.27469" lon="3.72857">
        <ele>693.3</ele>
        <time>2011-09-17T11:15:40Z</time>
      </trkpt>
      <trkpt lat="44.27469" lon="3.72874">
        <ele>693.165</ele>
        <time>2011-09-17T11:15:50Z</time>
      </trkpt>
      <trkpt lat="44.27467" lon="3.72892">
        <ele>693.023</ele>
        <time>2011-09-17T11:16:00Z</time>
      </trkpt>
      <trkpt lat="44.27464" lon="3.7291">
        <ele>693.094</ele>
        <time>2011-09-17T11:16:10Z</time>
      </trkpt>
      <trkpt lat="44.27466" lon="3.72925">
        <ele>693.237</ele>
        <time>2011-09-17T11:16:20Z</time>
      </trkpt>
      <trkpt lat="44.27462" lon="3.72942">
        <ele>693.388</ele>
        <time>2011-09-17T11:16:30Z</time>
      </trkpt>
      <trkpt lat="44.27456" lon="3.72957">
        <ele>693.19</ele>
        <time>2011-09-17T11:16:40Z</time>
      </trkpt>
      <trkpt lat="44.27449" lon="3.72966">
        <ele>693.204</ele>
        <time>2011-09-17T11:16:50Z</time>
      </trkpt>
      <trkpt lat="44.27437" lon="3.72976">
        <ele>692.76</ele>
        <time>2011-09-17T11:17:00Z</time>
      </trkpt>
      <trkpt lat="44.27428" lon="3.72982">
        <ele>692.849</ele>
        <time>2011-09-17T11:17:10Z</time>
      </trkpt>
      <trkpt lat="44.27414" lon="3.72987">
        <ele>693.048</ele>
        <time>2011-09-17T11:17:20Z</time>
      </trkpt>
      <trkpt lat="44.27404" lon="3.72991">
        <ele>693.642</ele>
        <time>2011-09-17T11:17:30Z</time>
      </trkpt>
      <trkpt lat="44.27399" lon="3.72987">
        <ele>693.568</ele>
        <time>2011-09-17T11:17:40Z</time>
      </trkpt>
      <trkpt lat="44.27389" lon="3.7298">
        <ele>692.353</ele>
        <time>2011-09-17T11:17:50Z</time>
      </trkpt>
      <trkpt lat="44.27376" lon="3.72979">
        <ele>691.267</ele>
        <time>2011-09-17T11:18:00Z</time>
      </trkpt>
      <trkpt lat="44.27366" lon="3.72973">
        <ele>690.622</ele>
        <time>2011-09-17T11:18:10Z</time>
      </trkpt>
      <trkpt lat="44.27354" lon="3.72974">
        <ele>689.885</ele>
        <time>2011-09-17T11:18:20Z</time>
      </trkpt>
      <trkpt lat="44.2734" lon="3.72971">
        <ele>688.188</ele>
        <time>2011-09-17T11:18:30Z</time>
      </trkpt>
      <trkpt lat="44.27331" lon="3.7297">
        <ele>687.528</ele>
        <time>2011-09-17T11:18:40Z</time>
      </trkpt>
      <trkpt lat="44.2732" lon="3.72968">
        <ele>687.731</ele>
        <time>2011-09-17T11:18:50Z</time>
      </trkpt>
      <trkpt lat="44.27305" lon="3.72966">
        <ele>687.824</ele>
        <time>2011-09-17T11:19:00Z</time>
      </trkpt>
      <trkpt lat="44.27299" lon="3.72963">
        <ele>688.154</ele>
        <time>2011-09-17T11:19:10Z</time>
      </trkpt>
      <trkpt lat="44.27288" lon="3.72958">
        <ele>688.009</ele>
        <time>2011-09-17T11:19:20Z</time>
      </trkpt>
      <trkpt lat="44.27273" lon="3.72962">
        <ele>687.906</ele>
        <time>2011-09-17T11:19:30Z</time>
      </trkpt>
      <trkpt lat="44.27257" lon="3.72982">
        <ele>687.723</ele>
        <time>2011-09-17T11:19:40Z</time>
      </trkpt>
      <trkpt lat="44.27238" lon="3.72987">
        <ele>687.771</ele>
        <time>2011-09-17T11:19:50Z</time>
      </trkpt>
      <trkpt lat="44.27224" lon="3.72991">
        <ele>688.247</ele>
        <time>2011-09-17T11:20:00Z</time>
      </trkpt>
      <trkpt lat="44.27212" lon="3.72998">
        <ele>688.529</ele>
        <time>2011-09-17T11:20:10Z</time>
      </trkpt>
      <trkpt lat="44.27195" lon="3.73004">
        <ele>688.587</ele>
        <time>2011-09-17T11:20:20Z</time>
      </trkpt>
      <trkpt lat="44.2718" lon="3.73011">
        <ele>688.91</ele>
        <time>2011-09-17T11:20:30Z</time>
      </trkpt>
      <trkpt lat="44.27167" lon="3.73017">
        <ele>688.754</ele>
        <time>2011-09-17T11:20:40Z</time>
      </trkpt>
      <trkpt lat="44.27157" lon="3.73022">
        <ele>689.901</ele>
        <time>2011-09-17T11:20:50Z</time>
      </trkpt>
      <trkpt lat="44.27144" lon="3.73032">
        <ele>689.903</ele>
        <time>2011-09-17T11:21:00Z</time>
      </trkpt>
      <trkpt lat="44.2713" lon="3.73043">
        <ele>689.293</ele>
        <time>2011-09-17T11:21:10Z</time>
      </trkpt>
      <trkpt lat="44.27121" lon="3.7305">
        <ele>690.02</ele>
        <time>2011-09-17T11:21:20Z</time>
      </trkpt>
      <trkpt lat="44.27115" lon="3.73058">
        <ele>689.803</ele>
        <time>2011-09-17T11:21:30Z</time>
      </trkpt>
      <trkpt lat="44.27108" lon="3.73067">
        <ele>690.699</ele>
        <time>2011-09-17T11:21:40Z</time>
      </trkpt>
      <trkpt lat="44.27113" lon="3.73069">
        <ele>692.094</ele>
        <time>2011-09-17T11:21:50Z</time>
      </trkpt>
      <trkpt lat="44.27119" lon="3.73059">
        <ele>692.482</ele>
        <time>2011-09-17T11:22:00Z</time>
      </trkpt>
      <trkpt lat="44.27119" lon="3.73043">
        <ele>692.99</ele>
        <time>2011-09-17T11:22:10Z</time>
      </trkpt>
      <trkpt lat="44.27127" lon="3.73037">
        <ele>693.978</ele>
        <time>2011-09-17T11:22:20Z</time>
      </trkpt>
      <trkpt lat="44.27116" lon="3.73019">
        <ele>694.657</ele>
        <time>2011-09-17T11:22:30Z</time>
      </trkpt>
      <trkpt lat="44.27111" lon="3.73008">
        <ele>694.609</ele>
        <time>2011-09-17T11:22:40Z</time>
      </trkpt>
      <trkpt lat="44.27113" lon="3.73004">
        <ele>694.578</ele>
        <time>2011-09-17T11:22:50Z</time>
      </trkpt>
      <trkpt lat="44.27109" lon="3.72987">
        <ele>694.609</ele>
        <time>2011-09-17T11:23:00Z</time>
      </trkpt>
      <trkpt lat="44.27111" lon="3.72989">
        <ele>694.963</ele>
        <time>2011-09-17T11:23:10Z</time>
      </trkpt>
      <trkpt lat="44.27111" lon="3.73006">
        <ele>694.733</ele>
        <time>2011-09-17T11:23:20Z</time>
      </trkpt>
      <trkpt lat="44.27112" lon="3.73018">
        <ele>694.723</ele>
        <time>2011-09-17T11:23:30Z</time>
      </trkpt>
      <trkpt lat="44.27118" lon="3.73031">
        <ele>694.762</ele>
        <time>2011-09-17T11:23:40Z</time>
      </trkpt>
      <trkpt lat="44.27123" lon="3.73044">
        <ele>694.807</ele>
        <time>2011-09-17T11:23:50Z</time>
      </trkpt>
    </trkseg>
  </trk>
  <trk>
    <name><![CDATA[ACTIVE LOG132353]]></name>
    <trkseg>
      <trkpt lat="44.27108" lon="3.73008">
        <ele>694.535</ele>
        <time>2011-09-17T11:23:53Z</time>
      </trkpt>
    </trkseg>
  </trk>
  <trk>
    <name><![CDATA[ACTIVE LOG132357]]></name>
    <trkseg>
      <trkpt lat="44.27128" lon="3.73005">
        <ele>694.422</ele>
        <time>2011-09-17T11:23:57Z</time>
      </trkpt>
      <trkpt lat="44.27119" lon="3.72975">
        <ele>695.048</ele>
        <time>2011-09-17T11:24:07Z</time>
      </trkpt>
      <trkpt lat="44.27126" lon="3.72979">
        <ele>694.501</ele>
        <time>2011-09-17T11:24:17Z</time>
      </trkpt>
      <trkpt lat="44.27126" lon="3.72975">
        <ele>694.921</ele>
        <time>2011-09-17T11:24:27Z</time>
      </trkpt>
      <trkpt lat="44.27135" lon="3.72995">
        <ele>694.842</ele>
        <time>2011-09-17T11:24:37Z</time>
      </trkpt>
      <trkpt lat="44.27137" lon="3.72999">
        <ele>694.58</ele>
        <time>2011-09-17T11:24:47Z</time>
      </trkpt>
      <trkpt lat="44.27166" lon="3.73013">
        <ele>694.345</ele>
        <time>2011-09-17T11:24:57Z</time>
      </trkpt>
      <trkpt lat="44.27176" lon="3.73013">
        <ele>694.189</ele>
        <time>2011-09-17T11:25:07Z</time>
      </trkpt>
      <trkpt lat="44.27189" lon="3.7301">
        <ele>694.171</ele>
        <time>2011-09-17T11:25:17Z</time>
      </trkpt>
      <trkpt lat="44.27201" lon="3.73008">
        <ele>695.101</ele>
        <time>2011-09-17T11:25:27Z</time>
      </trkpt>
      <trkpt lat="44.27206" lon="3.73006">
        <ele>695.13</ele>
        <time>2011-09-17T11:25:37Z</time>
      </trkpt>
      <trkpt lat="44.27212" lon="3.73006">
        <ele>694.686</ele>
        <time>2011-09-17T11:25:47Z</time>
      </trkpt>
      <trkpt lat="44.27215" lon="3.73013">
        <ele>694.416</ele>
        <time>2011-09-17T11:25:57Z</time>
      </trkpt>
      <trkpt lat="44.27211" lon="3.7301">
        <ele>695.003</ele>
        <time>2011-09-17T11:26:07Z</time>
      </trkpt>
      <trkpt lat="44.27211" lon="3.7301">
        <ele>695.294</ele>
        <time>2011-09-17T11:26:17Z</time>
      </trkpt>
      <trkpt lat="44.2721" lon="3.73008">
        <ele>695.172</ele>
        <time>2011-09-17T11:26:27Z</time>
      </trkpt>
      <trkpt lat="44.27205" lon="3.72998">
        <ele>695.209</ele>
        <time>2011-09-17T11:26:37Z</time>
      </trkpt>
      <trkpt lat="44.27207" lon="3.72999">
        <ele>695.074</ele>
        <time>2011-09-17T11:26:47Z</time>
      </trkpt>
      <trkpt lat="44.27202" lon="3.72998">
        <ele>695.87</ele>
        <time>2011-09-17T11:26:57Z</time>
      </trkpt>
      <trkpt lat="44.27204" lon="3.73002">
        <ele>694.712</ele>
        <time>2011-09-17T11:27:01Z</time>
      </trkpt>
    </trkseg>
  </trk>
</gpx>